GFSCGP_500_rhum_000.txt.gz
RH
16 15 12 12 25 30 33 28 28 24 24 26 28 34 33 31 29 34 36 34 35 37 36 38 39 37 36 35 36 38 38 39 41 42 41 38 34 31 29 23 21 19 17 18
15 17 16 16 17 26 32 32 26 26 24 25 33 34 34 35 40 41 42 44 40 40 42 43 44 45 45 41 37 33 33 33 34 36 39 38 37 36 31 32 34 36 38 40
17 18 19 19 21 30 34 33 31 28 30 29 34 46 38 33 35 38 39 38 41 44 43 40 42 42 39 36 33 34 35 39 44 46 48 49 48 50 49 53 56 52 58 56
19 20 21 23 29 34 33 33 32 36 38 38 37 40 35 33 28 29 33 37 40 42 41 38 35 32 32 32 34 39 44 46 52 62 66 69 67 72 76 78 72 74 73 67
22 23 22 24 32 35 33 32 29 28 26 30 30 31 32 28 31 26 28 31 30 29 29 32 34 34 32 32 33 34 35 39 41 48 57 64 73 79 80 86 88 88 91 83
29 31 24 28 33 35 35 36 33 32 24 26 28 31 29 26 28 27 27 24 24 24 27 29 30 31 32 33 34 36 39 40 44 50 58 72 81 86 97 100 99 98 96 86
34 31 27 30 31 35 38 39 35 30 25 26 28 30 36 27 28 30 30 28 28 26 24 25 28 33 36 40 44 49 53 56 57 62 70 76 90 99 100 100 100 100 98 92
33 31 29 33 32 33 38 39 43 39 32 24 28 30 49 30 30 31 35 36 39 40 39 36 38 41 40 43 48 52 62 69 71 78 79 83 99 100 100 100 100 100 100 98
26 33 32 31 30 36 40 38 38 36 32 27 25 26 43 46 42 42 40 40 45 48 50 50 49 50 48 54 64 70 73 84 97 100 100 100 100 100 99 98 100 95 87 86
31 28 35 34 31 36 45 43 43 42 38 28 26 32 39 59 47 48 44 47 48 52 50 48 50 52 54 65 75 81 91 99 100 100 100 100 100 100 100 100 100 94 84 85
39 39 45 46 41 44 44 52 52 48 46 43 40 26 53 67 51 49 50 49 50 52 53 56 57 56 65 77 85 87 96 100 100 97 100 100 100 100 100 100 100 99 92 87
41 43 44 51 53 54 54 54 55 58 56 47 48 18 58 60 70 59 52 52 55 53 54 53 55 65 76 82 86 92 98 99 100 100 100 100 100 100 100 100 100 97 89 86
38 36 38 46 53 59 62 68 66 69 67 58 78 37 79 75 72 62 59 61 58 53 58 59 62 74 79 80 88 97 99 99 100 100 100 100 100 100 100 100 100 96 88 87
46 48 51 51 59 64 68 80 82 86 74 78 65 66 60 75 64 64 64 65 64 66 72 76 82 84 80 75 91 97 98 96 98 100 100 100 100 100 98 100 94 93 91 74
55 52 67 62 66 77 82 74 89 90 94 88 56 72 77 70 67 68 65 75 74 82 80 92 88 86 79 82 99 98 96 94 96 100 100 100 100 100 100 96 99 88 69 57
64 60 53 47 64 71 64 71 68 81 85 78 77 56 77 70 74 75 81 79 77 81 85 95 91 81 89 100 100 96 94 91 97 98 96 100 100 94 98 100 79 58 39 37
53 53 41 32 43 42 44 66 57 69 76 72 72 75 67 67 78 80 87 93 90 94 99 94 82 89 100 100 96 99 93 90 93 91 99 100 92 97 99 72 44 26 26 15
66 60 60 51 54 46 56 75 70 63 61 70 70 71 84 81 74 78 100 95 98 100 97 86 95 100 100 97 99 95 98 96 96 100 100 95 97 98 66 31 22 20 11 8
73 71 66 63 52 41 54 64 68 63 52 71 68 74 79 79 62 73 96 94 100 100 84 86 100 100 95 100 100 100 100 100 98 100 98 98 98 57 24 19 16 10 8 7
73 71 74 83 71 52 60 70 67 58 59 71 82 80 73 76 77 62 83 98 86 93 96 96 97 94 100 100 100 100 100 100 100 98 99 96 52 22 19 14 10 8 8 16
91 96 91 85 77 57 72 67 66 66 66 64 77 80 80 89 99 92 91 95 100 94 90 97 88 91 100 100 100 100 100 100 100 99 93 48 23 20 13 10 9 8 15 19
100 98 91 87 80 66 78 87 93 81 65 82 71 88 91 96 83 81 90 94 84 80 89 81 73 95 100 99 100 100 100 100 93 91 44 23 19 13 10 9 10 16 17 42
79 96 94 88 68 80 86 91 78 86 92 86 97 88 92 91 80 89 84 77 83 95 75 72 96 98 99 100 100 100 97 96 89 41 26 19 13 10 10 12 15 18 28 57
72 86 72 67 70 82 86 86 94 91 100 100 95 88 94 93 93 87 90 91 81 70 84 99 96 99 99 98 94 91 95 91 44 27 20 13 11 11 14 18 20 17 42 56
82 88 91 71 75 57 78 84 88 84 93 94 90 96 98 84 76 75 66 64 69 96 100 100 100 100 96 91 90 97 93 48 32 22 14 12 11 14 23 24 21 19 48 43
85 99 100 72 79 81 59 69 85 87 86 89 92 91 86 65 52 50 54 72 99 100 100 100 100 99 96 98 100 95 50 36 25 16 13 11 13 24 30 29 23 27 39 81

GFSCGP_500_rhum_003.txt.gz
RH
16 17 18 16 19 28 34 30 25 24 26 31 33 30 32 31 30 30 32 32 33 32 31 27 26 22 26 20 21 18 21 22 26 24 29 28 33 35 36 37 37 41 41 42
18 20 21 22 26 32 34 32 30 28 25 27 32 28 23 24 18 17 18 18 21 22 24 22 21 20 19 19 19 20 22 18 20 20 22 24 24 27 31 32 30 40 41 53
19 21 23 25 29 31 30 31 31 33 31 27 31 57 26 21 18 18 16 14 14 15 16 16 16 16 19 21 21 23 22 25 26 30 31 33 35 38 38 39 40 40 49 61
20 23 25 24 28 29 28 30 30 34 29 26 27 31 25 20 21 21 20 20 21 20 20 22 23 24 26 27 27 28 29 30 32 38 47 49 58 74 82 75 68 70 70 62
23 27 28 25 28 30 30 29 28 29 30 27 25 23 79 23 21 25 28 31 32 34 37 37 33 30 29 29 31 35 37 39 42 46 58 66 75 96 96 97 94 96 96 94
27 27 26 25 28 32 32 30 31 30 30 30 28 29 33 64 33 28 32 31 34 39 44 44 43 47 50 47 46 47 46 50 50 61 71 78 82 94 100 98 98 100 100 100
20 23 24 25 26 28 32 32 34 36 33 43 33 33 38 40 37 42 39 38 39 38 40 42 41 45 48 47 48 51 54 54 60 60 71 81 90 100 100 97 100 100 100 100
27 22 25 27 26 29 31 33 37 37 38 36 39 38 49 43 51 52 44 41 38 33 42 44 46 49 53 55 56 60 58 59 69 74 76 89 94 95 91 94 100 100 100 100
24 27 27 29 28 34 34 36 37 36 37 32 30 32 32 48 65 66 55 42 42 46 50 50 51 54 58 58 59 63 62 72 79 80 82 88 89 92 100 98 100 100 98 98
21 31 38 35 37 40 46 44 40 40 43 40 44 48 47 71 98 100 80 67 57 52 55 58 56 60 63 75 81 73 78 89 93 88 86 93 90 99 97 97 99 100 100 100
29 32 39 46 37 44 45 50 52 53 60 50 44 49 63 79 88 87 84 73 64 58 59 61 65 68 73 76 81 88 98 96 89 95 95 90 95 92 89 100 100 100 100 100
39 38 39 44 50 50 49 53 54 56 58 57 61 30 71 64 73 72 67 65 66 71 66 70 74 76 79 81 94 96 93 92 100 98 87 86 89 83 97 100 100 100 100 100
40 38 40 47 46 44 50 59 50 50 52 54 75 38 75 76 79 74 66 69 70 74 68 78 83 83 90 91 84 91 89 97 94 89 81 86 83 88 100 100 100 100 98 96
39 38 41 44 48 55 55 67 82 81 70 66 60 55 57 68 60 56 60 57 68 69 80 85 84 97 98 94 85 90 88 90 89 81 83 85 90 99 100 100 100 97 93 85
41 35 55 57 58 64 64 58 76 74 77 76 48 63 57 56 57 58 58 62 76 81 83 84 91 82 88 86 92 86 91 84 76 76 87 92 98 100 100 97 99 91 82 77
58 49 61 56 71 70 58 67 64 61 72 69 71 59 68 62 57 59 67 80 78 81 82 88 86 81 78 90 95 93 84 72 64 87 98 100 100 100 98 98 89 84 79 57
58 60 58 50 61 55 48 54 59 59 76 80 74 69 62 58 65 74 72 83 79 86 79 81 85 86 86 82 85 85 82 61 83 98 100 100 100 100 100 98 87 76 26 7
54 59 63 59 65 60 68 83 80 74 77 87 81 72 64 67 64 85 99 82 85 82 74 77 78 77 80 79 75 76 68 86 96 100 100 100 100 100 99 86 55 8 11 15
68 67 67 65 65 57 59 71 67 80 73 74 70 67 75 87 74 73 94 96 93 90 82 81 81 81 73 78 88 70 88 91 99 100 97 100 100 96 82 29 9 15 12 10
71 74 70 76 68 53 69 84 78 75 67 66 73 87 87 87 85 65 64 78 78 81 88 84 78 69 78 82 66 91 86 93 98 100 100 97 90 76 16 11 15 12 10 10
75 82 85 91 87 59 76 76 78 78 80 78 96 98 84 82 89 80 69 86 82 86 85 83 76 75 58 60 90 84 91 100 100 99 91 88 77 14 14 15 13 10 10 11
92 98 97 96 92 80 81 97 100 100 86 96 77 80 77 75 75 78 79 91 95 90 84 64 53 44 55 83 88 95 100 99 94 89 93 76 18 20 17 14 10 11 12 16
82 100 95 97 85 85 97 100 93 96 76 69 76 73 82 75 75 84 91 97 92 72 58 54 44 52 71 89 100 100 100 96 90 94 80 22 24 19 15 11 11 14 16 19
74 91 86 87 69 86 85 96 98 82 81 80 85 92 95 94 97 93 90 77 64 69 61 38 40 66 91 100 100 100 97 96 96 83 28 28 21 16 12 12 14 20 16 28
82 89 99 76 88 95 94 94 90 90 91 87 85 94 96 100 100 98 82 78 69 42 36 47 75 93 100 100 100 99 97 99 86 34 32 25 17 12 12 14 28 28 19 45
90 95 100 96 83 90 64 90 100 94 81 78 89 96 100 96 88 85 75 44 37 40 64 84 96 100 100 100 100 99 97 88 42 38 29 18 13 12 14 20 37 23 20 44

GFSCGP_500_rhum_006.txt.gz
RH
16 16 19 21 24 28 28 24 22 22 23 26 26 25 22 21 21 15 12 12 12 11 12 11 10 12 12 13 14 15 15 15 16 18 20 22 25 27 29 32 29 33 33 36
17 20 22 24 26 27 26 24 24 27 22 21 28 23 22 19 14 13 14 14 14 14 14 14 14 15 17 18 20 21 23 23 23 25 23 26 28 30 32 38 43 44 53 59
17 18 22 23 26 29 27 28 27 26 25 18 25 27 13 18 14 14 17 16 16 18 18 20 26 31 33 38 41 44 44 43 41 40 42 39 40 47 48 51 56 54 56 64
17 20 21 23 23 24 26 25 26 27 28 26 22 34 61 23 17 19 22 25 28 30 31 36 38 38 40 42 46 52 56 53 50 48 52 64 58 55 63 73 75 77 70 74
21 21 20 21 23 24 24 23 24 26 27 29 27 27 54 52 46 34 29 31 37 43 39 42 45 45 49 52 54 58 60 60 60 60 57 58 77 73 84 94 93 92 93 90
20 20 19 20 20 23 23 22 24 23 28 32 31 35 39 64 79 44 49 58 44 41 46 53 56 57 61 54 54 61 65 66 67 68 69 68 68 83 88 92 94 94 92 98
20 12 18 21 22 19 22 24 24 27 35 37 48 35 43 53 70 71 76 61 51 47 53 40 37 41 54 53 58 61 61 64 70 76 81 77 80 84 92 93 88 83 79 88
21 20 15 21 22 24 28 33 34 34 34 34 40 44 46 66 84 81 72 71 57 42 42 40 41 44 46 49 60 69 65 65 69 67 71 79 84 87 92 92 83 78 92 98
20 20 20 27 30 31 36 35 38 37 40 36 36 46 55 81 99 99 94 88 62 67 54 46 45 48 47 58 63 68 69 74 80 92 92 92 94 92 89 86 76 82 88 99
14 20 30 32 35 33 37 38 39 40 39 41 43 52 55 90 94 94 99 99 80 70 55 53 53 58 61 77 76 72 73 84 96 100 100 100 99 93 80 70 73 81 94 100
22 23 29 35 38 38 40 43 50 48 58 57 45 42 73 74 65 66 64 66 68 71 67 61 65 68 68 79 78 76 75 84 88 94 95 99 97 80 60 70 85 100 100 100
34 36 33 40 43 45 47 55 60 64 53 56 46 29 60 67 76 73 82 78 69 66 65 70 81 84 76 77 82 84 75 74 79 83 94 87 83 58 53 70 92 100 100 100
42 36 35 43 46 36 37 48 55 58 60 53 65 37 75 78 79 77 72 67 65 67 74 77 84 76 76 82 87 83 79 75 78 84 77 69 56 53 62 76 90 100 100 100
38 44 43 51 48 44 44 49 63 70 56 57 67 60 74 85 80 74 71 65 66 68 67 66 86 76 84 80 80 82 84 82 76 67 64 52 49 64 73 86 100 100 100 100
64 56 54 63 55 55 54 52 73 78 78 71 64 84 81 79 75 67 67 62 64 61 65 76 81 89 86 77 89 99 98 81 68 66 54 46 63 73 91 100 100 100 100 93
54 47 47 48 50 52 49 64 63 61 65 67 66 60 83 73 68 64 66 69 62 67 62 75 85 82 91 96 98 98 92 75 67 54 48 67 75 84 93 100 100 94 97 96
43 50 49 42 50 50 50 60 60 55 69 78 77 76 73 69 64 67 66 60 62 62 66 68 68 79 83 88 93 95 81 63 54 51 66 84 97 100 100 100 100 100 94 47
58 63 60 57 54 50 60 74 79 75 73 88 85 80 68 65 64 78 82 84 71 66 72 77 79 85 96 100 100 80 60 58 51 67 90 100 100 100 100 100 100 81 22 16
63 66 67 66 61 50 55 79 81 81 76 89 78 82 97 85 81 80 85 86 93 96 86 89 92 93 94 95 73 67 67 46 56 89 100 100 100 100 100 98 63 19 19 18
66 67 71 72 63 47 60 77 74 78 69 99 96 100 98 100 83 73 72 73 63 71 82 94 99 100 93 76 75 62 37 46 74 100 100 100 100 98 92 55 21 21 19 16
74 78 77 79 72 52 72 70 82 95 100 94 98 100 100 94 94 83 66 61 65 80 97 100 98 93 81 75 47 35 45 65 88 97 100 100 100 96 57 24 24 20 16 12
85 87 91 78 79 66 87 97 100 100 87 98 92 94 94 100 86 65 68 86 96 79 91 96 88 82 66 39 35 57 76 94 99 98 100 98 96 67 28 28 22 16 12 12
80 100 89 91 91 84 83 96 77 99 100 94 88 84 100 88 72 73 85 96 95 100 100 85 79 50 33 32 66 85 100 100 100 100 100 99 75 38 34 24 16 13 12 15
72 100 90 74 71 79 70 81 85 94 89 85 97 100 80 73 73 85 81 96 99 94 78 53 32 26 31 69 88 100 100 100 100 100 100 82 45 38 28 18 13 13 13 21
89 98 97 56 58 63 61 73 81 90 100 93 95 83 82 92 100 100 100 98 97 92 68 27 20 32 81 87 98 100 100 100 100 100 84 49 40 29 18 14 13 14 22 22
95 100 96 71 70 76 62 64 62 74 97 86 75 64 78 100 100 94 92 88 85 57 17 16 37 78 91 100 100 100 100 100 100 80 50 41 29 17 14 13 15 17 41 22

GFSCGP_500_rhum_009.txt.gz
RH
14 15 15 19 20 20 21 21 19 16 17 22 13 13 14 15 16 12 13 16 15 16 15 16 17 18 23 30 33 34 35 37 41 45 49 48 41 40 40 42 37 34 42 51
16 19 20 21 23 21 20 19 20 23 22 16 19 17 14 18 20 16 18 23 27 33 37 33 30 33 38 38 40 46 47 53 60 61 57 56 53 51 50 50 52 52 52 49
16 16 17 19 18 23 17 21 20 20 22 23 19 23 19 14 18 31 34 27 28 34 40 49 48 47 44 47 57 58 57 58 59 59 62 62 59 58 61 59 61 62 57 57
15 17 16 17 18 20 23 20 21 21 21 24 23 29 32 33 29 26 25 31 33 35 35 37 44 46 45 49 56 67 69 67 64 58 54 59 74 74 72 81 91 81 76 80
17 14 15 14 16 16 17 20 21 23 26 27 25 25 44 53 45 46 41 46 58 71 52 50 56 50 54 61 75 73 70 78 73 73 73 72 74 80 86 96 97 97 89 83
17 16 16 12 13 15 16 17 21 22 24 28 31 34 44 46 54 59 68 80 90 84 49 46 43 43 45 42 47 59 60 63 68 75 77 77 74 78 85 97 96 96 90 88
20 16 13 18 14 16 17 18 22 27 32 30 37 38 53 67 88 99 98 92 90 70 60 53 46 39 40 46 50 53 58 59 64 63 62 67 68 67 72 80 87 97 96 84
22 19 15 16 18 22 23 26 28 31 26 25 38 45 54 55 58 70 80 93 81 80 67 54 50 53 56 57 60 60 73 58 72 86 82 79 76 75 72 74 78 77 74 55
26 24 16 21 24 23 28 32 33 34 37 38 42 47 63 61 78 94 82 92 93 79 70 58 64 69 67 63 65 74 74 65 75 81 85 84 84 91 89 82 73 68 48 44
26 23 28 32 31 36 40 38 41 45 40 37 36 35 52 81 77 91 94 88 75 72 69 82 88 78 68 76 80 67 69 74 76 77 79 84 88 91 85 75 66 48 48 65
25 25 37 42 44 41 41 40 52 55 60 53 53 43 71 92 81 76 77 85 64 84 93 90 83 70 71 66 66 72 70 74 70 68 74 89 96 93 78 65 51 48 75 90
38 40 44 46 48 49 52 57 64 64 62 61 77 41 75 84 88 87 86 81 83 89 93 76 78 77 69 71 64 69 74 80 70 70 79 86 91 76 61 58 50 71 93 100
43 36 35 52 54 56 54 60 65 71 67 66 82 59 82 92 87 87 82 80 75 72 72 80 74 70 65 62 67 68 77 84 79 81 82 81 70 66 68 48 45 77 85 100
64 62 53 54 52 47 47 51 64 63 55 56 65 58 77 82 78 76 70 66 71 66 70 70 71 69 65 67 66 74 83 95 97 86 86 75 71 70 42 46 72 88 98 100
39 40 40 42 42 46 52 57 60 58 59 56 55 72 80 78 69 64 71 68 69 75 72 66 63 60 56 54 60 78 94 100 100 94 80 76 62 38 34 52 83 84 84 91
36 36 36 38 50 53 55 60 56 57 66 73 69 70 81 71 69 68 78 75 76 77 77 72 66 57 50 58 71 83 88 87 90 84 77 49 37 41 69 84 82 89 100 97
60 60 57 53 56 54 55 60 58 59 69 66 64 56 56 71 68 68 79 79 83 82 80 79 67 54 51 48 54 74 83 88 82 73 41 37 55 90 100 100 100 100 100 100
54 60 60 56 55 50 62 67 68 59 65 67 69 64 73 68 62 94 100 100 98 90 83 75 66 59 51 65 76 90 93 79 62 34 32 47 90 100 100 100 100 100 100 60
68 65 60 56 46 42 54 56 49 44 42 52 54 61 71 100 77 74 75 85 77 83 74 61 53 58 65 88 99 94 81 54 28 25 56 92 100 100 100 100 100 98 56 28
64 66 64 58 48 37 63 49 55 54 42 64 68 72 64 68 82 53 63 72 72 79 74 70 67 78 88 97 93 84 58 21 20 54 83 95 98 100 100 100 96 62 30 26
66 64 67 70 58 49 70 69 63 63 56 59 59 56 55 58 71 76 60 60 76 93 86 73 93 99 92 86 78 60 20 16 54 90 100 100 100 100 100 95 68 35 27 21
76 81 79 67 61 65 79 78 93 83 71 78 66 61 61 69 74 75 75 79 70 56 62 100 97 82 70 68 58 18 16 62 95 100 100 100 100 100 96 72 39 30 21 15
71 98 90 94 69 79 96 99 90 100 90 77 68 62 52 54 75 79 81 75 53 45 60 91 86 63 50 44 16 27 88 100 100 100 100 100 100 99 73 42 32 21 15 13
70 99 93 85 75 75 79 81 94 82 75 70 60 73 100 78 61 81 100 70 96 100 97 100 82 43 24 10 34 100 100 100 100 100 100 100 100 79 47 32 21 15 13 13
78 93 98 68 85 76 72 83 70 69 70 61 72 68 56 44 37 63 42 47 100 100 80 94 54 12 7 43 99 100 100 100 100 100 100 100 82 46 30 21 15 14 13 13
83 99 99 81 80 82 65 64 76 72 65 50 26 20 27 24 25 32 46 63 84 94 99 77 9 11 57 95 100 98 99 100 99 97 96 79 43 28 20 15 14 14 16 16

GFSCGP_500_rhum_012.txt.gz
RH
17 16 18 18 18 16 17 17 16 14 11 18 14 13 13 18 14 16 13 12 12 15 17 21 24 28 34 38 40 44 49 52 54 55 57 58 58 58 56 51 49 54 60 64
16 16 17 17 21 18 18 19 18 20 18 14 19 17 18 19 22 24 25 25 27 32 39 37 39 50 51 53 62 70 77 80 82 76 72 67 63 64 62 62 60 58 59 65
16 16 17 16 19 19 18 20 21 18 21 16 17 19 22 21 24 27 31 33 38 47 54 44 40 48 59 60 62 69 73 82 86 69 62 61 64 64 66 65 65 63 60 65
14 14 13 13 13 16 19 19 19 20 20 22 21 28 30 28 28 31 34 38 41 52 49 46 41 46 48 48 55 60 64 67 62 58 53 54 55 59 67 66 67 69 69 68
17 15 15 14 9 11 14 16 16 19 21 27 31 32 32 29 36 44 41 48 51 44 45 48 46 43 48 56 60 64 64 62 55 50 51 51 52 54 56 69 71 72 68 68
22 21 16 20 12 9 10 16 18 21 26 33 35 35 38 36 40 42 47 54 49 47 48 54 61 62 63 70 75 74 67 60 57 56 59 61 69 69 70 77 80 82 77 77
29 23 22 23 18 11 13 16 19 23 26 32 35 41 38 40 48 63 69 67 64 59 48 60 71 70 76 78 75 74 69 64 65 70 73 85 85 79 76 77 77 78 68 64
28 30 24 22 14 18 23 22 22 25 24 31 44 51 40 51 63 65 59 58 59 52 53 68 76 79 90 90 75 69 72 74 79 78 75 76 79 81 87 84 80 78 80 76
33 32 28 20 17 23 25 26 31 32 33 31 37 47 56 64 76 65 72 72 78 70 78 83 90 92 87 74 74 70 71 70 70 65 60 61 73 82 86 87 85 88 85 71
40 37 32 25 28 35 42 39 35 34 38 36 32 36 50 70 80 92 97 73 65 80 91 88 83 80 79 71 67 69 71 64 59 54 54 52 54 68 81 80 78 81 78 76
36 40 38 38 41 40 40 39 34 37 51 45 46 35 64 70 72 69 68 77 85 90 95 85 72 75 72 68 68 64 59 53 49 46 43 42 46 51 63 82 89 82 70 49
41 39 43 44 40 42 53 53 52 48 44 45 55 40 66 63 73 68 81 82 83 74 72 64 70 80 77 70 68 65 61 56 49 44 40 35 34 47 76 81 72 60 38 30
50 47 50 56 48 46 46 50 47 46 46 53 54 56 70 74 65 63 67 66 64 71 70 64 75 78 76 78 72 66 63 54 46 41 42 46 64 76 73 65 48 31 30 43
42 41 38 38 38 39 48 59 61 55 55 52 56 48 65 53 55 51 48 46 53 59 53 56 62 66 71 82 80 72 60 58 56 54 62 72 68 68 65 44 25 21 48 84
32 36 41 48 53 54 58 59 58 58 59 54 54 52 47 47 44 42 42 44 48 47 59 79 71 86 99 86 80 63 62 50 49 66 64 66 64 63 40 15 14 47 90 100
46 50 52 56 56 58 65 62 59 57 54 48 43 38 36 37 40 42 52 51 53 68 87 100 96 86 75 77 70 57 52 40 48 58 63 63 64 31 15 26 69 100 96 91
57 56 56 58 60 58 61 54 49 44 49 39 34 34 43 43 45 56 55 55 56 67 94 85 58 49 56 54 56 59 35 33 67 66 49 47 36 24 68 100 100 100 100 100
50 50 49 52 55 51 68 52 51 45 52 51 50 56 54 50 52 61 64 58 58 50 50 48 46 43 37 38 33 35 34 66 60 54 42 33 20 57 98 100 100 100 100 100
63 63 61 58 47 43 69 54 51 45 51 56 61 59 59 69 66 69 63 54 53 51 50 44 30 48 97 97 96 67 87 84 44 39 23 23 76 100 100 100 100 100 100 96
68 70 68 64 59 48 77 65 61 55 52 60 62 58 65 67 57 49 53 55 55 59 46 35 32 41 87 100 83 98 100 98 60 12 28 80 95 99 93 98 100 100 90 72
83 75 77 78 70 64 82 73 66 58 50 54 67 70 70 67 71 70 66 47 38 55 92 79 29 41 96 68 56 91 100 93 27 38 95 100 99 100 100 100 100 94 82 44
81 79 85 69 66 74 75 88 94 84 69 73 69 74 73 74 76 60 40 37 14 14 15 23 30 41 50 80 98 99 88 28 52 100 100 100 100 100 100 100 97 88 53 30
70 89 81 90 68 86 95 99 92 93 80 73 81 79 72 65 35 27 20 10 9 23 34 45 63 88 98 97 60 19 19 71 100 100 100 100 100 100 100 98 87 49 29 20
80 100 86 93 90 95 96 100 100 91 84 87 75 52 38 20 13 7 11 16 21 27 50 100 100 100 100 76 9 39 90 99 100 100 100 100 100 100 99 70 37 26 20 18
82 89 96 89 96 81 97 92 77 76 86 71 52 30 17 12 7 7 11 17 22 52 89 94 96 99 78 15 46 92 98 100 100 100 100 100 100 82 42 29 22 18 15 14
95 89 80 70 89 98 61 58 61 66 44 36 28 19 12 8 9 14 25 36 66 99 99 83 59 26 18 60 100 100 100 100 100 100 100 82 43 29 24 17 15 15 17 18

GFSCGP_500_rhum_015.txt.gz
RH
16 17 18 19 17 16 20 19 18 14 13 18 16 15 16 16 16 17 20 21 23 28 33 28 26 30 34 53 62 64 62 60 64 68 70 66 60 58 60 57 53 57 62 63
16 16 16 18 18 17 18 18 17 17 14 12 16 18 18 17 17 17 20 22 28 33 33 31 36 40 44 60 59 58 59 66 68 65 61 62 62 62 58 56 51 47 46 51
13 14 14 14 13 14 14 17 18 19 20 16 20 22 22 20 20 22 24 28 32 37 40 43 47 52 65 67 61 60 65 67 62 56 55 57 62 61 58 58 53 50 48 52
13 13 13 10 10 11 14 16 16 16 17 19 23 28 28 28 28 28 32 38 42 39 37 40 48 54 55 54 59 66 75 70 67 63 58 51 56 54 50 47 50 56 60 59
21 17 16 16 14 12 14 11 15 17 20 22 25 30 31 30 31 33 40 45 40 36 38 41 39 41 52 58 73 84 82 72 64 66 65 66 62 60 55 57 57 54 53 53
31 25 22 20 17 10 12 15 21 21 22 24 28 28 27 29 33 38 50 53 40 39 47 50 58 67 71 68 67 65 67 67 71 71 71 64 62 57 53 50 48 49 51 54
23 29 30 28 23 18 12 13 18 22 26 28 22 23 23 24 30 48 51 44 42 46 49 49 56 62 60 65 70 71 71 70 65 60 58 56 52 51 48 47 46 46 47 48
27 27 29 30 27 22 16 18 25 26 26 24 27 30 32 33 50 54 45 46 49 46 45 54 57 59 69 72 68 70 67 59 56 56 56 54 55 54 52 50 48 47 44 40
34 34 32 30 27 22 17 21 26 28 27 25 33 49 41 43 50 50 47 44 46 49 55 61 64 69 66 70 70 58 57 60 53 50 52 56 59 61 58 52 47 41 40 43
36 34 30 27 23 21 21 28 29 31 34 30 32 44 47 50 43 41 42 44 52 62 67 66 69 73 80 70 50 49 57 61 52 53 68 74 70 66 54 45 44 44 47 50
42 41 35 36 39 40 36 34 35 36 38 39 35 31 42 43 44 48 61 65 63 64 63 63 66 71 72 56 49 46 49 57 69 68 67 80 70 47 44 47 53 59 56 51
48 49 48 46 47 52 48 41 39 37 35 36 40 37 62 53 50 54 52 54 55 56 57 57 50 48 46 47 49 47 56 65 69 72 76 78 74 53 34 34 36 40 30 37
46 43 42 38 36 37 38 37 35 34 41 47 48 56 54 52 53 48 46 49 42 33 29 32 35 38 41 44 65 83 100 100 99 75 65 52 32 48 25 30 31 30 37 33
32 34 32 33 35 43 54 57 58 52 48 47 51 45 52 44 36 32 31 33 32 33 35 40 47 49 51 53 62 90 96 79 54 52 54 64 100 96 73 94 81 16 26 26
38 35 38 43 52 55 56 57 56 52 52 47 50 45 41 37 35 36 42 41 42 45 51 54 51 48 46 48 53 50 35 22 16 26 78 100 100 75 67 88 60 12 28 68
63 51 46 43 47 46 48 56 58 57 63 55 48 46 47 46 47 51 53 55 57 54 51 54 53 52 56 48 24 21 28 24 22 26 61 100 68 38 63 53 14 67 100 100
73 77 69 59 55 58 62 63 60 59 66 57 52 52 52 58 65 69 65 62 62 61 58 60 59 52 14 7 9 28 73 92 45 20 33 40 30 45 48 26 98 100 100 100
75 73 68 59 63 61 74 64 58 55 61 63 58 62 68 67 66 66 58 58 61 57 55 39 17 9 10 30 40 38 36 41 33 48 80 62 20 10 47 99 100 100 100 100
79 74 67 64 65 55 68 65 56 49 46 65 65 67 64 69 64 66 65 66 56 41 27 14 9 22 52 80 24 32 57 75 86 58 87 80 12 60 99 100 100 100 98 100
94 90 84 76 70 50 77 69 60 53 44 53 56 60 74 77 62 61 59 57 38 24 15 9 7 10 14 21 51 65 50 28 32 44 32 30 89 100 100 100 100 100 100 100
93 90 85 84 72 59 88 71 68 65 67 56 68 81 80 72 73 67 56 38 25 15 11 10 11 11 29 41 32 36 36 15 15 21 53 100 100 99 100 100 100 100 100 98
97 92 93 80 78 83 85 78 78 74 64 70 83 75 76 76 65 56 31 18 15 13 12 18 16 20 42 63 44 74 29 14 23 63 98 96 98 98 100 100 100 97 80 58
86 100 84 83 84 100 100 87 80 69 63 71 80 83 78 66 67 50 21 17 23 22 16 18 26 32 84 100 81 25 16 24 69 90 91 99 98 98 100 94 66 38 31 29
83 95 71 97 98 100 100 98 87 78 78 88 95 100 92 82 60 33 25 28 26 18 28 58 72 76 83 52 20 19 37 83 95 100 100 100 100 90 47 30 31 24 17 15
87 89 96 81 90 85 84 89 67 72 84 100 94 72 54 36 31 39 21 18 28 49 93 100 99 74 28 18 22 60 91 99 100 100 100 85 44 32 27 19 15 14 14 15
99 98 84 71 73 63 56 59 50 50 52 53 40 28 21 24 24 24 35 68 73 100 100 98 64 20 20 27 80 93 90 97 100 86 45 33 24 18 15 15 18 22 24 29

GFSCGP_500_rhum_021.txt.gz
RH
12 14 14 14 17 19 18 16 14 13 14 14 13 13 13 15 18 21 23 27 30 29 28 30 34 36 35 34 36 38 39 39 36 40 48 56 62 66 70 64 60 53 49 43
11 13 13 14 17 16 15 16 16 16 16 18 16 16 17 19 21 25 28 29 29 28 31 34 36 36 36 41 44 50 52 51 53 63 68 67 61 59 58 50 47 46 45 44
10 11 12 13 13 12 11 11 12 13 13 14 14 14 18 20 19 19 26 28 29 33 37 35 34 34 43 51 60 66 71 78 77 68 58 55 50 42 38 43 48 48 49 54
18 15 13 12 11 11 11 11 9 8 8 10 12 15 16 18 19 24 27 27 28 30 35 35 37 50 56 58 61 57 54 55 58 55 51 50 46 46 55 53 43 42 56 57
23 24 22 20 18 16 12 12 11 10 9 9 15 16 14 20 24 28 24 25 29 30 34 41 45 45 47 47 48 51 56 55 48 46 44 41 41 48 52 55 52 48 52 58
21 19 20 21 22 21 22 16 15 15 13 11 16 17 17 20 22 25 24 26 35 39 43 42 40 43 47 48 48 50 46 45 42 35 34 34 31 33 41 52 61 67 77 71
16 14 13 15 20 20 21 22 21 19 17 15 16 19 22 24 26 22 23 30 34 38 40 41 47 49 50 50 46 43 43 37 34 34 35 36 37 38 38 41 48 68 61 48
17 24 24 26 24 24 24 26 27 24 19 17 18 22 22 24 25 27 29 33 38 42 49 52 49 44 39 36 33 36 30 32 34 35 37 39 44 49 58 64 65 63 59 53
28 29 31 29 30 30 33 30 29 28 25 26 26 22 26 34 32 30 36 43 47 50 47 45 39 34 32 30 29 34 39 42 44 48 52 56 59 65 68 65 64 62 58 29
25 26 27 30 30 29 31 28 28 30 27 27 29 31 36 40 44 40 42 44 45 44 37 34 34 33 35 39 45 51 52 54 56 56 55 57 63 64 62 63 62 42 24 26
32 37 40 39 39 37 36 36 35 33 31 30 26 30 46 46 47 44 42 41 39 36 38 43 46 48 50 53 55 52 51 48 49 53 52 44 44 51 37 13 10 9 10 11
34 32 32 30 30 29 29 29 30 31 29 30 37 34 47 49 50 47 48 49 52 52 53 53 52 52 51 50 48 46 50 56 58 51 40 31 24 23 17 10 11 15 16 14
39 41 42 42 40 40 45 47 43 43 42 45 42 51 50 58 51 51 54 56 53 51 50 49 47 45 43 48 53 51 50 46 41 27 19 21 20 16 28 54 36 18 10 9
32 31 33 46 57 52 51 56 61 57 56 54 54 50 72 63 56 54 54 50 51 50 46 42 39 37 35 38 45 51 53 51 45 30 20 15 17 54 76 65 14 10 10 12
30 42 46 51 53 54 53 65 74 73 72 60 63 63 66 60 60 60 56 55 51 49 40 35 33 35 37 41 41 38 34 29 25 28 33 36 40 31 28 14 12 12 15 26
45 44 45 45 56 59 56 72 71 71 65 61 68 72 69 65 62 59 54 47 39 35 34 34 36 38 49 53 44 33 26 25 30 33 58 69 48 48 20 12 14 18 51 82
39 53 53 52 49 52 55 69 79 81 84 83 80 74 67 67 59 54 49 46 43 40 40 42 47 62 61 62 48 30 26 28 36 52 53 38 41 41 14 18 35 82 96 93
38 54 64 60 58 52 61 65 76 78 90 88 79 70 64 57 53 53 47 44 46 47 48 55 59 72 98 88 42 24 20 27 58 48 36 22 15 14 23 59 84 89 91 93
50 60 69 64 56 53 81 80 79 78 76 77 66 60 59 60 50 53 55 58 58 52 61 77 72 92 98 94 50 24 36 52 76 68 39 16 16 35 68 78 82 80 75 63
52 61 67 70 67 55 85 84 83 71 61 59 52 56 57 61 51 56 56 61 62 68 93 100 100 100 100 90 52 38 60 84 80 46 20 18 37 68 71 70 61 38 28 24
59 68 76 80 73 72 86 82 69 57 51 44 48 59 64 69 72 70 66 68 76 87 78 86 91 100 98 68 38 50 78 73 48 18 21 39 66 72 70 49 28 23 21 19
72 76 76 73 83 70 72 61 56 52 51 64 73 78 82 73 76 80 84 100 100 100 45 84 100 100 48 37 78 40 38 40 23 21 36 71 76 76 48 31 25 22 19 17
82 81 79 82 74 79 73 61 67 67 78 81 89 84 76 93 94 79 66 76 96 51 84 100 72 33 50 100 98 54 44 41 24 28 75 86 81 56 38 29 25 22 18 19
90 82 75 74 91 83 78 85 90 99 98 99 91 93 98 96 75 56 43 53 62 51 32 31 45 40 84 100 83 50 51 26 28 66 94 87 70 48 37 30 26 20 20 26
87 82 77 69 81 77 92 97 100 98 94 91 94 91 90 84 59 58 62 50 34 35 43 69 63 40 55 59 51 52 31 30 41 96 96 79 62 49 37 31 27 20 24 29
70 78 76 72 82 78 74 77 82 76 82 92 94 98 85 70 72 69 55 44 37 34 59 52 40 44 49 52 49 34 33 32 80 100 88 70 60 48 38 34 26 24 26 32

GFSCGP_500_rhum_024.txt.gz
RH
15 16 15 15 16 17 17 17 15 15 16 13 12 14 15 16 16 20 24 26 28 33 33 35 40 40 40 38 38 37 42 47 54 55 52 50 54 60 56 57 54 46 39 37
13 14 14 13 13 14 14 14 16 16 17 17 17 17 17 19 19 20 21 27 31 32 35 36 38 41 41 42 44 46 50 52 57 59 58 62 66 63 62 50 41 34 32 32
11 13 14 13 13 11 11 10 10 10 10 13 14 14 16 17 18 20 24 27 30 33 35 34 39 44 45 46 48 50 57 59 65 67 60 55 52 47 33 32 33 35 32 40
16 14 12 11 11 10 9 10 10 11 12 10 10 13 14 16 18 21 25 25 25 27 30 37 40 46 49 50 52 60 60 59 56 53 48 42 34 30 33 35 37 41 40 45
20 22 24 22 20 18 18 17 14 13 13 13 12 18 11 16 22 24 26 25 25 24 30 37 40 42 43 46 50 51 50 47 39 31 31 32 37 42 38 42 44 62 63 59
24 22 20 18 18 20 20 20 20 20 20 21 16 18 11 21 26 27 27 26 25 31 37 41 42 42 46 50 49 46 37 29 30 33 37 37 43 49 48 46 49 54 60 62
20 17 13 12 12 13 18 22 22 22 24 27 25 21 16 25 29 29 26 24 32 36 42 43 48 52 53 52 48 38 35 36 36 38 43 48 48 49 54 59 61 58 53 48
14 24 24 26 25 26 26 27 27 27 27 27 28 25 24 29 31 30 29 32 38 47 51 53 55 54 50 42 39 42 43 44 46 50 55 62 69 66 60 53 49 42 34 28
22 24 25 25 24 27 33 29 33 32 29 28 30 28 30 37 35 34 36 45 49 52 53 52 49 44 44 47 44 42 46 53 59 66 66 62 55 49 48 47 42 32 23 21
22 23 28 34 37 39 40 37 36 37 34 33 33 32 36 40 45 44 46 52 52 49 51 49 49 49 45 42 43 48 53 56 57 52 45 44 47 42 35 33 32 27 18 16
34 32 28 25 28 28 28 29 29 30 31 30 26 30 44 43 43 43 45 54 58 57 55 51 48 45 43 46 49 45 43 44 45 46 43 40 35 34 32 28 22 18 22 23
29 32 33 34 36 40 47 49 46 46 43 45 46 37 44 44 47 49 53 59 58 53 48 47 47 45 42 41 40 40 41 44 45 45 52 46 41 36 26 24 28 37 32 30
33 36 40 40 40 42 46 46 51 53 51 54 50 56 54 58 54 60 67 62 60 60 57 54 49 43 40 42 42 45 48 50 52 57 76 75 65 46 27 32 35 32 31 19
32 36 42 48 50 49 47 52 55 53 56 67 65 61 69 64 67 73 68 69 68 62 53 48 46 44 43 45 50 54 51 47 54 84 97 86 75 35 29 24 19 26 25 14
16 28 35 41 47 52 50 55 52 56 67 62 72 70 77 69 75 75 73 73 61 52 47 44 45 48 49 50 49 52 69 84 85 100 100 95 72 40 30 17 17 17 18 35
15 23 28 35 44 50 48 55 56 59 68 75 82 84 86 87 84 76 66 54 47 46 49 48 46 45 46 48 59 64 76 100 85 78 87 71 46 39 26 16 14 19 43 69
21 25 38 42 44 44 51 49 50 63 78 81 92 93 83 80 70 63 52 49 51 50 53 56 50 54 58 66 80 97 62 64 75 97 70 49 42 59 26 16 22 52 68 74
32 48 46 45 43 45 54 68 66 70 80 84 82 78 72 59 52 57 47 53 57 59 64 58 58 64 81 100 100 100 75 98 98 58 38 49 77 50 18 23 53 64 68 56
53 45 44 42 43 44 63 72 68 70 83 80 73 68 62 56 51 64 58 59 62 63 59 68 74 81 100 100 98 78 74 81 47 45 43 70 49 24 24 50 68 70 56 36
40 42 41 49 57 57 75 74 74 66 58 55 61 60 57 60 54 55 60 64 65 66 76 83 86 62 54 66 64 58 53 53 66 37 47 50 32 23 39 72 74 66 44 33
36 38 49 57 65 64 73 68 60 55 54 56 55 59 61 58 59 58 58 64 76 99 100 88 65 72 76 65 56 55 82 70 43 49 52 44 26 30 77 84 74 56 41 31
31 50 61 61 73 70 66 60 62 61 62 64 66 61 63 63 63 63 62 77 98 100 77 72 82 67 56 53 41 51 46 46 50 53 45 30 31 59 94 83 66 50 37 31
53 63 69 77 83 82 77 71 68 69 65 66 69 65 70 65 62 64 99 100 97 80 87 80 69 63 60 39 38 42 44 46 49 38 33 34 38 93 91 74 58 45 35 31
70 69 74 74 81 70 66 69 69 73 80 74 65 58 65 74 90 100 94 88 87 84 80 68 52 39 32 37 40 40 40 37 33 36 39 35 74 98 76 65 55 43 35 30
91 76 80 76 76 69 70 72 69 68 65 60 67 81 83 85 90 89 89 83 78 69 53 36 27 26 31 31 31 30 27 31 36 39 38 44 100 83 67 62 54 44 36 26
94 90 83 77 73 72 67 63 60 58 61 71 80 80 92 92 88 83 75 66 52 37 26 24 27 26 25 23 23 26 29 30 34 38 39 94 97 74 59 62 55 46 40 27

GFSCGP_500_rhum_027.txt.gz
RH
16 21 78 19 18 19 19 18 18 18 17 16 13 11 12 13 13 14 16 20 24 27 30 30 34 34 36 41 43 48 45 49 52 55 60 62 57 53 57 62 59 61 52 43
16 17 17 17 16 16 16 16 15 16 16 17 17 16 17 16 17 17 19 20 23 27 31 34 35 38 41 47 51 53 53 58 65 65 65 68 65 65 65 54 49 39 31 35
13 13 15 15 16 16 14 13 12 12 11 12 12 12 12 14 15 17 18 22 25 26 27 29 33 39 45 52 57 63 66 67 66 69 67 68 67 58 48 36 36 38 45 49
16 13 12 12 12 12 12 14 13 14 14 52 13 80 40 15 12 16 20 25 26 26 26 30 35 41 48 55 61 58 54 56 64 66 57 49 43 38 39 38 44 50 56 59
19 20 21 22 21 22 20 20 20 20 20 20 20 18 87 33 20 18 25 30 32 34 36 36 37 42 47 49 48 54 58 60 53 44 41 41 41 43 47 54 52 57 59 55
20 25 24 22 19 17 16 18 20 21 22 24 41 26 94 75 26 24 29 35 38 37 33 35 40 42 48 56 58 58 56 47 42 48 48 50 54 57 54 53 57 52 51 50
20 20 17 14 15 14 14 16 24 25 26 62 45 31 60 28 29 31 34 35 32 32 36 40 47 55 54 56 55 51 45 49 45 43 47 51 49 49 46 46 52 52 41 37
17 16 24 25 25 24 24 27 27 31 36 64 29 35 51 35 40 38 34 35 37 42 48 52 56 56 54 53 50 54 50 47 45 44 45 46 43 44 52 51 47 45 50 47
26 23 22 22 25 31 34 36 37 37 33 32 38 37 38 35 36 38 38 39 44 48 54 54 57 56 54 49 47 44 43 41 41 44 44 44 47 48 51 54 60 63 67 76
20 25 31 31 28 29 30 30 31 30 30 30 80 80 100 48 38 37 40 43 44 50 54 60 59 56 54 54 52 48 47 48 47 46 45 50 59 61 52 49 54 74 89 79
27 26 30 33 35 36 36 36 41 44 47 47 42 48 49 50 50 49 48 56 58 60 61 63 64 64 61 52 43 44 45 49 49 46 49 52 51 50 50 57 66 70 69 64
29 33 33 36 39 40 41 42 42 43 46 43 49 43 49 58 60 62 62 60 62 68 70 63 57 54 48 44 48 54 52 50 49 50 53 53 52 66 73 66 71 87 63 38
27 24 22 29 30 30 35 42 45 47 46 48 50 55 65 71 62 59 59 57 68 68 64 63 57 52 50 52 55 54 55 52 52 56 60 74 96 97 82 85 76 54 34 24
15 13 18 28 32 36 38 43 41 42 49 51 55 70 69 96 92 79 86 85 82 74 66 59 55 55 56 55 49 48 50 55 58 64 80 80 78 76 69 65 54 34 19 19
12 21 27 29 37 42 40 40 42 51 59 55 57 65 89 91 87 97 88 81 73 65 62 60 58 55 48 47 48 51 58 58 64 74 80 72 71 67 59 49 33 24 25 20
14 21 30 38 44 34 34 39 48 52 61 57 66 78 88 92 94 85 81 70 62 58 58 54 46 41 40 39 45 59 56 84 100 100 78 72 67 46 34 30 29 26 22 23
14 17 28 36 30 29 32 38 50 57 63 64 67 81 85 85 73 68 56 57 58 51 40 32 30 34 45 58 68 92 100 92 81 79 66 60 38 34 35 39 35 27 26 50
16 17 25 30 27 27 39 51 56 58 65 64 73 74 74 68 56 61 54 54 50 40 36 41 46 63 83 94 100 100 92 86 71 60 58 40 38 41 44 41 28 29 43 80
17 19 26 28 23 32 43 42 57 62 74 66 65 64 64 59 57 61 52 49 45 44 49 64 69 77 100 100 88 84 81 68 55 56 40 38 43 43 41 29 29 36 79 82
18 20 26 23 27 38 54 56 57 60 58 61 60 57 56 57 55 56 47 39 42 50 59 59 62 90 89 82 79 70 53 45 56 38 40 40 38 35 30 33 35 66 88 80
20 22 21 25 32 47 55 60 57 58 62 57 57 60 57 50 46 42 43 44 42 46 54 66 86 77 76 70 53 36 25 33 50 42 32 32 30 32 35 36 42 97 86 68
21 21 24 28 41 59 63 58 57 62 64 63 61 56 51 50 49 47 46 48 58 60 70 76 75 68 55 40 28 23 22 56 34 28 28 30 34 38 40 39 86 96 75 56
22 28 30 39 57 74 77 73 67 72 65 63 61 59 57 54 50 50 52 62 61 73 76 68 57 43 23 15 19 23 22 25 23 23 28 32 36 40 42 68 100 84 63 55
30 30 30 38 81 80 74 77 70 72 69 63 61 55 55 55 54 56 60 69 73 65 57 45 24 11 11 14 17 19 19 20 24 25 28 38 47 51 83 100 90 69 61 56
33 36 53 51 74 78 81 82 78 71 64 61 59 60 56 55 54 55 64 64 56 46 28 12 10 12 13 16 16 19 20 19 23 27 34 48 58 86 100 94 80 67 64 56
62 86 85 79 87 86 84 82 77 69 61 59 62 63 63 60 56 58 55 50 34 12 9 10 11 14 15 16 18 16 18 26 34 46 39 56 84 100 99 88 61 72 68 61

GFSCGP_500_rhum_030.txt.gz
RH
18 24 98 92 29 42 58 34 40 43 12 16 15 20 10 17 14 13 13 17 19 18 22 23 24 28 23 27 29 48 48 64 60 59 65 60 58 51 52 56 47 46 30 33
22 46 46 64 24 22 37 26 34 17 17 18 18 25 13 19 17 15 13 14 19 22 24 26 28 29 28 36 44 57 65 68 71 67 64 63 58 61 63 58 38 37 38 38
31 28 18 19 20 22 22 20 16 18 13 15 17 30 11 12 15 16 10 10 16 20 26 30 34 38 42 51 60 66 58 63 75 62 50 58 64 58 47 46 46 44 42 41
14 13 13 14 14 14 14 12 12 13 15 24 34 41 78 27 29 24 20 16 22 24 27 32 36 39 47 55 56 53 49 50 56 64 64 58 49 50 52 49 45 45 51 52
15 18 18 15 15 18 16 20 20 21 21 24 29 30 90 54 34 28 37 37 29 32 35 39 43 46 50 49 47 50 56 56 52 56 52 51 50 48 49 50 46 43 39 39
13 18 23 24 22 21 19 16 15 14 16 19 28 57 99 98 88 37 40 35 32 38 39 42 46 40 39 45 53 60 59 56 51 48 49 47 46 44 42 41 40 41 45 48
15 16 18 17 16 20 22 22 24 44 78 88 99 88 96 73 100 77 46 40 40 41 44 44 41 42 44 48 52 59 59 55 51 50 46 41 42 43 44 46 45 47 51 54
17 14 19 25 24 24 25 30 29 31 40 46 44 59 62 58 90 99 63 48 44 45 44 43 44 45 47 52 60 60 57 59 56 51 45 45 46 50 51 47 48 55 63 63
17 23 20 23 30 30 30 30 31 30 31 31 34 57 93 95 98 79 66 61 41 41 41 45 49 54 61 66 64 61 61 58 55 53 55 56 56 54 54 62 68 65 61 70
21 24 30 28 31 36 35 36 37 36 36 37 59 89 95 87 64 69 67 59 49 50 56 58 59 69 70 68 66 63 57 50 44 44 46 46 48 54 61 60 62 72 82 70
28 28 33 35 36 36 32 32 33 36 43 42 43 53 63 66 78 76 78 69 61 63 66 65 72 78 75 68 52 39 39 39 37 34 34 38 44 55 57 65 74 71 70 70
28 32 24 23 30 31 33 35 35 33 35 41 46 40 53 57 70 81 86 81 73 81 82 84 78 67 47 40 42 39 31 27 27 28 36 45 45 57 80 89 94 78 63 55
22 18 14 26 28 30 30 28 30 29 28 39 40 51 68 87 90 98 75 67 88 85 90 69 57 46 50 50 36 30 30 26 30 41 48 55 71 100 98 87 74 58 49 28
12 12 19 26 32 33 31 28 29 33 35 36 47 53 65 88 84 82 82 99 100 100 81 66 58 59 47 37 33 31 28 36 43 52 84 99 96 92 82 66 49 48 28 26
12 13 15 20 26 28 28 26 29 35 44 53 56 58 74 69 95 80 78 90 81 64 61 65 61 43 33 34 34 37 40 44 62 89 99 93 71 70 52 33 34 28 25 25
13 14 16 17 20 24 25 24 28 31 40 49 57 67 75 80 60 64 61 64 57 58 62 54 42 36 38 38 38 42 48 57 86 73 69 60 44 27 23 28 30 24 25 27
14 16 18 18 19 20 23 23 26 34 45 54 58 68 58 50 54 61 54 63 61 53 47 43 40 36 38 37 37 45 51 54 60 59 45 29 15 25 44 32 26 25 26 27
17 18 18 19 19 21 21 23 26 38 47 47 55 58 58 65 66 58 55 52 44 44 43 40 39 39 37 42 53 52 41 41 39 24 12 11 10 19 22 24 24 28 31 36
18 19 19 19 20 22 21 21 29 34 54 52 65 61 61 59 58 58 51 50 46 42 40 39 38 41 50 51 41 44 45 28 11 10 12 18 20 15 21 24 28 35 38 40
18 18 19 20 21 22 24 25 26 33 50 51 56 57 57 59 57 56 50 47 46 48 47 48 49 42 40 40 45 34 15 11 13 16 28 28 32 63 40 38 40 47 51 66
18 18 20 21 22 23 24 24 24 37 50 63 68 66 65 59 55 52 48 49 48 46 43 42 44 44 42 43 22 9 9 10 12 14 63 46 25 59 99 50 49 61 94 98
17 20 22 23 23 25 26 25 26 48 72 73 74 70 67 61 54 54 53 49 45 44 45 47 44 42 36 15 8 8 8 11 11 16 18 81 67 98 88 38 60 98 100 92
20 23 23 24 26 30 31 33 63 79 84 81 82 71 58 56 55 52 50 45 47 49 50 46 42 28 10 9 8 9 10 14 16 14 22 43 55 75 62 59 90 100 96 77
25 26 26 27 31 40 45 62 76 86 84 75 62 60 60 56 52 46 48 53 52 53 48 40 22 9 9 8 8 12 15 15 14 17 25 31 50 55 65 93 100 94 72 78
28 29 28 29 41 63 60 76 81 79 74 69 72 59 52 49 49 56 58 60 58 51 39 16 9 9 8 8 11 16 15 15 20 21 24 30 40 51 86 97 95 72 66 82
32 29 30 38 50 69 72 73 72 71 69 66 55 51 55 60 64 68 67 62 53 40 15 9 10 8 9 11 15 16 16 23 27 30 35 42 61 86 88 95 83 56 85 75

GFSCGP_500_rhum_033.txt.gz
RH
30 18 19 20 28 90 77 76 64 11 12 16 16 17 11 10 15 18 19 19 22 24 25 24 23 28 41 64 78 58 41 34 39 39 42 59 52 53 53 53 50 42 40 41
25 22 28 49 42 54 77 63 31 12 15 18 18 20 18 16 19 16 19 24 25 27 29 30 40 47 58 74 55 42 56 63 49 49 55 55 61 64 64 60 48 49 47 42
17 34 29 20 19 21 20 30 29 20 14 18 19 17 20 15 19 44 40 42 34 38 35 38 42 43 43 44 49 58 68 60 47 50 58 64 63 63 59 58 52 45 41 38
14 15 15 17 17 18 17 17 18 15 15 17 18 27 24 20 22 17 19 28 39 50 48 39 46 56 60 62 59 56 46 47 57 63 63 60 58 57 56 53 50 46 45 44
15 17 17 16 20 18 19 22 20 21 22 21 25 26 30 43 46 20 54 67 56 56 60 41 44 48 52 54 49 45 48 48 52 62 64 60 58 61 64 55 46 45 50 53
20 23 24 23 24 22 20 17 17 15 14 13 14 25 39 66 45 76 88 82 95 64 39 40 45 48 51 51 53 55 53 54 57 58 58 62 62 54 46 45 44 47 50 54
11 15 16 16 14 16 19 21 20 20 27 35 63 88 90 96 99 71 49 60 56 72 58 48 47 42 42 47 50 59 67 71 70 70 73 58 43 36 26 23 27 38 52 51
12 15 17 23 20 19 20 23 25 28 28 28 40 37 37 39 64 73 89 86 92 72 64 62 65 55 52 58 61 66 72 76 84 66 50 50 40 28 25 26 30 35 41 39
13 20 19 22 26 26 29 32 34 36 38 39 41 37 36 78 96 98 100 99 98 70 73 74 70 69 70 70 76 80 83 70 56 49 28 28 30 28 27 36 47 51 61 72
23 23 27 26 33 35 32 31 30 30 27 28 40 59 64 61 66 72 65 66 67 89 67 63 72 74 82 86 84 66 50 43 27 28 31 31 24 26 46 60 62 86 100 100
24 26 30 28 31 29 28 29 26 26 26 28 26 33 45 58 63 69 76 71 66 76 76 84 88 98 94 68 49 45 32 26 26 25 24 26 30 33 47 52 72 84 73 68
24 30 28 18 27 29 31 29 25 23 28 36 36 42 47 61 67 83 99 100 100 100 100 94 82 62 51 49 45 33 31 26 27 30 34 36 35 35 45 83 70 57 43 34
24 23 14 19 23 25 25 24 23 21 22 23 32 56 66 55 58 68 76 81 83 100 99 78 56 50 52 48 38 36 33 35 34 38 40 34 34 37 41 43 34 18 14 16
16 12 13 17 20 23 22 23 23 22 23 23 35 36 53 50 55 60 64 78 72 76 66 63 60 53 46 42 41 39 38 37 34 36 46 47 36 31 18 8 9 10 11 15
14 12 14 15 16 20 21 20 21 22 21 22 30 47 45 46 57 65 74 70 68 63 60 58 53 48 46 48 49 49 39 39 40 44 38 36 22 10 9 8 7 8 13 19
11 14 14 16 18 18 19 19 21 20 20 22 26 50 43 53 60 64 63 57 60 61 57 54 51 51 50 45 35 31 38 46 43 33 24 11 9 9 7 8 10 21 20 34
12 13 16 17 18 19 18 20 21 22 22 23 23 35 52 59 59 58 60 61 60 58 54 53 48 41 34 30 31 40 39 38 33 22 11 9 8 8 11 40 97 100 98 68
13 16 18 18 18 18 18 19 21 22 23 25 34 42 48 61 67 69 67 64 62 58 55 47 37 29 30 32 35 38 39 36 23 15 9 8 10 12 18 100 95 100 61 87
16 17 17 17 17 18 18 19 21 23 24 32 38 43 54 71 72 70 70 66 56 47 33 26 27 32 37 40 43 42 38 19 10 9 8 9 11 15 44 100 100 100 92 92
16 16 16 16 16 17 18 19 21 23 26 30 40 57 74 77 75 72 59 50 38 29 28 32 33 37 47 52 48 42 21 10 10 8 6 8 13 14 73 100 100 100 100 86
16 16 16 16 16 17 19 19 24 27 32 33 53 61 69 71 67 53 41 30 27 31 33 37 42 50 51 50 47 26 11 11 8 7 9 13 14 20 65 95 100 100 93 100
16 16 16 17 18 19 21 21 26 30 29 43 60 69 66 58 49 39 31 33 37 41 45 45 40 41 49 50 30 15 11 9 7 10 13 14 18 20 27 53 60 58 92 91
16 18 18 20 22 23 24 26 28 31 51 61 60 53 53 49 39 38 41 42 43 49 50 48 50 56 53 29 14 12 9 8 10 14 15 22 23 22 24 32 51 90 93 68
19 20 18 20 24 27 31 29 29 35 59 68 60 55 53 51 48 47 44 44 52 59 56 58 62 57 30 16 13 10 7 11 13 16 32 41 43 52 65 80 81 85 70 61
22 25 28 27 32 33 32 33 43 64 77 70 65 71 68 59 54 51 54 59 67 70 68 67 56 35 21 14 10 8 10 13 15 26 55 62 64 68 74 72 83 75 66 85
32 31 30 34 38 36 37 45 65 81 86 82 85 87 78 69 65 65 71 77 80 74 69 55 35 23 16 11 9 10 12 13 19 47 63 66 72 73 70 72 80 75 80 86

GFSCGP_500_rhum_036.txt.gz
RH
57 61 34 60 96 88 84 54 31 45 33 40 36 14 12 9 14 20 25 21 21 21 18 14 12 15 52 65 79 84 98 87 67 42 37 46 49 55 69 62 58 53 50 49
33 33 43 48 73 93 81 85 39 17 27 28 22 21 18 17 15 14 16 23 34 54 38 33 27 57 68 69 85 84 40 38 37 44 50 51 58 64 65 63 60 59 62 70
22 43 41 40 34 65 81 66 44 44 34 28 16 14 13 12 12 13 28 55 62 78 76 76 70 54 54 47 42 40 44 47 50 57 56 60 67 74 74 69 68 81 81 55
21 28 24 20 24 21 22 33 51 33 20 17 19 18 14 13 13 13 18 42 95 100 99 93 88 91 76 59 58 65 72 75 69 59 60 62 72 78 79 89 93 62 42 32
16 17 14 15 18 17 15 14 15 18 20 19 24 21 20 17 15 17 24 70 100 98 96 100 100 86 60 61 70 66 61 58 57 59 69 76 80 79 94 77 53 39 34 36
17 19 20 22 22 23 22 21 19 16 15 13 13 15 18 34 43 54 40 87 99 96 88 67 60 76 80 83 72 76 59 58 67 74 83 89 86 56 38 27 30 34 38 40
12 14 15 15 13 12 13 17 18 18 19 32 45 51 73 83 77 81 57 55 36 49 63 71 95 100 94 86 83 73 68 69 69 82 88 60 38 27 31 33 36 35 30 29
10 11 12 12 16 17 20 25 26 27 30 32 29 28 30 36 37 35 73 73 60 69 95 99 97 70 69 76 88 88 83 88 92 68 56 51 36 35 33 28 22 20 27 29
16 20 17 18 24 27 31 32 31 30 29 27 26 28 30 32 34 57 90 98 98 95 84 60 56 59 89 84 87 84 71 52 49 40 34 34 31 24 18 20 26 36 36 33
18 20 24 26 33 33 29 30 26 23 22 24 26 27 30 34 32 38 40 47 55 62 61 60 77 93 76 66 55 51 45 37 36 37 34 29 20 17 21 31 40 41 37 32
20 25 29 30 28 30 31 28 23 21 21 21 20 24 28 31 36 36 38 44 50 62 81 83 100 90 62 52 47 40 38 38 39 34 26 22 20 26 34 42 43 38 27 12
27 23 29 19 27 28 26 24 22 21 20 21 20 24 22 29 30 38 51 59 73 100 98 100 84 62 58 55 52 45 42 37 29 26 26 29 37 40 43 43 34 15 9 9
24 27 30 14 21 23 24 23 22 18 17 18 19 20 18 22 41 50 60 65 74 85 87 70 63 62 56 51 45 37 31 35 40 43 41 37 40 46 41 26 13 10 9 9
22 22 17 13 16 17 18 21 20 19 19 20 20 20 20 25 43 51 60 69 73 68 66 66 63 58 54 52 52 53 54 44 33 28 28 36 47 43 28 21 19 13 8 8
20 17 13 13 15 17 18 19 19 19 20 21 22 23 23 25 40 47 54 60 62 62 62 62 62 60 58 55 44 37 33 26 24 36 49 43 40 34 28 20 11 7 9 15
20 19 16 15 15 17 18 18 19 19 20 21 21 23 24 23 32 47 65 69 71 70 69 68 64 57 43 30 29 26 24 31 31 26 28 40 36 30 21 11 7 11 15 52
12 12 12 13 15 17 18 18 19 19 20 21 22 23 27 29 43 58 67 74 76 76 75 60 45 31 30 31 27 31 29 26 30 43 48 36 20 15 9 8 11 14 25 97
13 12 12 14 17 17 17 18 18 18 20 20 21 25 28 28 44 64 80 83 81 72 54 39 30 32 32 33 33 34 35 40 51 50 34 19 14 9 9 11 12 20 100 100
12 13 14 16 16 16 16 17 17 17 21 22 23 27 29 34 52 66 67 66 58 50 41 35 34 33 34 39 44 46 45 52 51 30 23 16 10 8 9 10 14 21 52 100
14 15 16 16 16 15 16 17 17 21 25 25 26 29 33 46 57 60 60 54 47 42 40 38 39 43 48 55 55 50 52 54 37 24 19 12 8 10 10 16 18 18 34 67
15 15 16 16 16 15 17 19 20 24 26 31 30 30 34 53 65 62 58 54 54 52 49 49 52 58 57 55 54 57 56 46 31 18 13 9 11 11 21 26 27 33 46 62
16 17 17 17 18 18 20 19 21 25 30 33 32 32 35 53 71 62 60 67 69 68 64 63 65 60 59 61 62 59 50 38 20 14 10 11 12 25 45 50 52 57 61 68
18 19 18 19 20 20 19 20 22 28 32 32 32 30 36 64 81 80 80 86 84 79 70 65 62 62 65 67 64 52 39 22 15 11 11 11 14 46 59 61 61 60 64 69
20 20 19 19 21 22 24 33 28 28 33 31 28 30 45 61 68 78 92 96 85 74 70 64 63 62 70 68 56 41 20 14 12 12 13 13 30 62 66 63 65 64 71 75
23 20 20 18 22 23 31 32 32 36 33 30 33 44 54 59 72 88 89 83 79 78 68 65 68 78 73 59 41 21 15 12 12 14 14 18 58 70 68 69 71 72 80 81
28 28 26 24 31 33 37 37 37 37 41 47 51 54 55 77 88 88 88 87 80 71 70 78 87 77 60 37 21 16 13 13 15 17 19 34 73 76 66 70 75 73 86 89

GFSCGP_500_rhum_039.txt.gz
RH
38 34 16 39 64 51 26 21 40 24 24 20 10 7 9 9 10 14 15 12 16 18 18 21 20 24 31 58 78 99 99 100 89 78 61 46 46 56 60 48 49 58 64 66
19 21 20 59 75 60 60 36 23 27 37 24 22 18 12 13 13 13 20 28 30 44 67 36 31 63 77 98 88 70 55 47 54 64 63 59 51 46 45 49 61 71 75 76
20 31 62 97 85 76 72 50 44 43 40 29 22 15 14 14 15 23 25 28 60 63 52 65 62 78 81 75 66 64 50 41 43 48 54 53 52 52 56 67 75 77 74 58
19 21 27 33 36 63 53 53 55 51 39 42 31 16 13 15 20 22 25 24 41 52 87 95 95 92 84 94 89 75 68 64 64 63 72 67 61 65 79 91 94 88 82 72
24 31 30 36 24 23 23 24 24 21 18 18 19 21 17 19 19 23 38 49 54 78 100 99 98 98 95 100 92 90 90 100 100 100 95 79 77 93 100 100 93 58 39 36
27 26 26 17 16 17 21 22 23 23 22 21 19 17 13 15 24 65 78 88 97 97 94 84 51 61 86 78 95 95 99 100 96 84 84 93 98 97 74 55 46 41 39 33
25 20 20 21 24 25 24 19 18 20 21 20 18 21 23 26 30 41 37 36 38 46 67 74 93 99 99 98 95 100 100 98 86 94 97 85 59 52 49 45 38 27 19 17
18 17 17 16 14 16 19 21 24 24 26 28 28 24 21 20 21 22 25 31 34 38 100 100 100 100 95 97 100 99 85 82 84 58 51 46 41 38 28 21 19 18 16 17
17 14 13 15 20 23 26 30 30 28 24 21 21 19 18 20 23 27 31 33 34 36 41 51 54 59 66 72 63 62 57 47 43 39 36 30 25 20 20 18 17 19 21 24
17 18 17 22 26 32 30 28 26 22 20 20 18 17 15 14 14 20 29 37 42 51 54 55 59 66 68 57 54 52 47 43 40 36 28 21 20 19 18 18 19 23 26 31
15 18 24 29 32 30 30 30 23 20 18 18 17 17 17 18 16 14 16 17 25 38 46 57 65 71 66 64 59 52 49 48 40 26 22 22 21 22 23 24 25 32 38 43
18 23 27 31 29 30 30 26 23 20 18 18 19 18 18 20 19 16 14 15 18 26 40 49 53 56 60 56 57 57 54 39 26 24 28 26 28 29 28 30 33 38 41 40
19 23 28 22 22 26 26 25 23 21 19 19 19 19 19 21 21 20 18 19 25 31 42 50 57 59 58 61 61 58 45 32 29 32 29 32 32 30 33 35 37 42 41 33
23 23 28 28 16 16 17 17 17 19 18 18 20 19 19 21 23 23 20 23 34 45 57 62 64 66 66 70 69 51 40 33 35 32 34 34 35 35 39 44 46 40 32 20
26 22 23 18 14 13 14 16 18 18 18 18 19 20 20 20 22 23 22 23 33 51 62 69 71 72 74 70 54 42 38 37 35 38 42 42 39 41 46 47 44 34 20 11
27 21 22 16 15 15 15 16 18 18 18 18 18 18 20 21 22 24 24 24 35 52 67 75 82 83 73 60 50 40 38 40 45 45 42 39 45 51 52 42 29 17 10 9
15 14 17 14 16 14 15 16 17 18 17 17 17 21 24 25 28 27 27 29 41 56 69 78 77 69 55 46 44 45 49 53 50 42 40 44 49 54 46 28 17 10 9 10
13 14 13 12 14 15 16 17 17 17 17 18 18 24 26 31 34 30 29 32 45 58 69 66 58 50 55 59 62 65 60 52 44 46 51 57 60 47 28 18 11 10 13 19
13 12 12 14 14 16 16 16 17 17 18 20 21 24 26 33 34 31 31 34 42 61 64 57 59 69 78 82 79 64 59 49 49 56 64 63 49 33 19 11 11 17 29 30
18 13 13 15 15 16 16 17 17 17 19 21 21 23 28 33 33 34 31 34 52 76 81 81 87 91 90 79 69 68 56 51 57 64 64 51 33 21 12 11 13 42 43 43
16 16 15 16 16 16 18 17 18 20 20 20 21 26 30 33 35 33 32 43 69 93 83 80 88 86 78 76 69 61 57 57 63 65 52 30 19 13 12 12 22 48 48 52
14 16 18 18 17 17 19 18 19 21 20 21 37 36 34 38 34 31 35 52 59 58 76 89 88 88 83 73 64 61 62 66 64 49 28 18 13 13 14 16 50 55 57 64
20 22 20 20 21 22 20 19 18 18 20 23 32 35 37 35 37 42 54 63 63 87 95 91 89 88 79 65 64 66 71 65 44 26 17 13 14 16 17 28 60 63 68 72
31 28 23 25 28 24 20 18 20 21 23 28 35 37 36 40 46 62 81 91 98 94 90 90 95 89 72 67 78 77 62 38 23 16 13 14 16 19 22 53 70 66 65 75
33 31 28 23 23 19 19 22 23 25 32 37 37 40 43 50 66 80 89 90 88 90 94 100 98 80 70 76 81 58 32 21 14 14 15 16 21 23 32 68 81 72 78 68
38 28 23 20 20 20 22 28 32 38 40 39 44 49 55 64 76 88 91 95 95 92 93 96 85 79 81 81 55 30 20 12 13 15 16 19 27 28 48 80 95 88 82 67

GFSCGP_500_rhum_045.txt.gz
RH
100 91 96 95 60 33 32 32 37 36 24 25 28 23 23 21 26 24 22 21 18 15 16 15 11 22 60 36 42 41 41 93 88 94 65 42 30 38 46 56 59 66 64 72
96 95 87 91 69 37 41 37 31 31 37 30 28 27 22 20 18 16 14 14 15 17 18 16 14 15 16 26 74 89 79 60 42 41 37 37 67 71 67 70 75 64 57 67
90 79 70 68 63 52 32 54 88 68 55 36 29 21 17 16 14 14 15 18 18 19 20 22 18 20 28 33 38 45 58 68 53 37 62 80 86 88 79 74 72 69 82 81
92 82 66 62 58 55 55 44 26 30 38 24 23 17 12 12 14 15 16 14 15 16 24 27 38 46 65 74 65 67 79 76 57 62 75 61 90 80 80 71 66 79 71 71
62 72 53 52 47 49 57 77 67 45 26 17 13 12 15 15 14 15 20 24 26 30 33 37 29 28 30 37 59 74 92 82 99 99 94 86 74 93 93 88 83 83 76 59
38 32 32 26 44 71 43 32 27 22 17 15 18 16 17 21 24 24 25 23 24 24 24 23 26 28 28 30 36 70 99 100 96 88 68 81 88 92 87 82 70 58 50 40
24 27 32 38 44 44 31 21 19 19 20 17 19 24 25 20 17 16 15 15 16 18 20 20 20 20 24 30 35 37 40 48 48 58 78 88 98 77 64 54 49 47 43 31
27 32 33 34 31 25 18 19 22 16 19 27 26 19 17 13 14 14 14 14 14 15 16 18 18 18 19 22 27 34 40 48 54 64 69 72 66 54 52 53 55 47 30 34
23 21 21 23 26 24 22 17 18 25 30 24 20 18 18 17 18 18 18 19 18 17 18 20 20 20 21 21 24 32 44 51 57 56 55 54 54 58 64 59 40 33 40 52
14 15 18 19 20 19 15 21 27 31 24 21 20 18 18 18 16 16 16 15 16 18 19 21 20 20 21 22 25 28 38 52 58 62 66 72 74 68 52 41 48 59 64 60
10 12 18 16 15 16 23 30 32 28 23 20 19 19 18 17 16 14 14 19 24 28 26 23 21 18 18 20 24 29 38 50 59 74 73 65 58 52 50 63 67 64 55 51
10 15 18 20 15 21 29 34 32 31 25 24 22 18 18 17 16 14 20 25 28 32 32 31 28 23 20 19 22 28 39 56 56 63 70 69 60 61 70 64 59 55 55 58
13 17 18 20 19 25 33 33 32 31 27 25 20 18 17 17 16 15 17 24 27 28 33 35 35 31 27 23 22 31 44 66 75 73 70 66 68 71 67 64 62 63 66 56
20 20 18 18 23 29 33 33 30 27 24 19 17 17 18 17 17 16 16 17 23 25 27 32 35 33 32 28 26 34 54 65 74 75 72 63 69 70 71 69 70 70 55 50
24 22 20 19 23 28 27 24 23 20 16 15 16 17 18 18 17 16 16 16 18 22 24 28 34 33 33 31 30 38 54 58 66 67 59 78 80 81 76 76 66 58 51 48
24 22 20 21 23 24 24 20 16 15 14 15 16 16 17 17 17 16 16 18 20 21 23 29 34 34 36 34 34 45 61 69 66 75 92 91 82 80 70 63 58 50 50 47
22 20 18 18 19 18 14 17 18 16 16 16 17 17 16 17 16 17 18 20 21 22 27 34 36 40 38 40 49 64 76 84 94 95 88 84 83 71 67 58 51 53 46 18
23 21 17 15 14 10 11 13 16 18 17 15 16 17 17 17 17 18 18 20 22 22 27 34 40 42 44 50 60 80 90 93 90 87 90 87 76 74 64 53 58 45 18 9
23 20 16 13 11 9 9 9 10 11 12 14 16 17 17 18 18 20 20 21 22 26 30 38 43 49 52 61 80 92 96 95 91 97 96 87 79 67 57 65 45 17 10 11
26 24 20 15 11 9 12 14 13 11 11 13 14 16 18 19 21 23 22 23 26 30 37 45 54 58 62 73 95 100 97 98 100 98 91 83 68 60 69 47 18 11 12 12
26 24 20 16 12 11 18 20 18 17 16 16 17 18 21 24 26 24 24 27 31 39 48 54 56 55 72 89 98 100 100 100 95 90 83 71 64 74 54 20 11 13 13 14
19 18 19 18 16 17 20 20 18 18 18 20 22 26 29 29 26 25 28 35 46 51 52 52 61 75 85 96 100 100 100 98 92 85 73 68 78 58 21 11 14 14 15 20
7 8 7 9 11 14 13 12 14 20 24 27 30 30 28 25 26 30 41 48 48 44 47 70 88 98 100 100 100 100 100 100 95 76 72 79 66 26 11 14 15 15 19 26
8 9 8 8 16 12 8 8 12 17 27 31 29 26 26 28 37 45 45 39 41 54 81 91 100 100 100 100 100 100 100 100 87 73 78 71 30 11 14 14 17 17 24 31
8 8 8 7 9 7 12 16 19 23 24 24 25 30 38 47 46 38 50 73 82 94 99 100 100 100 100 100 100 100 100 96 76 80 71 28 11 14 16 17 20 22 28 33
12 10 8 8 11 12 17 22 23 24 26 34 45 48 44 35 43 76 86 98 100 100 100 100 100 100 100 100 100 100 94 79 80 70 28 12 14 17 17 22 24 31 33 33

GFSCGP_500_rhum_048.txt.gz
RH
95 94 96 100 94 41 55 70 64 48 54 31 32 48 49 32 52 61 42 27 21 17 17 17 16 17 20 25 30 25 27 49 64 89 96 82 58 60 70 89 93 89 78 78
88 95 97 100 86 46 97 99 54 41 43 36 43 42 36 30 26 23 22 19 17 18 16 28 22 15 16 26 25 23 24 25 32 36 43 76 72 78 98 99 86 74 77 91
100 96 96 96 91 57 81 99 59 85 63 46 42 32 29 23 19 18 18 20 21 22 20 17 17 21 42 50 61 72 69 62 53 49 53 71 76 73 90 91 74 70 79 78
100 92 80 69 66 66 53 36 19 78 75 82 35 77 21 22 18 16 21 23 20 18 19 23 45 61 57 38 30 29 28 31 31 33 39 60 59 72 72 63 59 82 87 70
93 94 89 77 63 51 54 72 93 84 67 36 29 21 64 18 16 17 16 18 23 27 30 34 30 27 24 20 20 21 25 26 28 34 44 41 45 49 55 62 86 82 76 77
93 93 69 61 55 54 68 78 55 72 47 30 20 18 66 19 18 21 22 22 20 19 21 20 17 16 17 18 18 18 18 17 18 20 23 31 38 50 59 70 74 74 67 66
71 61 45 43 36 37 64 65 39 26 21 18 18 18 30 23 19 16 14 13 14 15 16 18 19 20 20 20 19 19 19 20 21 21 24 32 41 54 60 66 64 64 67 68
35 29 31 32 38 52 52 37 23 20 22 19 20 26 18 15 14 15 16 18 17 15 16 18 20 21 19 19 18 18 17 18 21 24 26 38 53 62 64 66 68 72 64 51
22 26 27 30 33 31 27 23 24 23 17 26 25 18 17 17 17 17 16 18 15 16 22 24 23 22 20 19 19 18 17 17 20 24 28 32 38 45 56 61 58 58 54 54
25 23 22 23 22 22 24 24 19 19 28 29 21 20 18 17 17 16 15 14 15 22 27 29 29 29 30 31 29 27 24 22 20 23 27 31 38 46 50 60 63 56 52 59
13 15 16 16 20 20 20 16 21 31 31 22 21 20 18 18 18 17 16 15 18 25 27 28 29 33 32 34 36 34 30 28 25 24 25 28 37 53 64 67 55 59 70 65
10 10 10 14 17 16 15 18 29 33 29 24 21 21 20 18 18 18 17 16 16 16 19 24 25 25 26 30 35 35 32 31 29 27 29 37 50 62 65 62 72 72 68 72
6 7 10 14 17 16 16 25 34 32 32 30 26 24 20 18 18 18 18 17 16 16 16 16 17 20 22 23 30 34 34 35 34 34 39 52 64 71 76 82 81 80 80 76
7 11 16 18 20 21 22 28 35 31 29 29 26 22 17 16 16 17 18 18 17 16 16 16 18 20 20 23 30 35 38 39 39 45 56 71 83 88 90 88 89 87 81 74
15 18 20 20 17 17 22 28 32 30 29 26 21 17 16 16 16 16 17 17 17 16 16 17 19 20 21 24 31 37 42 44 50 59 75 85 91 92 92 94 92 85 73 60
26 25 23 21 19 16 19 24 27 27 21 17 19 14 17 16 17 17 16 16 17 17 18 19 20 21 23 27 34 43 47 51 57 66 79 92 97 98 98 96 86 72 59 48
29 28 25 20 19 18 17 21 23 25 25 24 18 17 15 16 15 15 16 17 18 19 20 22 22 22 26 32 40 46 50 55 61 76 98 100 100 100 98 89 74 60 50 52
27 28 23 20 19 15 15 16 18 17 17 16 15 14 13 13 13 15 17 18 20 22 24 24 24 26 32 42 50 56 60 63 77 98 100 100 100 100 98 89 68 54 54 56
31 27 23 17 16 13 13 13 14 12 13 12 11 11 11 12 13 16 18 20 22 26 28 27 29 34 44 53 59 59 63 83 97 100 100 100 100 100 100 90 63 55 59 27
31 31 26 21 16 13 16 18 18 14 13 14 16 16 18 19 20 21 23 26 30 32 28 30 37 51 54 52 49 66 85 94 100 100 100 100 100 98 93 70 58 62 32 10
25 25 24 24 22 17 17 15 14 14 13 12 13 17 22 26 28 30 32 34 32 30 33 46 54 49 48 59 82 86 98 100 100 100 100 100 97 95 77 61 65 40 11 12
14 16 16 15 13 12 12 9 7 9 8 9 11 14 18 24 31 35 33 30 32 41 52 48 44 66 79 88 88 98 100 100 100 100 100 95 95 80 64 66 39 10 11 16
9 9 8 8 9 9 7 6 6 7 7 8 10 16 22 24 25 26 29 41 50 50 38 50 82 87 88 86 97 100 100 100 100 100 96 95 80 74 71 42 10 11 17 17
9 8 8 8 9 8 7 7 7 8 10 15 19 22 23 23 28 40 50 49 37 37 71 88 89 86 89 100 100 100 98 100 100 100 100 88 79 76 36 11 10 18 18 21
10 9 9 9 9 8 9 9 10 10 14 18 21 25 34 47 51 46 37 35 50 84 93 96 100 100 100 100 100 100 100 99 100 100 88 80 75 32 11 11 18 20 21 28
11 10 9 9 10 10 9 10 13 16 20 24 34 45 48 41 36 36 52 80 95 100 98 96 99 100 100 100 100 100 100 100 100 87 83 66 24 10 12 19 23 21 30 37

GFSCGP_500_rhum_051.txt.gz
RH
97 98 99 92 100 100 91 80 78 81 39 74 84 38 29 48 57 67 46 34 28 22 20 21 22 21 19 31 27 16 14 14 17 18 24 38 36 46 49 68 64 72 78 78
86 91 94 99 94 93 98 98 93 76 44 44 45 54 52 33 30 32 38 26 24 25 27 24 22 21 16 17 16 32 32 45 54 38 27 29 30 31 44 59 54 60 66 84
99 98 92 100 94 94 92 98 97 85 70 44 90 71 19 23 23 22 24 24 27 24 22 22 20 21 21 38 42 34 28 25 23 23 22 22 20 20 24 31 35 44 51 58
82 98 98 92 100 97 97 47 37 70 36 88 36 94 96 41 27 33 28 23 21 22 24 21 22 26 32 28 22 19 17 17 16 16 17 18 19 19 22 22 25 29 48 56
100 100 86 94 98 62 96 47 70 93 84 96 76 61 96 68 48 23 21 19 19 18 17 26 25 21 18 17 18 18 18 18 18 18 18 18 19 19 19 20 24 27 37 45
95 95 74 95 74 73 47 65 91 74 90 92 73 97 96 87 58 16 16 15 19 26 24 18 16 18 19 19 19 18 18 17 16 15 14 14 15 16 16 17 20 31 43 52
92 93 62 76 52 54 47 72 100 99 93 77 83 47 68 68 45 24 23 19 15 15 15 16 17 19 20 20 19 20 24 26 26 23 21 20 18 17 18 20 26 32 40 48
96 71 50 45 74 100 38 100 100 90 79 82 80 30 70 26 20 15 14 14 17 16 15 18 22 24 24 24 25 26 28 32 34 32 29 26 23 22 21 22 26 36 40 48
100 99 59 30 41 48 62 58 44 41 21 23 27 73 26 17 16 17 17 16 17 16 15 20 26 28 26 27 28 28 28 34 36 36 33 30 29 28 27 27 27 33 44 55
93 99 56 24 28 31 36 35 28 24 22 20 67 71 78 18 17 17 16 15 14 14 15 22 26 27 25 25 24 23 24 24 29 33 34 33 33 32 31 34 40 49 64 71
32 27 58 24 22 47 22 21 24 27 23 28 39 56 38 18 18 18 17 17 16 15 15 16 16 16 16 16 17 19 21 22 23 27 33 35 37 36 37 40 51 70 75 78
21 18 20 13 13 16 16 17 16 14 26 32 28 35 24 20 19 18 18 18 17 18 17 17 16 16 16 16 17 19 21 22 22 27 33 35 40 43 41 44 65 77 82 80
10 11 10 8 8 10 14 15 14 18 28 32 28 26 21 23 22 21 17 16 17 17 17 17 17 17 17 17 18 19 21 22 24 28 33 40 47 46 45 62 84 89 90 95
9 8 7 10 93 76 20 15 16 24 31 32 28 32 28 24 23 20 15 16 16 16 16 16 16 17 17 18 20 22 22 23 27 33 41 50 55 51 65 87 96 98 100 99
10 9 7 12 14 23 19 22 23 25 32 34 28 33 30 24 19 15 14 14 15 17 16 16 17 18 19 20 23 24 26 28 36 44 53 53 51 70 87 97 99 100 100 100
10 14 18 19 19 20 18 17 21 24 30 34 32 30 26 20 15 17 13 16 17 15 16 17 18 19 21 24 27 28 29 36 47 52 54 54 74 94 100 100 100 100 98 93
28 28 31 25 25 23 18 18 20 23 25 27 27 29 23 19 20 18 16 15 14 15 16 18 19 23 27 31 31 30 38 49 52 51 56 76 99 97 100 100 99 96 90 85
32 33 33 31 31 22 19 22 22 20 19 19 17 19 14 13 11 12 12 13 16 18 21 24 27 31 35 33 33 41 53 49 54 67 90 96 97 100 100 99 96 93 88 83
36 34 31 29 29 25 23 15 20 18 19 13 16 15 14 14 15 16 17 22 23 26 29 32 36 37 33 34 46 55 49 64 89 96 95 95 100 100 100 100 100 99 93 79
25 38 37 32 30 24 20 24 22 21 20 14 16 16 18 19 19 23 20 25 30 33 34 36 33 31 38 53 54 48 84 97 100 94 96 100 100 100 100 100 100 93 85 68
24 26 25 26 25 22 21 21 18 16 13 12 11 9 10 11 17 17 16 20 24 26 28 28 34 51 55 45 56 88 94 96 89 98 100 100 100 100 100 98 96 89 71 54
10 14 18 19 17 12 11 8 7 7 6 7 6 6 7 8 10 13 17 21 23 25 33 47 52 42 39 64 91 99 90 92 100 100 100 100 100 100 100 96 88 69 49 24
9 10 9 9 9 7 6 6 6 7 7 7 8 8 8 8 11 14 17 21 31 45 47 37 35 51 82 96 97 96 99 100 100 100 100 100 100 99 95 82 64 38 14 11
10 11 10 10 9 8 8 8 9 9 9 9 10 10 10 13 15 21 33 47 45 33 35 48 79 97 100 100 93 100 100 100 100 100 100 100 98 96 78 48 21 11 12 17
12 13 12 11 11 11 10 10 8 8 9 10 11 15 19 24 33 42 41 34 33 50 78 92 99 100 100 100 100 100 100 99 100 100 100 99 89 68 38 16 10 14 20 25
13 12 13 12 10 9 7 7 8 9 10 13 18 26 35 39 41 38 32 41 69 89 98 99 99 100 100 100 100 100 100 100 100 100 95 76 47 20 11 10 14 21 24 32

GFSCGP_500_rhum_054.txt.gz
RH
100 98 99 97 95 97 94 96 99 83 50 46 98 85 20 23 27 97 15 25 20 15 16 15 18 19 23 21 24 30 48 23 24 30 24 17 16 13 15 17 16 19 22 27
93 96 99 97 94 98 99 93 90 91 27 29 98 90 37 22 16 15 18 23 20 19 20 18 15 15 15 11 11 55 34 27 19 16 14 14 15 15 16 16 17 19 19 21
91 92 67 86 94 90 100 97 82 84 19 22 91 46 19 21 18 17 17 16 16 16 17 17 15 16 15 24 42 38 23 18 16 16 17 17 17 16 17 16 16 16 15 17
92 90 72 92 92 94 97 96 89 98 54 46 64 99 98 56 29 20 22 23 15 14 15 18 16 17 24 30 29 19 18 19 18 18 17 17 20 22 24 23 22 20 17 17
90 75 84 75 100 95 77 82 69 93 97 95 95 84 58 96 75 46 51 33 20 15 15 17 17 25 28 22 18 19 18 18 20 23 27 28 28 28 26 25 24 23 22 22
72 96 81 97 94 71 48 51 59 57 61 95 94 90 83 91 96 90 56 34 18 16 17 23 20 17 18 20 20 20 20 22 26 28 32 32 32 31 30 30 29 28 28 26
57 93 71 59 35 38 40 55 85 91 92 63 88 95 95 58 87 50 19 26 23 20 15 14 16 17 20 22 23 24 25 26 29 29 30 33 34 34 34 33 33 33 32 32
75 73 46 37 35 72 34 70 87 89 92 100 72 68 74 23 29 36 22 15 14 17 17 15 15 22 25 27 27 26 25 24 24 24 22 23 23 23 27 32 34 34 36 38
94 97 79 77 26 71 98 77 93 90 67 45 50 65 48 43 40 18 17 18 18 16 17 15 14 17 24 25 24 19 16 16 17 17 18 20 21 22 22 28 31 36 41 42
98 63 92 56 23 20 23 39 36 27 21 17 31 82 84 93 51 19 18 18 16 15 15 14 14 14 15 15 16 16 16 16 17 17 18 19 21 22 22 25 36 44 47 50
86 97 99 45 21 23 25 34 24 26 62 72 21 94 79 63 51 21 18 18 17 17 17 17 17 17 18 17 17 17 17 17 18 19 20 21 22 26 29 36 45 50 54 55
22 27 32 30 30 16 20 35 38 22 18 29 16 35 77 74 51 22 20 19 18 18 17 17 17 17 16 16 16 17 17 18 19 21 23 25 26 32 39 50 55 59 55 67
22 19 18 28 70 20 10 12 16 20 18 13 15 28 33 28 24 22 23 21 21 20 15 15 16 16 17 17 16 17 19 20 21 24 28 29 31 41 51 58 61 59 74 91
12 10 11 10 18 88 85 45 16 16 14 13 22 32 49 31 30 28 27 25 21 17 15 14 16 18 16 16 17 17 20 23 26 32 32 34 41 56 62 60 64 87 96 99
9 9 11 10 11 54 54 54 56 21 15 18 27 38 37 84 57 17 13 19 18 19 22 19 18 15 14 16 18 21 24 30 36 36 37 46 58 62 64 82 98 99 100 100
8 9 9 8 9 7 12 13 17 18 20 23 27 33 39 42 41 27 23 24 22 19 17 15 14 14 16 20 25 28 34 38 36 37 51 62 58 83 99 100 98 100 100 100
15 14 13 14 16 19 18 21 21 19 18 22 24 27 33 30 24 24 24 25 17 16 14 18 20 23 26 28 33 37 38 34 39 57 58 53 91 100 100 100 100 100 100 100
22 29 29 31 32 24 26 22 24 22 22 26 24 22 22 17 13 18 16 17 18 27 24 24 26 30 33 34 37 36 33 45 57 50 62 94 98 100 97 100 100 100 100 100
17 29 34 30 32 31 28 24 29 30 32 21 19 24 22 19 22 16 16 21 20 20 21 22 24 29 33 32 31 48 56 55 42 62 94 100 100 100 100 100 100 100 100 100
19 20 33 34 32 29 29 28 31 32 30 23 28 25 21 18 17 15 11 10 10 10 11 17 25 27 26 32 52 58 44 46 79 100 100 100 100 100 100 100 100 100 100 100
10 18 23 24 27 27 31 23 30 26 22 19 14 10 9 7 10 9 7 9 10 10 18 20 24 33 46 49 40 41 68 96 91 98 100 97 100 100 100 100 100 100 99 86
8 9 16 20 23 22 19 14 10 10 7 8 8 8 9 8 9 9 9 10 12 17 22 26 40 44 35 38 73 94 100 93 100 100 100 100 100 100 100 100 99 95 77 46
10 10 10 11 11 9 8 7 8 8 9 9 9 9 9 8 7 9 10 14 18 26 40 43 37 36 67 93 100 100 97 100 100 100 100 100 100 100 100 100 83 52 23 10
13 11 10 10 13 10 10 10 10 10 10 10 8 7 8 9 7 12 17 26 32 42 40 35 50 84 99 100 99 100 100 100 100 100 100 100 100 100 93 62 32 11 10 11
15 13 14 13 13 12 9 12 12 10 8 7 8 9 10 13 17 21 29 39 43 37 47 79 91 95 98 97 100 100 100 100 100 100 100 100 99 75 39 17 13 11 13 18
15 14 13 12 13 13 12 13 10 8 8 8 9 13 20 26 34 44 47 38 40 60 80 93 98 100 98 97 95 96 100 100 100 100 97 73 42 24 21 16 14 14 16 22

GFSCGP_500_rhum_057.txt.gz
RH
96 94 97 96 97 99 100 94 100 84 75 61 63 59 22 14 26 54 40 40 25 10 8 8 7 5 7 20 26 19 24 62 40 29 32 16 15 15 16 16 19 20 21 22
66 75 98 84 90 99 100 100 82 97 38 20 36 51 42 37 21 33 46 33 15 19 7 9 9 7 7 10 14 22 60 61 36 16 15 16 17 20 21 24 25 24 23 23
66 92 88 88 66 77 86 98 96 98 86 39 94 96 94 64 29 14 22 26 9 11 12 11 10 10 11 23 26 33 18 20 16 16 19 21 24 26 28 26 25 24 25 26
87 85 85 88 98 66 82 97 93 93 49 33 77 95 71 57 78 60 24 16 29 13 12 13 14 14 18 20 17 15 16 16 18 20 24 25 28 30 31 31 31 30 30 30
87 67 82 73 74 98 79 79 100 83 86 99 91 76 59 86 86 90 88 65 28 12 12 22 17 19 22 16 17 18 18 20 20 22 25 26 27 24 20 18 18 18 18 19
71 70 61 61 67 99 56 55 50 63 94 78 72 94 81 78 91 82 73 55 29 12 23 24 21 16 17 18 20 21 22 23 26 26 27 24 20 17 16 16 17 18 20 21
56 72 94 90 88 70 72 48 42 29 35 20 68 84 96 61 40 32 37 39 22 18 22 13 14 16 17 19 23 26 27 27 24 19 17 16 16 16 17 18 20 21 21 24
52 75 82 54 68 54 38 39 36 53 83 70 98 95 79 80 55 41 33 26 14 16 17 18 17 15 15 18 21 20 18 16 16 17 17 17 17 18 18 20 22 22 24 26
49 63 77 96 32 53 51 88 80 80 69 67 78 66 41 26 48 61 27 16 18 18 17 15 15 14 14 14 15 16 16 17 18 18 18 18 19 20 23 25 27 28 31 38
67 86 80 100 60 24 48 71 100 55 32 23 19 30 72 41 86 72 53 29 19 19 18 17 16 16 17 18 18 17 17 16 17 17 18 19 21 22 24 28 30 32 41 51
94 85 78 76 84 24 32 37 33 29 26 17 17 36 61 88 96 95 66 43 21 20 19 18 18 18 16 16 16 17 17 16 15 15 16 19 20 24 29 34 33 39 48 57
67 57 55 98 31 39 38 25 30 26 26 23 14 20 30 44 69 70 56 39 22 21 23 23 21 19 15 14 13 14 16 17 17 18 19 21 26 32 37 36 37 50 58 53
46 17 17 36 62 44 40 35 20 16 13 11 16 13 17 34 39 47 44 28 22 24 25 24 21 16 14 14 14 15 19 40 51 40 27 32 38 40 38 40 56 57 55 89
16 17 19 21 22 23 16 19 40 48 24 14 14 16 22 30 41 40 34 27 27 28 26 21 16 13 14 28 30 51 65 66 29 33 40 43 42 38 49 63 57 64 99 100
19 16 12 9 9 10 7 15 21 59 45 25 20 23 34 46 40 40 29 21 18 23 22 19 16 31 81 74 76 57 34 37 41 44 41 37 39 59 66 54 82 100 100 100
10 8 9 8 9 8 9 5 9 22 17 28 26 24 33 37 39 44 37 32 32 32 27 44 58 74 22 29 37 37 39 39 40 39 34 46 64 57 49 94 100 100 100 100
9 9 8 8 10 9 8 10 15 17 19 24 24 20 26 31 27 32 34 35 37 24 26 25 25 26 28 25 26 23 21 26 31 39 58 59 49 65 100 100 100 100 100 91
7 8 12 17 21 19 25 23 25 26 27 26 23 19 21 27 26 24 21 23 28 28 26 25 20 17 13 12 13 17 23 29 42 52 46 56 96 100 100 100 100 96 100 100
10 30 25 23 28 28 26 23 33 35 32 27 27 26 29 31 30 30 25 23 20 20 18 17 16 14 14 15 21 28 38 48 43 47 90 100 100 94 99 100 100 100 100 100
7 7 14 18 26 30 29 32 29 33 32 30 31 32 30 30 27 21 15 11 10 10 11 12 12 14 20 30 42 54 50 46 69 96 96 97 99 93 96 100 100 100 100 100
8 6 8 19 21 22 27 28 36 32 28 30 25 20 14 10 10 9 9 10 11 11 11 11 16 23 30 45 48 42 50 82 99 100 100 100 100 100 100 100 99 100 98 94
10 7 8 10 15 19 23 24 24 22 17 13 10 9 9 10 10 8 7 8 8 9 11 16 27 37 43 42 40 61 84 95 100 100 100 100 100 100 100 100 100 100 95 50
13 10 9 11 12 11 9 9 10 12 11 10 11 11 11 9 7 6 8 10 14 18 24 34 43 45 39 44 68 92 97 99 100 100 100 100 100 100 100 100 99 61 29 31
13 15 14 13 12 10 9 11 12 11 10 11 12 11 8 7 7 8 12 19 24 33 44 49 41 38 53 80 94 93 96 97 91 89 94 100 100 100 95 75 39 32 36 43
19 16 16 16 13 12 12 11 11 11 12 14 13 10 10 10 10 12 14 24 42 52 48 43 47 70 90 93 99 99 92 81 84 96 92 85 87 75 48 33 35 44 50 51
27 21 20 18 16 16 14 13 13 12 13 16 16 13 12 14 17 22 35 53 55 50 46 51 80 93 98 99 94 83 74 64 49 32 30 44 58 46 35 34 51 50 42 38

GFSCGP_500_rhum_060.txt.gz
RH
66 71 96 86 98 98 97 72 62 42 39 42 46 51 35 33 48 84 65 33 20 22 14 10 12 15 12 14 12 13 14 19 68 64 24 15 16 19 21 23 24 24 26 26
82 99 92 99 92 74 87 95 82 42 22 42 72 78 29 42 51 49 50 34 19 17 11 8 11 14 16 17 24 33 65 66 51 24 15 18 21 24 25 26 27 27 25 23
89 93 91 77 77 80 76 83 72 60 58 75 100 68 25 19 22 52 38 43 34 20 14 10 10 11 14 18 21 34 33 29 21 16 18 20 23 25 25 25 24 21 19 17
97 79 74 61 58 67 84 59 77 96 76 56 80 75 57 36 58 77 57 37 41 51 35 18 14 11 16 18 17 17 26 37 18 19 20 24 25 24 25 22 18 17 16 18
66 70 67 73 58 88 67 100 100 97 84 55 35 49 53 51 49 77 69 56 44 26 27 28 30 23 18 14 19 51 46 27 22 23 25 24 22 22 16 16 17 17 18 19
62 66 83 70 79 85 58 94 100 76 76 47 91 57 70 98 72 68 61 52 28 19 20 30 25 26 18 20 40 36 25 25 26 27 24 17 16 16 17 17 17 17 17 17
54 73 81 81 79 84 69 72 69 65 66 42 59 60 62 73 60 41 38 32 26 18 14 15 16 49 33 33 22 22 24 24 24 19 17 17 17 17 16 16 16 16 16 19
52 55 62 66 85 62 44 56 66 51 53 66 79 28 89 80 72 44 47 33 18 16 17 18 23 37 23 15 14 14 15 16 18 18 18 16 15 15 15 14 14 16 21 26
51 48 50 64 66 59 56 52 53 54 54 50 96 78 67 56 44 29 36 21 18 18 18 18 17 16 15 16 17 18 18 17 17 16 16 15 13 13 14 17 23 29 50 40
56 47 62 98 92 98 39 47 58 56 64 63 53 46 52 31 27 52 80 55 38 19 19 19 19 19 19 18 18 17 16 15 15 16 16 14 16 21 30 37 33 37 41 40
52 74 92 81 84 84 49 32 51 52 46 28 22 19 18 20 60 85 99 78 61 46 24 21 22 25 25 22 20 18 17 17 16 19 27 48 70 82 100 79 54 47 42 41
100 100 62 77 100 81 98 34 28 29 54 48 26 14 14 18 37 81 83 78 69 53 39 27 23 26 26 24 22 22 20 21 23 29 29 30 48 65 100 58 42 35 38 58
89 97 100 80 88 64 42 32 32 40 25 17 16 13 12 18 20 16 19 21 23 27 30 24 27 27 24 19 16 12 33 48 39 38 54 76 56 60 40 37 36 48 61 54
89 85 76 42 29 46 30 26 48 39 18 19 16 16 13 14 15 22 20 23 24 25 25 26 31 21 13 11 16 40 75 67 61 85 70 43 44 38 36 42 61 59 49 64
87 54 26 16 20 25 21 16 9 15 18 23 41 24 30 26 14 18 22 25 28 29 29 31 34 42 28 47 65 72 86 76 71 46 34 33 34 36 49 60 53 53 88 95
25 31 29 21 17 13 10 8 8 9 13 11 12 15 25 30 34 30 30 28 32 31 26 21 88 63 74 80 81 72 64 28 26 34 36 34 35 58 54 49 73 100 100 100
22 24 20 13 10 9 8 9 11 11 14 12 14 15 19 23 19 22 29 31 29 27 21 22 54 62 54 47 57 20 18 25 31 28 32 53 53 47 61 92 100 100 100 100
20 15 13 11 11 8 12 16 18 20 22 26 26 25 27 28 26 27 29 31 28 27 29 29 26 22 16 16 16 18 19 19 26 42 53 49 53 78 99 99 99 99 99 100
20 26 16 10 10 14 21 29 32 34 35 30 29 29 31 31 29 25 22 27 32 29 23 19 16 16 15 13 14 16 23 34 43 47 44 56 86 93 90 94 95 94 98 100
31 54 19 22 33 33 22 34 32 31 36 34 37 43 39 33 31 33 32 25 17 14 16 15 12 10 11 14 22 32 40 47 44 46 64 81 93 94 97 92 91 100 100 100
47 20 10 7 7 10 19 24 38 35 34 42 41 42 41 36 29 18 12 13 14 11 8 8 10 16 24 29 37 48 47 41 48 69 95 98 97 97 91 87 92 90 86 89
31 18 10 8 7 8 13 21 25 30 32 34 27 18 12 11 11 12 12 9 8 8 8 11 15 20 33 48 51 45 46 63 92 99 100 100 91 76 70 84 90 60 66 70
34 22 16 13 9 8 10 13 16 18 15 13 15 14 13 13 13 12 10 9 9 9 11 14 26 47 55 52 49 52 67 94 100 100 96 77 59 41 27 14 22 39 72 60
27 20 17 17 13 12 13 13 13 14 15 14 13 11 11 13 15 15 14 13 13 13 16 35 56 59 54 46 42 59 85 96 98 81 62 39 12 5 7 11 24 52 55 42
32 20 22 22 18 18 17 16 16 15 14 14 13 14 14 16 17 18 17 16 16 24 47 60 59 46 34 42 64 88 91 82 68 43 13 5 5 6 11 26 51 49 34 41
41 26 27 28 27 22 20 18 18 17 16 15 16 17 19 22 24 22 20 20 26 48 59 54 36 32 54 80 87 84 72 60 30 7 5 5 6 10 24 44 47 44 63 75

GFSCGP_500_rhum_063.txt.gz
RH
63 76 80 90 87 77 100 93 91 98 90 87 72 52 74 58 64 47 38 36 32 20 16 36 24 14 14 13 11 11 15 19 41 72 55 18 15 17 19 22 24 25 22 20
77 82 84 71 68 94 94 62 46 38 47 53 62 46 64 62 70 58 49 41 23 22 16 14 14 11 10 11 11 16 32 71 51 40 23 17 18 21 21 23 23 20 18 17
72 82 88 87 76 85 92 91 62 35 21 33 25 39 44 57 90 56 43 34 17 18 23 19 18 16 15 16 20 24 33 38 33 27 30 33 20 21 21 20 16 16 16 17
62 62 73 71 69 66 62 78 88 51 38 43 31 41 44 35 41 61 66 31 32 38 32 16 15 21 18 21 25 24 29 34 52 31 59 50 29 19 17 15 16 17 17 17
40 53 60 57 67 74 58 64 58 51 89 75 32 15 21 36 43 65 62 74 61 54 30 24 23 28 34 48 43 28 71 77 45 42 39 24 21 16 16 17 18 17 16 16
41 44 65 73 68 65 62 52 68 70 90 74 67 30 34 48 65 70 52 69 39 38 40 26 51 34 26 50 53 62 81 43 35 33 20 17 16 17 17 17 17 17 16 16
40 41 57 70 76 66 58 49 57 72 81 71 69 58 50 71 75 56 38 57 34 27 21 16 29 43 53 68 69 64 55 30 18 19 17 19 17 17 16 17 16 14 16 19
37 44 56 64 72 74 78 65 46 46 60 60 58 42 36 70 70 54 37 36 30 17 16 18 18 29 44 72 50 37 19 18 18 18 18 20 15 14 15 13 13 19 15 44
36 47 72 77 80 80 82 56 38 32 38 39 38 34 62 50 76 60 44 34 21 17 18 18 18 28 33 36 27 19 18 18 17 17 16 15 14 14 10 15 14 26 50 99
40 49 65 66 82 100 98 88 61 45 51 43 40 41 56 66 63 42 29 32 21 19 20 19 18 20 31 24 24 23 22 22 21 20 17 16 12 12 19 23 36 65 78 100
31 42 59 62 57 100 98 88 56 29 45 53 42 48 39 24 19 15 26 41 85 61 48 36 25 22 25 24 25 26 26 25 23 18 15 12 21 21 27 56 74 100 68 64
29 35 32 37 78 81 89 79 81 42 43 35 32 32 16 16 19 21 32 69 88 81 63 56 48 39 36 30 32 31 29 26 21 20 38 79 84 94 95 51 50 58 65 35
27 25 24 30 68 59 89 88 94 75 20 15 19 17 17 13 12 19 26 50 44 42 49 57 49 52 36 36 34 29 25 33 47 61 76 75 93 62 48 22 37 28 35 50
35 35 38 56 68 98 90 100 83 50 43 23 20 13 15 21 15 11 12 14 12 13 19 28 37 36 34 46 57 59 48 55 81 98 97 92 77 36 22 22 29 42 52 47
28 36 70 64 63 74 65 49 67 33 22 12 14 9 12 28 19 19 16 16 14 19 30 31 26 40 47 70 72 68 71 74 88 88 91 74 21 16 21 31 48 51 43 53
89 51 33 30 21 19 19 22 24 22 10 8 10 8 8 11 21 23 24 19 23 25 24 22 22 32 48 81 93 88 61 82 84 88 48 21 17 26 39 49 45 44 66 86
100 93 29 15 17 18 18 15 15 13 13 11 10 9 9 10 16 18 21 23 24 25 22 22 19 35 46 46 43 79 93 79 65 36 17 22 35 47 47 42 52 75 97 99
82 92 33 21 22 20 11 9 10 10 13 16 17 19 25 28 27 25 23 24 23 23 23 22 26 27 18 10 42 31 17 15 14 18 27 40 48 45 44 66 94 97 92 91
29 45 41 21 19 15 10 8 9 15 22 28 31 30 32 34 32 30 28 27 25 28 31 25 12 10 10 8 8 10 12 15 23 35 48 50 43 54 86 99 97 94 87 73
26 45 30 20 22 23 9 17 35 28 23 30 35 44 45 38 36 35 34 37 36 25 12 11 11 9 8 9 10 13 18 28 47 54 49 50 58 87 94 97 92 76 49 18
47 56 30 30 28 43 18 7 8 13 21 36 45 44 43 42 40 38 31 18 12 12 12 10 9 9 10 11 13 19 37 54 56 52 45 59 86 90 92 82 63 26 7 5
46 40 51 68 46 21 9 8 8 14 22 26 33 40 38 35 23 16 15 15 15 13 13 13 13 14 14 18 28 46 56 54 40 37 62 86 88 84 72 46 12 5 5 6
48 42 55 68 42 16 13 11 10 13 18 24 25 19 16 16 16 16 15 16 17 18 18 18 17 18 22 34 52 56 44 33 40 70 85 84 78 62 34 8 5 6 6 9
75 56 46 58 46 27 19 16 15 15 14 14 15 16 16 16 16 17 18 18 19 23 25 24 24 24 39 53 53 37 35 55 84 90 85 73 49 18 6 5 6 6 8 15
98 91 67 48 42 32 25 24 20 19 18 18 18 18 18 18 18 19 21 26 37 41 37 30 30 46 54 45 38 50 76 87 88 81 62 36 10 6 6 6 6 7 10 18
95 94 75 58 64 41 31 34 33 28 24 21 19 20 21 21 22 23 33 52 56 52 38 37 49 50 42 48 71 88 90 86 74 54 30 9 6 6 6 6 6 8 10 17

GFSCGP_500_rhum_066.txt.gz
RH
53 67 49 53 54 68 80 98 80 58 79 68 51 68 66 80 72 63 38 23 27 27 20 18 17 17 16 15 15 15 14 11 12 41 68 53 30 21 29 20 22 23 23 20
55 61 53 46 57 81 99 100 99 99 84 68 73 44 75 69 77 64 57 30 24 20 25 22 14 13 12 12 13 15 19 28 47 54 46 26 23 26 21 22 22 19 15 15
49 58 57 57 54 69 81 82 81 76 72 71 65 52 50 66 62 49 49 50 24 23 21 20 16 14 16 16 18 22 26 34 36 30 29 43 50 25 20 18 16 14 16 16
56 57 67 74 67 69 69 72 59 35 29 39 42 62 45 62 69 68 71 46 50 64 54 25 18 15 16 17 19 20 21 23 42 54 51 77 86 46 20 19 16 17 16 16
47 52 55 69 62 61 58 59 61 60 59 35 50 43 33 28 51 66 62 44 32 50 53 59 46 40 63 40 47 38 21 39 59 80 52 80 75 63 18 17 17 16 15 14
31 47 43 59 57 55 61 62 55 56 52 42 52 33 28 51 63 68 60 63 60 41 44 55 32 52 67 42 65 54 42 72 75 58 63 85 76 32 19 24 15 14 14 14
28 48 36 45 58 59 64 58 62 62 62 48 52 48 43 66 57 62 49 48 62 32 37 37 22 33 38 58 76 90 88 86 90 48 43 62 40 17 31 21 16 15 17 22
21 46 46 47 59 70 67 62 64 63 59 52 59 44 54 57 59 65 51 40 33 32 29 21 17 23 41 54 84 96 57 21 19 24 44 41 19 34 35 17 18 22 33 35
32 27 44 47 61 60 65 64 74 81 57 43 38 41 36 46 50 68 69 62 44 35 18 18 20 19 30 46 85 52 20 20 22 24 31 23 29 46 19 15 29 50 30 39
32 33 44 41 47 59 70 72 74 65 62 51 39 45 36 44 65 46 55 49 27 28 20 19 20 19 19 22 51 30 24 24 23 24 27 32 35 21 16 30 53 28 18 30
20 25 33 37 48 64 80 79 77 74 64 44 31 46 40 55 47 36 38 41 19 26 34 38 26 22 26 30 38 42 31 28 29 32 31 29 25 26 56 62 60 60 55 39
23 21 21 29 50 55 60 61 74 68 57 46 43 36 43 54 31 18 16 16 21 37 51 74 66 58 56 56 78 59 39 36 36 35 40 44 72 75 91 78 64 99 84 44
25 22 25 29 37 36 40 57 66 57 61 58 70 15 18 29 21 23 34 32 46 34 18 42 66 77 82 61 62 65 58 53 68 83 78 80 76 100 66 61 85 100 43 22
26 23 24 24 32 58 65 65 76 68 59 41 26 42 41 24 15 18 18 19 21 21 20 18 21 34 39 44 62 72 75 93 92 82 74 73 84 84 82 73 70 36 22 38
29 27 29 29 34 62 65 73 58 50 61 34 34 16 11 9 7 9 18 20 20 26 25 23 31 36 35 43 59 74 81 95 92 78 63 91 100 77 52 66 37 26 44 50
34 31 38 44 40 48 72 50 59 30 17 14 12 6 7 10 10 10 12 18 28 26 28 30 29 25 37 55 61 66 76 82 59 67 80 92 65 77 68 28 32 50 51 47
53 46 58 77 87 43 27 29 25 19 19 13 6 7 10 13 13 13 14 20 20 24 24 22 22 23 25 45 53 60 60 19 25 44 43 49 42 20 29 44 55 50 50 52
44 43 52 86 88 46 10 16 16 16 11 8 7 8 15 21 24 25 26 26 27 27 26 28 28 26 27 21 14 12 10 10 10 11 13 16 21 40 55 56 51 44 50 82
59 47 45 46 62 48 10 14 19 14 9 7 14 18 25 28 25 24 28 28 28 30 35 32 30 22 11 12 12 9 9 10 12 14 17 30 52 58 55 44 39 58 87 84
38 57 48 31 30 20 16 18 37 32 10 11 14 21 23 25 24 24 30 33 36 36 35 25 13 13 13 11 11 12 14 15 16 23 38 55 58 45 35 41 80 88 79 71
38 44 44 40 35 32 16 18 43 38 13 7 8 11 18 23 27 29 32 34 29 17 13 14 15 14 16 16 17 18 20 21 28 40 52 48 36 35 63 86 83 79 63 32
35 48 43 50 52 43 43 58 47 18 10 7 7 10 18 24 26 27 24 15 15 14 14 16 18 19 20 25 30 28 27 32 39 47 41 38 53 80 85 83 79 55 30 13
41 40 52 62 44 38 52 64 40 19 14 10 10 12 16 18 15 14 15 14 15 16 17 20 24 31 40 44 40 36 41 46 46 41 48 75 86 87 85 73 53 32 13 8
34 56 80 70 54 49 65 70 55 29 19 16 14 15 16 16 16 16 16 17 18 20 21 22 27 37 48 50 48 46 47 44 47 66 82 87 90 87 74 55 31 16 8 8
58 99 97 94 76 72 61 61 49 38 27 24 21 20 21 21 21 21 21 22 24 24 25 28 36 49 55 57 54 48 48 58 75 86 92 94 89 75 53 24 11 9 10 10
72 93 99 97 100 98 99 75 54 48 37 30 30 31 32 32 32 33 34 37 37 37 36 42 52 63 66 63 56 61 70 80 92 96 97 92 75 49 24 12 9 10 10 11

GFSCGP_500_rhum_069.txt.gz
RH
42 40 45 48 43 56 65 78 69 41 55 100 84 89 95 96 63 44 46 36 37 51 56 84 77 65 63 70 63 61 56 43 22 12 14 22 43 52 60 65 28 21 23 25
43 41 50 51 54 62 75 81 82 50 57 90 73 70 84 94 87 51 39 32 28 33 30 23 22 22 21 23 28 25 19 16 23 14 42 61 46 33 48 29 22 23 24 18
40 41 43 45 46 56 70 72 69 75 79 80 78 54 78 82 70 51 56 39 27 20 19 20 19 19 18 16 17 17 17 20 40 58 45 40 23 48 46 25 23 22 18 17
36 47 56 47 40 49 66 61 51 54 74 74 54 56 66 84 77 90 90 46 38 28 21 17 14 12 11 12 13 15 21 24 29 38 41 40 55 77 90 58 20 17 19 17
35 48 76 60 49 49 60 72 76 67 50 37 39 32 46 63 88 86 100 97 66 40 40 29 20 19 20 29 21 24 25 25 28 64 79 67 73 98 96 80 19 26 31 18
24 42 77 67 53 50 56 62 67 71 79 76 65 47 36 43 73 75 84 96 92 48 55 46 37 50 50 56 56 47 62 36 58 93 86 91 73 97 96 38 20 38 35 18
16 27 46 62 51 49 55 50 59 64 66 67 64 52 56 53 57 80 89 73 70 81 68 47 37 40 34 58 68 54 73 65 80 94 98 68 50 90 87 29 32 50 25 23
20 20 32 53 64 56 63 58 52 51 50 55 52 40 57 75 54 42 62 72 45 75 55 44 41 39 35 52 61 88 93 95 97 58 20 22 39 64 59 34 38 37 26 35
20 23 24 40 63 66 67 70 67 58 51 47 44 44 38 47 46 57 51 68 63 59 39 31 24 18 18 34 66 72 90 85 86 56 24 26 53 47 55 87 74 37 42 65
21 27 28 35 48 66 62 65 66 59 53 55 44 39 34 46 46 60 66 64 53 51 33 30 20 18 19 21 35 46 69 50 27 32 27 38 46 44 52 64 69 80 86 91
22 26 26 27 29 52 64 66 68 68 61 56 51 45 36 45 41 47 52 49 47 54 37 36 24 21 20 21 25 36 51 53 67 41 29 29 37 50 89 98 85 93 99 100
23 25 25 29 33 34 39 48 75 76 68 62 55 42 51 45 46 52 32 26 19 18 16 22 52 88 66 70 70 66 72 69 62 53 58 65 76 96 98 79 97 87 100 100
22 16 20 26 31 27 32 41 55 63 56 44 42 37 55 28 18 28 30 22 18 17 15 14 14 18 78 99 100 83 72 67 74 82 86 97 98 96 94 92 97 100 100 88
21 19 18 22 34 51 45 37 42 54 52 63 61 64 43 30 23 24 19 13 16 20 21 21 18 16 31 32 32 52 60 83 92 98 99 98 98 98 94 82 100 100 73 31
22 22 21 22 27 30 30 29 36 51 63 58 56 36 34 19 11 8 7 6 7 7 16 20 21 24 23 27 36 74 85 94 100 98 100 98 80 64 93 98 99 77 25 87
31 34 27 27 29 29 34 36 32 62 59 46 48 13 18 10 7 8 9 10 8 7 8 12 21 24 28 34 60 79 82 86 81 83 92 52 17 100 48 20 13 32 71 42
39 35 34 32 41 45 34 46 36 37 41 45 34 16 9 8 8 11 17 19 20 19 18 17 20 22 22 24 34 46 62 38 25 25 24 12 9 11 12 16 19 26 40 53
53 43 38 45 45 35 25 46 20 23 21 18 14 10 8 9 12 18 21 23 23 23 24 25 27 28 28 30 29 35 27 12 10 10 12 13 14 16 18 21 29 43 46 38
79 72 57 41 32 31 21 32 27 18 12 19 18 12 8 11 19 20 20 24 23 26 28 28 29 31 33 31 16 13 12 13 15 16 18 23 25 24 27 35 44 42 39 54
55 61 52 46 36 20 30 32 29 16 10 40 26 18 8 7 8 12 20 27 28 28 30 31 28 19 13 14 15 16 17 18 23 30 34 33 32 35 38 42 40 48 70 83
72 39 41 42 33 24 37 31 34 20 31 22 26 13 7 6 7 11 20 26 30 32 23 14 14 14 15 16 18 21 26 33 36 42 43 44 44 42 41 46 62 79 85 86
83 60 43 35 28 26 49 55 44 42 44 43 27 13 9 8 9 13 20 24 18 14 14 14 15 16 18 19 22 26 28 31 40 48 53 52 46 47 58 71 81 86 86 84
95 96 82 64 44 45 54 54 41 43 59 54 31 17 12 11 11 11 12 14 14 15 16 17 19 21 22 24 29 34 40 48 57 61 59 53 59 69 74 82 87 90 86 73
95 99 91 84 61 57 69 66 43 49 62 55 52 27 18 17 16 17 17 17 18 18 19 22 25 29 32 35 40 45 54 62 68 66 65 76 78 81 87 88 87 84 73 59
96 99 89 92 67 66 98 96 74 66 55 52 50 41 27 24 24 26 27 27 27 28 29 36 42 43 44 45 49 54 65 74 76 81 83 83 88 93 92 90 86 77 60 37
75 86 99 85 91 92 88 100 95 86 80 75 64 58 47 39 35 33 33 32 34 37 41 39 43 54 57 57 63 78 85 90 90 86 85 91 92 91 89 86 82 63 38 18

GFSCGP_500_rhum_072.txt.gz
RH
18 30 34 49 43 54 70 76 81 97 35 64 84 87 88 84 86 43 42 41 85 91 90 88 95 97 91 84 77 82 84 76 68 42 36 46 42 37 48 53 74 92 23 23
17 33 37 36 37 53 68 73 84 50 38 74 84 88 90 88 76 61 42 33 30 47 74 61 64 63 62 65 58 48 39 54 38 23 23 33 38 44 58 74 85 34 23 25
13 30 35 33 34 43 58 65 64 53 52 65 67 76 93 83 79 60 62 32 27 25 26 31 24 24 26 31 31 38 32 24 26 36 30 52 63 63 42 75 67 27 26 24
12 31 40 32 39 40 50 55 53 43 51 100 72 100 69 74 77 72 74 58 33 22 19 20 18 17 18 16 16 15 14 16 22 34 54 46 39 36 37 60 67 50 27 18
16 30 39 32 44 47 51 58 54 64 44 41 39 56 98 64 84 90 87 86 67 37 23 20 17 14 13 13 14 17 19 21 23 22 28 40 49 53 68 93 98 93 32 19
12 21 49 43 42 52 50 52 56 58 63 69 65 53 97 84 63 76 87 95 89 71 46 31 31 31 32 31 31 54 44 54 55 34 37 63 80 87 86 91 98 97 33 26
13 16 46 52 48 55 53 61 91 66 56 91 59 64 80 53 62 70 82 98 98 86 59 76 62 51 36 38 36 50 67 43 57 44 66 95 97 97 78 46 88 94 60 27
15 13 19 41 56 63 68 67 100 91 83 99 48 43 61 57 54 53 59 82 78 71 46 76 75 50 40 43 40 52 66 65 69 67 74 92 41 26 31 50 74 55 52 70
16 16 20 22 32 52 61 72 72 69 63 58 53 44 46 41 36 47 39 60 72 72 64 58 60 54 38 30 26 35 65 70 80 98 90 78 82 52 32 53 62 47 52 55
20 20 23 22 27 30 51 69 75 65 62 58 68 50 52 46 35 41 36 42 54 70 57 51 49 45 22 20 21 22 52 47 50 74 41 29 37 35 34 45 49 78 90 97
17 18 22 25 23 32 33 56 67 77 68 68 58 62 48 56 42 35 37 41 57 57 55 60 46 30 23 22 21 21 25 38 53 60 64 76 76 67 59 82 100 99 96 97
19 20 22 28 26 26 36 40 60 55 83 64 65 50 56 54 61 47 43 43 41 40 34 22 26 26 28 46 36 36 54 75 84 88 80 62 53 70 89 97 99 98 100 100
24 21 26 30 25 25 24 28 38 41 54 59 52 36 46 52 59 56 23 22 32 27 19 15 15 17 22 48 71 89 93 94 98 80 66 55 77 92 99 99 99 98 97 100
39 32 26 22 30 36 32 36 38 51 66 39 31 37 71 80 69 34 22 24 21 17 11 8 8 12 18 17 16 20 32 31 34 60 64 96 96 99 98 99 94 28 72 100
37 26 22 22 33 40 31 31 33 34 31 36 31 52 64 58 46 30 14 8 6 6 7 8 7 8 15 17 16 18 22 34 54 53 73 95 97 90 95 96 33 60 98 99
43 37 24 22 23 33 31 29 30 28 28 28 46 38 51 26 14 9 6 7 8 11 15 14 12 10 12 21 20 20 32 62 61 69 98 78 29 36 32 14 11 13 34 14
56 48 32 24 27 32 21 20 33 56 49 27 27 35 39 22 11 6 6 9 13 18 22 25 25 25 24 25 31 63 38 34 57 54 59 33 14 12 13 16 18 21 22 24
73 63 45 37 35 27 21 30 50 60 33 22 28 29 21 15 10 7 8 16 20 20 22 22 24 27 30 35 36 45 60 58 53 34 15 14 16 18 24 31 34 35 38 41
83 79 62 51 37 35 22 22 40 61 38 24 21 18 15 13 10 8 9 12 14 20 24 23 25 28 33 39 43 42 36 18 15 15 16 18 23 29 35 37 43 47 50 47
97 97 84 78 56 29 24 35 41 43 22 49 40 27 27 23 19 9 6 7 10 19 27 30 29 31 33 27 18 16 16 16 17 18 21 27 32 38 42 48 55 56 52 53
97 98 93 80 52 37 23 36 43 36 34 28 22 22 24 24 16 9 7 7 9 16 25 29 28 17 14 14 14 15 16 18 21 24 27 33 39 46 54 59 63 60 67 76
88 96 92 84 60 48 35 42 42 52 46 35 25 25 39 30 16 10 8 9 12 17 16 14 14 15 15 16 17 19 22 24 27 33 37 42 47 54 66 70 72 79 80 78
95 82 90 86 82 70 53 54 46 48 48 47 44 47 58 42 22 14 13 13 12 13 15 15 17 18 19 21 23 27 32 38 40 41 46 51 63 75 81 86 86 80 80 81
96 99 90 96 88 85 80 71 57 55 61 45 38 35 55 53 45 23 19 19 19 19 20 22 23 25 29 34 38 37 37 44 55 58 62 74 89 91 90 85 82 82 83 82
89 94 86 89 100 100 98 96 72 58 72 84 53 34 40 49 51 43 30 26 29 31 32 32 32 34 37 39 40 44 61 69 70 76 88 98 95 90 86 82 85 87 88 86
60 72 75 75 85 95 95 94 90 62 82 96 97 69 75 85 63 57 52 49 49 48 46 48 52 54 59 64 76 85 84 89 96 100 100 93 89 90 89 85 84 96 92 87

GFSCGP_500_rhum_075.txt.gz
RH
18 14 24 72 91 54 100 96 100 96 98 48 94 98 92 84 83 53 83 32 92 81 94 97 97 95 74 63 63 77 99 97 88 48 34 34 42 57 55 70 78 87 96 81
21 11 27 36 33 46 55 98 100 99 95 46 78 98 98 69 71 60 37 27 24 45 89 73 76 85 90 75 69 65 71 74 62 40 36 47 50 54 62 61 65 74 96 66
20 21 19 26 30 37 54 100 100 98 94 58 60 81 100 97 56 72 58 43 23 23 29 52 46 30 33 37 43 45 46 68 66 51 38 33 32 51 51 56 66 85 97 33
26 14 17 29 31 36 90 71 49 42 45 99 87 100 82 100 58 64 62 58 45 29 19 18 18 15 14 14 15 15 16 21 27 38 49 40 37 51 55 58 42 82 93 67
33 17 14 26 35 36 75 46 45 40 58 100 96 72 93 93 88 91 80 72 74 65 44 29 20 16 15 14 14 14 15 16 18 26 35 31 43 41 64 38 46 82 96 97
28 18 12 23 33 37 42 47 47 43 68 95 99 86 98 98 97 97 100 78 57 58 68 65 53 34 31 27 25 24 51 64 46 44 39 30 22 33 50 59 72 81 87 94
29 18 14 15 32 38 47 52 90 100 100 77 97 53 90 94 97 34 66 79 75 67 78 70 45 66 70 62 45 44 45 45 69 50 57 59 35 35 77 95 98 90 86 96
31 27 14 14 31 42 52 91 99 100 97 100 89 42 87 67 38 35 53 56 61 69 74 64 52 63 46 45 39 40 45 40 60 61 69 97 99 76 96 32 70 91 75 68
32 25 43 21 28 48 99 72 95 96 81 63 95 94 62 56 48 37 38 55 50 54 70 72 53 50 51 49 31 22 20 20 43 71 62 82 66 47 35 32 31 44 58 72
37 69 60 21 21 22 36 69 77 81 95 94 98 99 87 94 58 45 39 37 40 45 59 69 62 54 39 37 29 22 21 21 22 29 31 40 56 46 47 49 60 83 85 89
38 30 99 20 17 19 24 30 65 100 99 100 98 94 94 96 76 55 49 39 36 39 53 69 69 55 57 41 27 22 21 21 21 22 26 38 44 51 71 78 69 73 85 96
29 26 87 24 21 23 100 87 96 100 100 100 98 80 98 81 79 54 53 55 45 38 41 51 48 34 25 34 32 35 37 29 29 37 48 73 91 92 84 71 66 87 98 99
37 35 32 96 35 18 25 42 98 94 100 95 90 57 98 94 57 62 64 60 51 34 42 37 26 19 16 17 20 26 38 62 79 78 100 98 98 71 57 78 98 98 98 99
45 42 33 23 45 65 21 25 52 99 94 36 53 98 94 96 96 100 91 92 33 20 19 18 14 10 8 8 12 20 20 24 29 31 40 58 41 56 78 94 98 88 84 98
53 45 44 36 91 100 98 64 25 40 52 80 56 98 90 100 100 78 93 94 38 16 8 6 6 8 10 10 8 11 13 17 21 42 50 62 65 71 88 98 89 30 37 30
74 56 46 39 44 96 92 62 41 86 94 36 54 88 98 100 84 42 27 19 12 6 6 8 11 15 18 20 18 15 14 21 36 38 69 80 100 100 89 71 23 31 21 15
89 68 53 40 54 72 86 16 25 28 40 30 34 61 100 100 87 29 14 11 6 7 8 11 17 22 23 24 23 27 28 36 77 100 96 97 92 82 52 15 14 17 20 28
91 83 71 56 44 38 29 28 28 24 30 40 65 24 36 55 36 35 18 10 7 8 16 21 22 23 22 19 22 27 32 44 76 91 89 82 59 23 16 17 20 25 34 38
99 99 94 60 46 42 37 27 28 40 40 38 53 33 39 29 26 19 14 11 9 9 9 13 19 24 24 23 24 31 49 56 45 36 27 16 16 17 19 23 26 33 40 46
97 98 96 92 72 55 42 33 36 52 46 47 67 58 16 12 13 17 15 16 12 7 7 8 12 21 27 29 30 29 24 16 15 16 16 17 19 22 27 32 38 44 53 59
99 94 89 92 95 78 60 43 39 45 40 70 45 30 23 21 16 22 22 20 11 8 7 8 11 17 25 30 29 16 15 15 16 18 20 22 26 31 37 44 49 54 60 77
98 99 86 93 96 89 80 76 61 58 47 43 36 35 33 26 20 18 23 29 21 14 9 8 12 16 15 14 15 15 17 18 20 22 27 34 38 41 47 56 61 70 89 93
90 97 100 99 98 96 98 99 93 67 58 44 42 37 41 41 32 28 41 44 31 20 13 12 12 14 16 17 19 21 24 28 32 34 35 39 46 62 68 74 85 91 85 82
95 98 86 95 91 99 97 99 98 78 66 64 51 44 44 38 37 38 44 53 47 35 23 19 19 21 23 26 29 31 34 39 46 50 55 65 76 83 92 92 85 76 83 82
84 97 92 88 92 100 91 96 100 96 89 79 60 50 55 57 59 52 45 44 51 50 42 33 27 27 31 38 44 48 52 69 70 66 72 85 97 95 78 79 81 87 93 93
67 75 77 88 100 92 99 91 95 98 100 95 84 65 59 66 82 87 80 73 90 88 59 55 61 64 69 74 72 68 69 72 87 95 96 97 100 100 100 97 96 93 95 92

GFSCGP_500_rhum_078.txt.gz
RH
54 39 15 18 60 60 79 87 99 100 93 92 71 59 99 90 72 39 42 53 34 45 80 61 96 100 96 90 89 90 96 95 97 98 95 87 89 96 94 92 95 88 80 83
68 40 14 15 90 59 44 46 62 91 99 66 51 66 95 84 63 28 45 28 25 22 56 70 96 94 93 91 91 97 96 94 72 56 22 29 36 45 47 63 64 65 61 78
83 44 21 18 32 29 28 40 85 95 97 90 64 68 93 90 97 58 30 49 26 21 20 28 48 41 53 37 25 25 28 57 51 40 29 30 26 51 57 63 96 69 67 70
90 46 26 20 24 27 27 67 89 66 77 98 90 51 80 89 72 66 58 48 48 49 46 19 15 13 11 11 11 13 12 12 20 14 42 45 38 33 32 35 52 58 68 82
78 49 25 15 20 28 30 51 42 37 35 84 86 63 100 96 69 97 58 90 50 55 48 54 38 34 25 18 14 14 14 19 27 20 23 29 43 29 44 55 64 44 65 60
74 51 35 18 16 24 32 34 42 40 37 41 96 91 92 95 96 100 78 61 46 45 40 54 56 47 60 45 49 43 44 48 44 56 55 52 54 52 46 29 47 67 85 88
63 51 39 20 12 23 32 41 46 49 61 66 94 68 99 95 88 92 56 35 34 32 28 54 60 54 66 73 47 41 41 42 44 53 57 57 52 63 88 73 58 82 97 94
89 59 36 23 11 20 38 45 44 74 90 97 98 77 91 98 76 42 37 41 44 44 46 39 48 55 41 47 54 41 30 27 25 24 54 58 64 71 74 74 86 85 82 74
88 54 48 38 16 21 56 45 47 75 98 81 80 89 96 71 90 51 48 40 35 36 62 45 57 44 55 48 32 34 27 20 18 17 24 47 57 39 46 62 66 40 44 62
96 91 85 70 38 21 40 100 88 83 78 89 61 97 90 92 99 92 63 41 37 34 42 47 53 60 53 60 48 40 32 23 20 19 20 21 31 26 33 56 51 55 75 85
98 100 100 100 66 27 26 31 48 67 92 82 50 88 81 68 97 82 94 57 41 40 36 39 61 78 70 61 70 48 44 33 22 16 20 22 32 52 64 65 68 89 93 67
97 100 87 100 72 41 25 27 38 42 98 99 68 98 100 100 99 83 78 55 50 41 42 41 38 48 55 48 34 15 18 18 13 12 13 36 71 85 80 83 86 81 57 79
96 97 98 97 100 82 23 53 90 94 82 66 91 81 78 79 70 46 71 65 58 42 31 34 30 40 37 27 20 15 16 22 19 17 50 77 75 79 93 65 75 59 82 90
98 97 90 81 92 68 48 45 86 96 100 80 74 86 84 93 98 93 62 70 94 94 49 24 11 15 16 13 10 7 6 13 43 27 38 62 94 77 72 100 92 87 86 98
97 98 99 98 76 100 75 45 33 24 38 60 52 86 78 99 98 79 84 83 77 99 61 18 14 7 5 5 8 12 16 21 43 57 64 51 69 80 96 100 93 100 100 93
96 96 100 99 79 70 99 100 96 40 23 42 86 75 85 70 91 85 96 79 52 43 39 11 7 7 7 9 14 20 26 45 65 54 56 70 85 72 89 99 100 96 79 37
94 98 68 63 83 79 84 97 100 100 84 78 88 91 89 100 100 98 93 70 26 18 10 9 8 8 8 13 20 31 29 30 28 26 38 54 79 99 97 96 88 65 30 23
95 100 86 100 76 60 60 60 72 78 40 40 61 69 58 61 71 70 68 31 33 15 12 8 7 8 12 19 23 21 21 19 19 36 61 74 88 85 64 43 20 20 21 22
100 96 94 88 90 65 58 62 53 41 30 29 25 31 60 80 69 57 32 31 33 30 16 10 10 8 8 8 9 13 18 20 22 31 31 29 27 26 19 17 18 19 22 25
99 100 96 100 95 84 62 55 47 41 35 38 37 41 39 36 28 20 15 14 15 16 16 16 15 11 7 6 8 10 16 22 27 27 20 15 16 16 17 19 22 26 32 42
97 100 88 100 95 85 87 89 72 57 45 68 66 75 63 33 25 24 20 13 10 17 22 20 17 15 10 8 10 13 19 22 18 14 15 16 17 20 23 28 36 46 51 53
100 99 96 100 94 87 99 96 89 76 71 60 72 67 54 40 34 30 27 28 20 15 17 29 29 25 17 13 10 10 12 13 15 16 18 20 25 30 34 37 43 53 66 84
95 89 100 100 96 94 99 97 98 95 95 84 67 59 46 37 36 37 36 41 38 34 45 51 46 39 26 20 16 14 16 17 19 22 25 29 31 39 58 69 78 78 84 100
99 98 97 97 90 100 100 95 99 97 99 89 73 66 52 42 44 40 36 45 42 39 39 42 53 51 50 44 35 26 24 25 31 42 55 61 63 62 69 84 96 100 100 100
100 100 97 94 99 98 97 98 98 98 90 89 86 80 70 60 62 56 44 45 55 72 81 55 44 64 84 83 52 48 59 71 82 92 87 86 89 95 99 100 100 100 100 100
83 93 90 84 94 98 96 97 91 91 82 99 98 97 98 95 91 81 70 65 58 73 76 84 75 74 90 92 79 91 95 94 99 100 100 100 99 100 100 100 100 100 100 100

GFSCGP_500_rhum_081.txt.gz
RH
89 67 59 37 19 17 22 43 74 49 86 97 92 52 55 89 64 43 35 47 25 39 56 90 100 77 47 54 70 66 62 72 66 65 73 88 88 90 77 90 97 98 97 97
66 73 62 39 24 12 29 48 33 48 88 90 69 61 59 74 85 75 69 52 33 20 45 53 79 75 75 78 86 94 94 86 55 43 87 93 96 92 86 89 87 77 90 94
79 88 79 51 30 13 15 29 42 55 76 67 71 60 88 81 59 90 59 50 38 30 23 28 24 35 36 19 42 47 72 50 39 25 20 18 20 43 52 52 80 93 79 93
58 98 86 69 36 15 15 39 48 47 53 56 61 57 63 54 58 70 78 77 76 40 32 27 21 15 12 17 22 14 9 11 14 14 29 32 28 17 26 35 32 38 52 67
57 93 96 78 39 19 14 36 29 33 38 38 69 86 82 90 69 58 39 33 53 60 40 31 39 33 18 17 24 30 35 30 33 37 42 34 33 38 42 32 28 30 61 54
52 94 98 86 44 19 14 29 31 36 37 33 67 94 80 71 77 67 26 16 27 30 40 49 42 44 36 31 26 25 27 30 27 26 29 33 36 37 52 66 74 40 38 58
53 63 87 80 49 24 13 23 34 41 37 35 50 74 62 94 64 68 41 29 23 21 30 43 51 66 54 51 48 30 25 23 22 23 23 26 40 51 62 66 64 80 70 84
67 73 95 75 69 27 19 19 34 36 43 75 63 81 100 84 93 90 88 54 33 17 20 28 42 48 66 45 38 29 24 23 22 22 17 15 41 49 52 71 61 89 98 78
72 66 98 84 58 30 22 17 43 58 47 95 99 79 97 89 91 100 74 74 48 34 29 23 26 52 56 71 65 39 36 31 23 19 17 21 27 37 21 30 78 92 93 58
76 96 88 92 70 38 34 33 61 80 98 83 95 88 94 87 94 95 97 60 56 34 33 33 32 31 33 60 83 90 71 67 42 36 22 20 18 22 47 24 62 88 89 73
84 91 84 97 78 39 48 24 74 97 86 60 77 93 94 96 100 88 98 74 66 62 41 46 38 32 32 63 85 72 90 83 60 65 22 24 25 32 50 29 74 82 88 98
63 100 95 96 90 59 63 60 35 91 83 99 67 63 84 83 88 99 95 84 64 40 27 29 40 37 31 31 53 65 67 59 53 41 42 60 36 64 75 73 74 98 98 90
84 85 98 98 80 58 77 68 55 46 61 45 58 63 96 99 91 99 77 67 92 69 60 53 29 33 29 26 29 52 41 44 54 46 32 35 33 83 89 96 97 92 98 98
69 62 82 76 77 72 89 70 84 51 32 52 69 49 98 99 99 97 98 80 93 62 80 82 23 26 18 15 17 21 34 50 38 20 40 26 49 51 96 98 88 79 89 85
61 53 99 92 86 95 97 78 73 58 28 88 77 97 80 86 93 95 73 80 59 56 83 54 17 10 11 8 6 6 8 33 32 37 59 79 68 80 87 82 94 96 98 96
42 51 99 100 96 94 98 86 89 68 64 78 86 76 80 79 92 89 100 90 78 69 72 52 23 18 6 9 6 7 10 14 43 49 42 40 53 67 64 89 96 100 100 100
56 46 98 97 99 99 90 98 71 72 99 69 55 43 64 94 90 77 93 57 73 76 65 51 31 17 12 12 6 9 21 40 26 31 40 38 42 46 56 74 69 79 80 45
76 95 100 97 100 89 69 77 95 99 89 100 100 78 74 96 76 72 79 96 83 42 39 24 16 15 11 9 8 11 15 22 21 18 15 20 24 32 33 27 27 25 21 19
100 100 98 100 95 78 71 59 73 100 88 92 78 50 57 61 65 39 46 39 29 39 29 26 23 29 19 11 11 15 11 8 15 7 8 14 16 22 26 22 17 17 17 18
99 100 100 99 94 87 74 66 60 83 77 75 53 63 45 66 61 40 27 20 33 27 15 26 28 16 19 20 19 14 12 13 10 9 10 13 17 18 14 14 15 17 19 22
91 98 88 100 83 86 80 96 91 71 63 76 68 47 37 34 34 34 34 33 27 26 17 12 10 15 21 17 17 25 24 18 13 10 11 11 12 14 15 16 19 23 30 38
82 100 99 100 85 85 90 98 91 83 78 91 85 82 74 58 53 49 40 32 32 31 33 33 25 16 17 30 38 39 34 25 20 16 14 15 16 18 22 28 34 40 50 64
72 77 98 98 74 83 100 99 96 95 94 91 85 73 65 65 70 58 51 43 35 34 35 33 34 40 41 46 50 50 50 50 55 44 31 26 27 33 46 69 81 83 82 86
67 99 96 96 100 100 99 100 98 97 99 99 88 82 82 76 66 60 54 44 37 40 46 39 47 50 56 69 62 44 45 69 88 86 54 58 80 84 87 96 100 100 100 100
68 86 98 100 100 96 92 95 97 97 94 96 100 94 92 96 93 87 83 74 68 68 69 63 51 58 61 70 73 79 79 84 99 100 88 90 91 94 95 98 100 100 92 89
65 65 84 100 100 98 99 93 96 98 99 100 99 100 96 84 87 96 97 84 78 78 74 72 72 64 67 73 67 84 84 83 87 95 97 98 100 100 100 100 100 99 97 99

GFSCGP_500_rhum_084.txt.gz
RH
30 31 43 72 53 33 18 16 17 24 29 37 75 50 48 44 68 83 88 46 26 28 53 86 83 49 47 44 54 69 60 85 74 69 58 58 85 93 89 94 98 91 81 74
18 20 74 71 64 39 21 15 20 18 21 31 76 64 58 55 81 79 68 44 30 26 36 39 34 56 84 69 59 67 72 73 62 52 55 65 80 78 84 90 98 100 100 95
19 59 69 66 77 55 31 15 15 18 28 23 31 47 55 66 69 71 67 68 36 34 32 18 22 24 24 60 86 79 75 65 45 38 52 62 80 90 92 84 89 86 96 90
18 62 43 69 86 77 45 23 19 22 21 29 49 44 42 30 48 50 51 69 61 53 51 41 26 14 19 18 16 19 24 28 21 26 30 27 24 26 30 33 32 34 47 66
24 57 61 78 93 91 44 28 24 24 24 29 44 40 56 37 51 49 48 46 48 33 36 56 45 42 29 25 33 33 29 29 32 36 30 27 31 33 28 30 30 25 31 48
26 63 58 58 91 90 43 32 29 24 24 21 38 34 65 70 62 58 30 37 37 31 35 39 57 60 52 50 38 28 30 38 28 27 34 36 35 33 34 46 51 61 51 33
35 31 49 62 81 82 60 31 25 26 19 21 36 25 63 92 69 46 39 34 32 29 30 31 36 51 64 43 50 38 29 27 26 24 22 22 25 34 40 47 48 50 54 58
34 38 50 55 69 98 73 41 28 21 17 28 32 30 41 72 53 36 48 45 39 30 36 34 33 29 42 58 42 39 27 24 23 20 19 18 16 22 46 36 24 36 32 84
32 28 57 74 99 100 79 57 40 38 20 21 32 78 66 66 59 64 46 41 53 54 46 28 28 35 37 51 59 58 36 40 36 29 22 18 17 38 47 43 30 21 40 80
32 35 60 90 100 93 87 81 56 55 26 18 30 79 66 86 71 86 78 87 86 88 56 48 35 34 42 49 71 86 86 87 72 69 47 36 29 22 38 41 55 52 27 62
34 36 55 100 82 86 81 67 55 64 39 21 28 40 80 70 54 93 83 73 66 70 58 54 29 22 30 35 53 85 95 98 83 66 52 61 40 22 26 43 50 64 62 77
53 68 63 77 100 87 79 65 56 36 36 27 56 42 62 80 69 60 59 53 89 76 62 38 41 34 27 24 30 44 67 84 84 76 53 60 51 74 70 43 64 96 98 97
62 67 81 93 99 94 90 66 66 96 42 59 99 58 60 77 78 94 97 87 72 62 44 35 52 76 44 27 22 22 50 68 66 59 72 61 41 47 30 30 70 88 97 97
97 73 65 42 65 92 97 80 63 100 72 31 70 65 43 69 97 94 99 86 86 90 74 49 60 65 49 32 12 13 13 17 23 46 32 30 33 44 60 71 92 97 94 81
92 61 59 56 91 100 100 93 86 91 92 61 36 32 33 63 92 98 92 95 100 90 76 54 55 51 55 19 14 10 5 6 7 8 15 48 63 70 77 85 90 66 58 80
84 88 75 60 66 88 92 98 95 93 97 93 77 35 63 83 71 68 78 97 97 81 62 36 54 52 32 18 9 6 6 6 7 11 34 44 34 37 40 49 43 35 49 52
98 87 83 67 68 100 98 86 83 96 88 91 83 56 78 71 92 75 82 74 49 61 46 28 31 42 43 16 9 16 18 11 9 28 37 38 26 28 20 20 22 22 33 33
98 92 82 57 57 90 58 85 87 100 99 95 70 86 73 68 38 59 64 63 58 48 32 50 52 39 31 20 14 19 17 20 28 37 35 20 19 15 9 11 12 14 17 18
99 100 98 90 60 39 52 100 94 97 97 91 89 98 86 99 90 76 58 59 56 45 45 47 38 29 25 21 21 28 24 22 27 23 23 34 22 11 10 11 12 11 12 12
99 100 100 99 74 43 49 98 100 98 95 98 99 99 78 92 100 82 56 39 35 34 42 48 40 22 21 28 30 24 17 22 19 20 28 26 20 17 14 11 11 11 13 17
100 92 83 94 90 68 79 88 100 96 91 100 97 97 83 95 100 99 74 35 28 28 36 33 30 26 18 14 12 12 19 16 20 30 34 36 31 26 23 19 17 18 22 26
100 85 81 99 98 81 100 100 94 86 95 100 95 86 99 99 81 67 54 44 36 38 42 36 34 34 35 36 36 30 26 32 40 45 47 46 48 61 60 39 29 29 33 43
100 93 96 86 93 100 100 97 93 100 100 98 93 98 92 95 80 66 55 51 44 47 46 46 40 37 42 42 40 43 50 59 66 61 50 53 67 87 91 77 54 56 76 94
97 100 98 82 89 92 100 95 99 98 98 96 97 100 100 100 82 70 65 62 60 58 61 62 58 48 55 62 56 55 66 69 85 100 97 95 94 89 92 99 95 94 100 100
97 100 99 92 100 95 94 92 83 100 99 98 96 99 100 99 96 89 87 86 84 88 91 87 80 77 82 80 76 76 77 75 81 84 85 91 95 96 100 100 100 100 100 100
75 84 87 93 100 89 100 96 99 100 100 100 98 92 90 90 99 98 97 94 92 82 84 88 85 85 83 84 85 90 92 93 100 100 100 99 99 97 100 100 100 99 98 99

GFSCGP_500_rhum_087.txt.gz
RH
31 19 25 75 89 64 59 53 30 18 34 26 26 40 28 48 50 57 71 39 27 29 43 46 62 55 20 27 49 47 44 47 65 64 69 80 75 81 93 93 90 99 96 97
28 16 64 77 80 49 65 65 40 20 43 23 20 25 25 41 51 55 64 40 39 27 22 34 24 76 72 63 55 69 57 55 65 60 55 55 69 95 84 88 94 94 99 96
24 29 61 67 68 38 72 74 47 24 33 19 15 24 26 36 44 66 64 43 40 47 30 21 25 36 86 96 80 66 71 64 71 64 57 61 73 72 80 79 87 79 74 80
26 31 35 36 49 55 66 79 80 47 16 13 21 17 27 30 40 44 40 55 42 50 36 34 27 18 30 28 64 57 33 27 30 48 67 73 73 74 76 80 84 82 88 92
35 43 42 38 58 74 89 97 92 61 22 12 28 28 38 28 41 47 38 30 29 34 40 39 35 36 23 30 24 25 26 22 27 26 22 18 20 23 27 34 33 42 49 56
42 42 45 58 94 92 97 92 89 79 37 16 22 33 28 28 49 46 32 28 27 28 33 37 41 35 42 32 29 33 36 33 37 35 29 30 33 32 29 32 33 34 34 35
31 30 33 66 82 97 64 79 74 70 52 29 20 22 20 35 30 43 43 24 27 28 32 30 31 37 44 36 36 36 29 27 25 24 26 32 36 37 33 34 40 49 53 56
24 28 34 40 52 82 78 91 86 88 60 26 20 15 19 41 24 37 51 32 26 34 36 31 28 29 36 48 37 31 26 19 18 19 20 19 19 17 21 27 30 26 31 35
22 22 37 59 84 96 80 74 88 93 80 36 19 14 24 23 30 29 51 43 46 56 67 54 32 28 38 61 74 62 49 32 39 33 29 24 19 18 22 40 45 44 38 24
18 21 28 51 85 80 86 100 99 83 70 40 29 16 18 42 47 42 47 52 61 67 78 70 46 46 30 53 56 83 96 91 88 94 71 50 36 34 29 26 24 36 36 52
11 19 26 58 57 70 85 93 89 86 78 54 37 25 32 39 58 64 64 47 62 53 60 74 62 62 34 35 57 53 75 98 98 97 82 78 61 61 58 58 65 57 72 73
18 14 19 35 79 74 97 96 100 93 78 61 39 26 34 43 48 66 66 64 79 66 60 63 56 39 48 38 39 37 39 69 95 97 95 90 57 57 55 49 60 66 63 70
34 10 19 31 65 68 84 100 100 100 100 72 47 32 61 59 53 67 78 56 61 97 90 74 57 54 66 66 35 32 35 43 80 97 96 82 61 60 58 46 42 49 61 91
98 39 14 14 40 72 94 100 100 100 89 69 43 39 49 100 76 38 46 87 96 100 94 83 67 56 77 67 43 35 19 15 16 26 23 29 36 29 40 62 90 94 97 98
87 85 49 22 36 83 99 100 97 84 83 75 55 55 40 77 88 43 52 99 100 100 94 86 56 57 52 56 34 34 18 13 7 5 6 7 8 13 47 62 61 72 79 85
100 78 67 27 46 87 100 96 96 89 82 81 80 62 62 54 49 33 45 85 100 93 95 83 66 48 60 68 59 25 16 12 8 6 7 8 21 36 44 45 44 60 51 34
100 100 96 49 70 91 96 63 85 83 83 84 90 75 68 67 41 44 67 76 85 83 68 63 44 38 50 47 47 28 19 10 11 17 19 22 36 46 46 44 42 41 24 47
99 100 100 93 97 93 51 76 86 93 91 92 91 91 93 89 56 27 53 89 88 61 51 60 50 30 42 35 39 33 29 14 14 21 37 46 46 45 31 42 39 21 20 14
100 100 100 100 95 66 56 62 73 67 54 99 96 88 97 93 71 44 29 52 35 33 53 65 66 34 41 35 20 18 19 15 16 30 38 35 37 39 37 32 26 23 21 17
100 100 99 100 89 55 57 66 81 89 70 97 98 100 99 92 92 86 79 54 59 50 59 47 43 42 46 34 28 17 15 19 22 26 25 26 31 25 21 33 37 34 30 30
68 92 96 100 100 88 66 77 71 72 76 100 95 99 97 99 91 98 100 91 82 62 56 39 36 37 36 33 30 28 24 28 31 32 30 18 15 24 37 43 44 43 44 65
58 59 71 100 98 99 90 80 70 68 100 100 79 97 98 98 97 94 100 100 98 68 48 35 40 57 45 44 39 34 36 38 39 37 37 39 47 56 60 56 51 46 48 61
36 60 100 97 100 90 88 72 79 83 94 97 97 97 97 97 96 99 99 100 98 92 88 92 94 70 50 54 54 48 45 48 54 48 45 50 50 55 68 81 82 81 84 86
35 69 90 98 100 100 100 94 98 100 99 100 95 100 100 99 98 91 95 99 97 96 83 77 71 72 86 84 82 81 76 74 78 74 71 68 68 69 72 79 85 88 94 96
58 69 95 99 100 100 94 93 95 99 100 98 100 100 99 93 100 96 100 100 95 86 90 94 98 97 95 96 96 88 86 84 83 86 84 84 89 90 96 100 100 100 100 99
70 61 83 94 100 92 100 94 100 97 92 100 99 100 98 100 99 99 99 95 95 100 100 100 98 98 98 95 87 88 91 93 89 79 75 81 85 95 100 99 99 100 100 100

GFSCGP_500_rhum_090.txt.gz
RH
38 32 25 51 42 60 69 19 47 61 42 33 24 23 28 42 54 65 52 70 45 28 23 37 35 77 36 22 28 37 37 47 53 61 81 89 97 77 61 84 96 96 96 94
40 39 34 46 47 49 58 25 48 61 53 44 30 26 26 32 45 62 65 59 37 30 24 20 25 90 86 39 33 57 52 44 55 70 65 97 86 96 85 94 98 96 96 91
46 38 42 42 47 59 44 40 64 68 64 58 42 24 22 27 38 75 84 58 38 32 29 24 16 29 89 86 65 71 74 73 64 68 68 61 69 85 84 78 86 100 95 96
44 35 35 40 34 60 42 68 76 77 77 69 56 29 22 24 39 73 72 65 40 34 37 30 30 17 22 57 82 76 65 69 68 67 64 67 71 79 100 99 99 90 98 96
63 46 32 32 46 52 60 77 79 75 68 57 58 40 18 23 43 54 45 45 41 30 35 31 32 33 23 28 24 27 33 27 28 53 73 75 75 87 86 74 75 77 74 70
62 61 46 40 51 57 98 81 69 58 65 33 48 51 22 27 52 49 59 39 27 27 29 36 38 44 46 35 31 34 37 32 27 24 22 23 42 56 63 67 66 65 67 79
26 42 42 40 52 70 82 78 56 44 51 25 54 62 41 27 30 49 69 55 24 24 24 22 26 28 38 49 44 37 31 31 30 33 36 34 32 30 27 27 28 33 39 43
19 24 28 35 38 64 74 82 71 62 55 61 68 50 45 26 24 34 66 68 49 26 27 23 21 24 32 43 45 33 30 25 25 26 25 25 24 25 29 38 49 60 56 45
12 16 18 25 34 62 77 68 84 81 78 60 35 45 59 28 24 22 38 65 54 55 51 32 42 21 28 41 47 51 51 33 24 27 24 21 19 18 18 18 33 47 49 42
7 9 15 21 28 36 47 88 91 85 63 50 30 42 51 48 21 26 38 58 70 54 58 53 68 38 52 48 44 58 71 70 51 44 48 53 40 32 30 30 29 26 23 24
5 6 16 24 22 33 52 71 80 77 68 45 38 35 60 52 24 23 63 71 59 57 58 61 50 64 45 54 39 56 70 82 90 97 93 84 67 58 53 57 56 54 48 66
6 5 5 12 46 40 52 66 100 97 67 54 48 37 59 59 36 28 46 73 92 73 57 64 46 62 60 38 43 31 51 57 67 79 99 98 86 59 53 56 62 56 59 63
19 12 5 5 13 48 48 59 79 85 80 51 62 38 60 78 58 61 75 93 86 71 63 47 55 79 62 71 75 50 33 35 37 57 85 96 98 95 78 72 72 61 51 81
15 18 10 6 6 30 45 52 78 81 64 41 30 50 62 82 63 50 64 96 99 81 56 44 92 82 62 76 100 60 41 33 32 24 31 31 28 29 48 70 48 47 72 92
25 10 35 9 6 19 18 52 72 88 45 48 40 51 69 83 62 58 91 96 72 100 78 98 90 84 69 52 69 76 69 38 19 14 12 7 6 6 8 10 30 62 81 77
34 87 68 87 46 19 32 30 71 59 68 58 55 58 70 74 91 73 87 100 90 73 58 99 91 87 77 48 56 63 74 64 32 17 12 6 7 7 11 23 42 57 61 61
44 31 55 83 75 100 78 12 27 56 54 59 70 68 66 76 99 98 68 65 58 56 100 66 88 88 52 47 48 62 63 52 43 21 14 10 8 23 46 45 43 56 62 51
21 97 48 93 100 99 34 58 46 60 65 58 63 70 75 78 100 87 93 51 37 50 90 98 81 53 34 49 46 42 32 32 31 29 22 12 19 42 43 44 46 45 40 44
22 84 74 100 100 91 80 69 68 73 71 83 74 73 81 79 92 95 100 99 75 38 64 89 75 35 51 52 40 36 26 27 20 22 29 30 43 46 41 39 41 37 30 23
18 26 72 98 98 96 100 100 74 81 68 97 100 87 87 88 79 90 100 96 95 73 64 77 72 58 53 42 33 29 31 30 27 21 13 20 23 24 29 40 28 18 20 25
100 57 64 99 95 96 100 98 91 72 78 90 93 67 60 71 79 100 98 98 89 96 74 62 54 63 34 33 41 47 42 35 34 33 36 37 41 40 38 40 37 37 40 46
51 100 98 100 99 96 100 100 95 79 97 80 64 77 100 100 99 92 99 99 100 97 96 98 85 74 64 58 59 63 86 59 50 44 39 38 39 42 45 46 45 45 47 48
36 59 79 98 100 100 95 79 100 100 100 95 71 92 91 96 100 99 98 89 94 99 99 98 99 98 97 96 92 86 80 69 64 64 64 65 68 67 71 72 75 79 80 81
49 45 23 35 86 100 96 100 93 85 88 92 80 90 78 99 92 100 99 97 98 99 100 94 98 95 97 94 94 97 94 84 76 79 83 85 83 82 81 83 83 80 89 93
48 37 34 28 70 96 100 91 76 69 68 100 96 73 98 99 84 88 100 99 95 99 100 98 97 97 98 98 92 93 88 86 84 84 82 82 85 84 77 76 75 81 90 99
50 42 33 44 57 76 98 99 73 68 60 89 96 95 100 100 98 100 100 96 96 100 99 99 98 90 96 99 95 91 90 84 83 81 90 90 82 77 75 76 82 88 93 96

GFSCGP_500_rhum_093.txt.gz
RH
52 47 36 48 59 44 46 41 30 34 59 46 50 29 33 32 29 46 44 42 58 45 30 24 27 75 52 20 17 40 42 34 72 98 84 88 89 94 92 96 98 97 96 97
53 45 42 57 46 39 36 39 36 40 67 52 49 33 46 32 28 46 47 43 50 41 30 26 16 36 77 22 17 31 65 93 66 86 98 98 99 98 97 97 97 98 97 96
54 51 47 44 45 41 34 38 49 55 66 48 41 30 50 39 20 37 54 40 54 41 36 29 24 18 48 70 46 55 58 64 77 71 80 92 96 92 93 81 72 91 97 97
75 62 60 49 46 50 36 60 52 64 60 39 41 20 48 56 22 38 46 39 37 57 41 38 28 20 27 41 80 74 72 78 77 82 87 72 78 98 98 97 91 96 99 96
93 99 78 67 58 66 54 59 58 70 49 28 31 39 44 40 25 39 42 31 27 50 50 35 31 30 24 30 27 56 54 46 69 65 66 71 82 97 100 100 97 88 94 97
78 87 97 96 71 39 54 53 63 57 47 24 29 57 33 55 31 34 42 41 32 32 35 35 33 34 35 32 26 32 31 26 27 23 42 60 68 78 88 93 97 93 82 73
67 62 27 84 91 74 61 50 67 51 44 27 31 48 38 63 42 30 46 50 44 27 27 28 22 20 24 32 32 27 31 35 37 31 26 23 26 37 58 72 76 77 77 72
44 34 83 50 63 89 86 82 55 67 52 50 50 32 34 68 53 25 47 53 51 56 32 31 28 22 16 25 32 33 33 28 27 28 28 32 34 34 32 30 29 31 33 38
39 28 15 42 33 54 76 76 96 90 72 67 46 36 32 41 90 34 27 39 59 76 53 46 57 34 46 19 33 39 41 29 22 21 22 22 22 21 20 17 18 23 32 42
6 16 13 14 17 18 55 66 88 88 76 65 41 39 38 41 88 68 26 38 42 71 68 78 69 54 53 35 48 39 43 58 46 31 32 33 32 27 24 22 21 23 27 30
7 7 9 15 16 31 21 29 57 71 71 56 39 33 36 42 78 74 38 29 53 60 80 71 79 62 59 54 53 48 49 70 74 78 76 70 76 77 65 46 42 42 40 46
6 6 6 7 21 40 42 30 36 51 59 56 50 38 50 59 80 69 38 39 83 73 83 75 84 70 58 46 56 53 40 38 81 92 78 74 88 100 97 75 58 57 63 60
6 6 6 6 9 22 34 52 40 42 47 34 40 35 46 56 80 84 54 45 82 100 99 87 82 68 60 76 70 60 56 45 39 49 52 70 82 96 99 96 68 60 66 71
6 5 6 8 18 16 12 19 56 53 34 32 28 43 53 65 64 98 80 53 48 93 99 86 73 66 86 92 77 58 61 52 38 33 34 32 41 58 48 78 89 90 80 56
4 4 4 5 6 11 25 20 23 37 28 36 28 38 54 60 66 100 90 69 72 83 100 95 77 69 100 95 82 72 69 66 45 36 31 19 14 13 7 6 11 12 12 34
4 4 4 3 5 6 7 18 28 12 20 30 36 30 41 55 72 77 86 69 74 100 99 74 74 79 95 100 98 61 63 67 71 58 37 20 15 12 7 6 8 11 32 47
4 5 5 3 6 11 6 12 24 16 12 11 20 31 46 45 60 74 100 85 70 75 97 100 74 70 82 91 80 58 56 54 58 56 60 49 28 16 13 9 34 54 64 60
27 24 18 7 14 37 4 79 66 51 17 13 12 32 59 60 65 67 96 94 91 81 89 86 72 93 95 80 76 48 58 56 54 46 43 40 40 35 26 23 23 52 72 60
39 35 39 22 87 18 15 90 64 55 54 39 14 16 42 62 97 74 96 97 100 94 94 79 63 86 95 92 76 48 46 46 41 34 34 31 25 34 41 50 54 61 59 41
47 52 66 46 51 38 7 53 75 80 41 62 49 33 35 74 74 64 100 98 96 94 99 90 84 100 100 100 71 58 48 43 41 40 36 34 34 35 28 30 41 40 42 43
53 65 88 26 20 13 96 100 100 100 88 86 70 60 53 64 70 83 96 94 94 82 99 97 99 100 99 84 74 65 50 50 51 55 64 60 52 46 42 39 36 36 36 41
46 33 92 92 38 47 95 98 100 100 100 100 81 69 85 83 79 83 72 92 87 98 94 98 100 100 100 99 99 88 60 53 61 89 93 88 72 64 60 60 63 69 76 76
66 38 60 100 100 100 100 95 100 99 100 100 93 67 85 73 68 79 74 89 96 99 99 97 98 98 96 84 92 99 98 97 98 95 91 90 86 83 83 82 82 88 89 88
78 54 40 37 90 100 100 100 89 97 85 100 100 95 96 82 82 66 98 83 73 100 95 100 97 96 100 100 96 86 91 97 99 99 98 97 90 91 88 93 94 92 92 86
72 61 53 43 33 39 91 98 76 73 89 99 100 90 98 100 86 88 86 99 99 99 96 98 98 96 81 84 85 86 88 100 92 96 98 99 98 95 97 97 98 92 86 84
80 74 47 41 43 32 48 53 78 50 65 86 99 85 81 88 84 87 78 92 100 99 91 84 72 70 96 89 88 99 99 98 94 89 93 99 98 98 98 98 95 87 80 77

GFSCGP_500_rhum_099.txt.gz
RH
77 83 70 95 100 99 98 98 100 88 88 100 48 36 30 36 48 42 37 39 19 12 20 16 23 26 23 40 56 26 23 17 27 32 36 83 73 73 62 70 82 95 93 94
45 62 88 99 95 95 96 97 93 78 66 82 55 41 31 28 39 40 42 40 28 13 18 16 22 23 23 38 66 30 20 17 25 28 53 87 86 87 86 64 75 90 98 96
29 35 72 100 97 97 97 95 95 78 75 85 66 40 33 30 31 42 43 38 23 14 19 18 20 22 23 32 42 63 26 21 39 39 39 94 97 97 98 98 84 96 99 99
23 20 29 89 97 99 98 68 93 87 92 74 86 50 55 32 30 38 39 35 30 14 22 17 17 20 23 25 32 42 63 30 41 45 43 96 96 97 97 99 97 97 96 95
14 22 29 46 89 100 94 90 90 87 80 73 67 62 52 38 36 50 43 47 26 15 19 18 16 16 16 18 27 31 44 59 48 51 54 72 94 97 96 96 96 96 95 96
10 15 22 22 74 98 99 86 91 89 89 68 60 62 80 45 36 57 56 48 38 18 20 22 14 14 13 14 17 26 33 35 45 50 65 66 72 82 93 97 97 96 96 97
9 11 16 20 53 96 100 98 90 99 98 73 82 80 61 53 43 64 51 47 46 19 18 23 19 15 17 19 20 20 24 27 41 32 27 62 65 66 77 83 94 97 96 97
8 20 16 21 26 92 98 100 96 100 100 100 99 100 78 55 43 61 54 52 51 24 20 19 24 26 20 19 28 32 23 24 24 39 37 27 32 69 78 88 85 91 90 88
9 13 13 16 25 72 97 93 97 99 95 93 88 99 95 72 48 55 63 56 56 34 23 23 24 34 32 25 27 38 33 29 26 24 25 26 28 30 27 29 34 34 44 45
12 9 22 12 14 36 91 100 100 100 100 96 100 100 100 99 54 60 76 66 70 53 23 25 22 40 41 33 33 36 44 32 27 35 26 20 19 22 24 27 30 34 33 30
9 8 40 14 16 43 81 94 92 100 100 100 99 91 96 100 72 80 84 65 84 62 50 25 26 32 37 44 41 45 43 41 40 37 39 49 26 23 22 20 19 22 21 17
9 7 12 16 81 20 20 50 81 75 100 99 97 91 97 99 95 84 96 78 70 73 60 34 35 28 38 51 54 55 48 42 31 36 40 34 43 64 62 65 72 82 77 78
16 8 7 7 16 22 18 23 68 100 80 83 100 94 99 98 98 96 97 93 75 66 61 36 35 33 58 58 62 67 57 53 35 44 38 29 22 63 76 67 63 66 71 72
7 12 13 91 100 100 65 19 21 35 52 83 98 94 100 100 99 85 94 94 86 76 54 40 50 64 70 63 80 75 65 58 54 40 32 39 33 26 52 55 45 37 64 71
6 6 11 8 43 94 99 68 26 14 31 61 62 100 100 100 84 87 63 82 92 83 62 56 85 85 86 83 78 76 70 58 56 56 47 39 35 33 28 23 22 23 22 34
6 62 24 6 6 13 25 70 45 24 12 10 13 23 33 42 40 38 50 81 89 98 97 95 81 90 70 83 78 79 62 40 68 66 50 37 53 49 32 31 29 24 15 14
44 51 16 30 6 4 5 6 8 8 12 12 15 11 9 8 17 35 48 49 57 90 98 96 95 76 92 99 93 78 65 72 81 84 55 26 34 43 51 44 36 27 18 15
7 5 15 25 11 31 11 15 8 6 5 5 6 10 8 7 7 8 19 48 58 76 95 98 94 90 74 86 83 71 62 81 100 89 65 36 32 36 38 41 40 41 40 38
5 6 44 6 5 9 10 7 9 9 7 16 8 4 4 5 5 7 9 22 52 46 50 78 93 83 82 74 85 82 87 67 70 91 75 63 54 47 55 42 39 32 38 72
35 27 41 58 9 15 32 12 16 7 14 18 11 26 31 58 36 16 23 10 8 35 49 66 82 83 82 99 99 93 87 92 92 100 88 72 98 79 65 56 43 36 49 44
75 62 38 49 38 28 58 59 27 91 43 44 37 10 18 45 30 49 42 18 6 8 34 56 70 73 83 85 82 100 97 99 100 99 96 85 70 74 76 94 65 53 55 58
100 94 98 59 49 78 73 20 30 24 39 44 30 30 17 36 40 22 30 22 15 8 9 32 66 84 83 96 89 86 81 76 77 100 99 100 88 82 71 53 50 78 89 95
100 100 100 99 89 94 88 92 94 60 83 74 68 44 22 27 52 36 26 19 18 14 8 8 36 68 70 97 99 92 85 77 70 77 99 98 100 90 80 83 90 93 89 93
98 88 57 59 86 100 74 61 82 100 100 88 65 72 52 49 33 74 62 54 42 21 13 16 42 56 71 86 97 100 97 100 96 100 99 96 91 86 89 95 100 96 81 85
89 77 67 63 81 100 88 88 100 100 100 100 100 100 90 100 94 52 76 63 65 53 53 65 78 69 78 92 95 100 98 98 91 99 98 91 94 98 95 100 97 96 90 85
83 84 70 77 59 71 72 100 100 100 100 98 100 100 100 100 94 78 82 72 81 78 87 92 85 82 90 89 100 99 96 100 100 99 94 97 99 99 98 97 95 100 89 96

GFSCGP_500_rhum_102.txt.gz
RH
13 9 10 34 51 59 81 93 68 77 92 86 98 98 68 52 55 29 35 46 48 45 35 12 15 15 18 17 26 48 22 15 12 16 20 27 27 37 69 91 76 88 95 97
15 5 13 26 32 40 54 65 64 71 97 98 96 98 72 56 54 31 33 38 52 83 41 14 15 15 19 17 21 37 44 14 14 24 24 35 37 43 71 80 67 83 98 96
14 9 12 13 22 29 35 73 72 81 99 93 87 92 56 53 48 38 37 39 48 53 35 14 17 15 18 14 18 31 46 45 20 28 45 50 36 47 76 79 68 72 89 87
12 12 14 14 14 22 30 57 95 92 96 92 98 77 59 62 59 50 40 34 42 45 52 15 19 15 16 12 13 20 34 52 58 37 33 51 45 88 81 75 85 77 82 89
6 12 14 14 14 16 23 40 75 96 91 94 80 100 47 68 66 54 51 49 35 44 37 14 19 15 16 13 14 15 30 33 35 53 59 44 61 88 97 97 96 100 99 90
8 13 14 13 12 13 27 44 61 100 100 84 79 91 64 66 58 55 80 62 60 45 44 18 21 17 15 14 18 19 18 25 36 37 28 56 50 60 89 97 96 97 99 98
11 13 14 10 10 11 17 22 60 95 97 64 86 90 72 65 60 56 80 99 63 61 48 23 19 18 16 16 18 25 21 20 23 37 36 25 52 59 67 73 92 96 96 96
11 16 90 51 15 12 17 23 46 89 96 100 95 79 79 91 82 63 97 98 58 43 54 24 19 17 20 23 21 25 22 22 23 24 31 33 28 46 73 78 76 88 97 96
36 48 97 97 65 31 20 26 44 97 100 96 98 89 95 96 98 91 87 90 58 54 43 25 20 18 20 29 29 31 27 27 26 29 28 24 24 29 33 80 90 85 85 86
94 72 65 100 91 24 18 39 82 100 97 95 93 97 98 96 88 96 96 81 65 57 50 38 23 23 18 27 41 34 36 35 34 32 28 36 20 20 23 30 31 33 34 38
31 32 15 29 99 30 29 31 44 95 99 89 96 94 98 96 97 99 97 94 94 74 54 55 28 23 19 22 39 39 40 46 40 31 31 29 43 30 20 19 19 21 19 19
8 12 10 20 73 100 84 88 83 100 91 96 100 82 98 94 90 94 98 98 98 82 62 54 52 33 23 24 32 38 45 52 52 47 26 21 30 31 51 38 31 39 55 62
7 7 11 9 17 86 96 96 92 67 96 92 100 84 97 98 98 97 99 98 96 87 79 61 64 42 30 26 31 40 48 52 56 55 40 28 25 22 21 54 64 63 65 67
4 3 26 96 77 55 57 74 69 87 96 77 84 85 99 99 98 97 99 98 97 99 70 63 66 47 38 31 38 54 53 55 58 57 51 41 28 29 23 35 68 62 53 46
4 4 4 5 28 98 100 80 47 42 73 100 100 86 98 98 96 97 83 89 96 98 98 81 64 51 41 42 56 65 69 74 69 62 47 57 55 40 40 34 27 30 31 26
17 6 4 4 4 41 100 100 100 58 30 34 64 85 94 99 82 90 100 91 74 74 95 98 99 76 76 68 89 96 90 84 74 56 50 66 72 40 47 54 35 34 31 28
50 84 26 12 14 9 51 83 99 97 85 50 28 22 32 79 89 62 50 72 63 44 92 96 96 99 67 90 100 97 85 76 74 45 56 72 79 61 38 47 57 53 48 42
82 99 100 83 78 69 7 29 50 43 65 54 18 13 13 11 10 22 18 49 55 66 100 96 94 98 100 80 77 75 82 83 78 47 53 86 86 64 37 35 57 55 57 57
74 97 100 98 92 67 36 39 51 22 24 11 15 7 9 7 10 7 13 10 38 44 99 62 77 85 77 89 82 99 92 100 93 64 67 69 66 60 60 37 38 48 47 39
22 79 83 100 89 7 18 47 77 21 36 68 45 33 13 25 17 15 10 9 7 21 35 37 50 50 75 92 80 94 85 74 73 80 83 83 84 83 77 60 45 38 49 47
79 47 61 98 99 25 28 100 37 21 17 55 74 66 83 52 16 28 21 44 16 6 10 14 31 42 69 82 85 84 80 100 99 98 94 93 73 100 94 79 65 53 49 44
99 85 84 78 85 84 58 57 42 45 65 99 69 56 42 47 35 12 10 18 21 40 14 6 8 18 42 56 63 65 78 92 97 99 100 99 99 100 98 89 87 86 72 55
100 79 99 85 92 81 72 69 85 51 41 68 51 42 26 35 48 22 29 35 23 17 34 18 7 8 19 50 70 77 82 82 88 88 96 93 100 78 83 98 97 85 100 78
97 100 99 100 100 100 100 78 80 65 58 38 26 41 45 38 49 42 30 42 37 25 23 15 8 5 6 19 50 72 73 76 86 97 98 94 86 93 75 81 99 92 95 90
96 100 99 99 86 87 95 96 74 59 87 71 67 76 76 74 99 100 96 44 52 40 26 23 14 10 8 12 36 58 75 81 90 100 100 100 97 90 100 94 98 85 77 76
100 100 100 100 100 97 96 100 76 98 100 100 100 100 100 97 98 87 100 85 40 62 62 44 41 25 14 17 53 55 69 79 97 100 100 100 98 100 99 99 99 100 100 100

GFSCGP_500_rhum_105.txt.gz
RH
10 7 7 8 7 6 5 6 6 5 38 45 70 49 83 94 61 99 97 67 46 27 26 16 24 17 20 20 19 14 25 41 17 18 21 24 29 31 37 39 60 92 95 96
8 7 10 8 7 6 6 4 5 11 23 36 55 42 61 95 72 58 90 64 43 34 34 14 28 18 20 19 17 13 18 40 28 13 16 21 23 31 33 33 38 51 68 87
11 10 11 8 6 6 7 6 8 13 19 25 49 35 73 96 85 85 86 66 68 47 39 19 32 21 21 18 13 12 16 33 52 23 14 21 30 42 54 55 58 54 60 72
11 10 8 7 5 6 4 8 12 12 18 24 52 25 55 98 82 56 72 77 68 44 26 28 33 23 22 17 14 14 14 27 39 51 53 40 34 67 87 83 86 75 71 77
10 8 5 4 4 7 7 13 13 12 13 24 36 51 42 96 66 69 71 60 56 36 30 35 36 23 23 17 15 16 17 17 28 36 42 41 56 55 64 83 91 100 96 82
5 5 4 4 5 6 11 14 14 13 14 22 32 63 52 82 80 71 66 76 86 46 33 37 32 19 24 17 15 18 23 18 20 22 39 31 44 63 58 79 98 97 96 95
8 4 4 9 16 8 13 13 12 13 13 13 40 64 52 61 86 94 83 86 71 60 35 37 43 25 24 20 15 18 22 21 17 21 27 38 28 61 70 64 76 97 98 97
6 5 4 31 22 23 22 24 11 12 12 15 35 38 47 93 98 94 98 97 93 82 55 45 46 31 23 28 19 21 23 25 24 23 22 27 31 43 70 65 57 85 95 96
33 19 5 42 73 71 65 49 34 20 16 22 28 54 60 92 92 84 89 98 98 86 70 50 51 31 22 31 28 29 29 29 28 25 26 26 24 29 53 77 75 68 83 95
36 44 9 30 80 50 76 71 67 36 33 26 43 66 85 86 99 99 100 93 96 96 78 48 51 34 24 25 28 39 36 33 36 31 30 28 32 19 28 34 55 65 64 72
89 42 15 64 99 100 95 82 53 37 52 44 60 63 94 99 98 93 83 88 100 83 85 58 54 40 26 24 24 39 42 38 43 42 33 28 28 39 21 21 28 34 42 49
60 58 27 46 100 87 52 100 52 76 29 33 76 59 100 100 97 97 98 90 100 92 91 71 59 53 32 26 24 29 43 46 46 50 51 42 20 27 30 44 24 26 27 23
70 20 7 4 9 19 27 27 99 41 40 46 80 49 100 92 98 99 81 81 96 97 78 98 71 58 52 32 26 28 39 43 50 58 58 46 32 24 24 23 46 51 54 62
10 8 8 5 4 10 25 26 100 100 90 42 67 56 100 96 99 98 82 75 98 79 98 98 82 63 58 47 33 32 32 47 53 58 65 50 37 28 28 27 33 71 70 62
13 9 6 4 4 23 16 29 73 100 100 79 100 68 100 99 93 98 99 98 98 98 96 87 98 88 61 52 36 33 31 52 56 55 64 61 47 56 44 36 35 33 61 62
7 6 7 4 4 4 13 33 16 82 100 81 65 99 98 99 76 100 99 99 98 96 91 81 96 94 79 56 47 38 43 64 64 74 74 59 44 61 66 42 37 36 33 30
15 43 61 9 22 4 4 5 14 17 29 29 30 60 100 99 100 100 91 97 93 79 98 90 97 94 99 80 52 48 76 81 80 84 72 56 46 60 74 75 49 35 51 44
7 53 72 53 98 36 4 3 43 74 90 100 82 48 61 71 100 86 85 82 94 89 95 83 68 89 100 100 73 48 68 72 69 72 70 63 50 68 85 88 68 49 39 43
24 89 77 100 100 82 61 97 34 25 74 82 84 86 70 59 85 54 57 74 81 74 82 66 66 87 89 88 76 98 93 77 80 77 64 71 71 77 90 91 68 65 54 48
28 61 98 100 96 86 100 100 99 98 92 99 90 78 66 38 16 32 23 33 21 30 51 45 45 91 82 78 74 99 99 88 88 90 100 100 92 86 96 100 91 93 80 67
97 22 70 94 81 58 100 98 94 60 24 19 13 17 39 42 37 30 17 9 10 12 16 31 39 86 94 86 73 72 79 95 98 100 100 89 86 89 92 96 90 98 97 89
96 47 24 46 76 99 78 54 74 88 48 21 11 15 26 54 47 28 14 16 16 11 10 10 33 65 86 51 52 74 88 88 96 100 100 97 100 100 99 96 89 85 100 98
83 94 82 70 82 89 94 77 94 100 79 51 18 12 11 38 43 47 24 14 12 23 42 19 9 14 22 28 31 40 50 60 66 83 94 98 100 99 98 99 100 96 100 89
100 100 100 100 99 90 100 97 89 77 52 46 42 31 97 88 67 64 62 34 16 8 17 25 29 18 11 10 14 24 23 30 36 48 60 74 99 100 100 100 99 100 96 92
100 100 100 100 100 100 100 100 91 82 76 59 52 42 42 71 64 43 40 30 22 17 11 13 24 32 34 18 8 6 7 13 26 48 60 69 87 100 100 100 100 100 100 100
100 100 100 100 99 100 100 98 92 84 77 70 89 81 67 95 85 68 75 98 95 37 21 32 34 23 20 18 16 10 8 10 22 43 54 72 84 94 100 100 98 98 100 97

GFSCGP_500_rhum_108.txt.gz
RH
16 12 12 12 10 9 8 8 9 7 5 4 4 3 2 7 22 34 70 93 74 46 86 65 38 38 32 24 18 17 14 12 26 23 16 19 21 28 43 76 95 97 97 96
18 16 14 12 9 9 10 9 8 8 5 4 4 4 2 4 13 48 60 79 85 68 49 58 36 39 32 27 20 17 13 12 22 39 19 17 20 27 25 34 55 93 97 97
17 15 16 14 13 12 10 8 5 6 5 4 3 3 3 5 12 32 55 69 85 67 65 65 47 47 42 36 21 18 13 13 19 36 48 26 25 33 42 34 43 53 80 87
22 20 18 16 14 12 13 9 7 5 3 3 3 3 2 4 14 29 54 66 85 67 58 54 52 50 52 44 22 18 15 15 16 26 35 50 42 26 38 51 69 70 76 59
27 23 20 16 12 9 8 5 4 3 3 2 3 7 2 4 14 51 62 86 99 87 90 78 54 49 53 55 23 19 16 18 19 18 22 37 46 41 36 55 79 100 98 97
23 13 10 8 6 6 5 4 3 3 4 5 4 9 2 7 18 56 98 99 97 96 90 84 68 47 54 43 25 19 16 21 21 18 19 34 38 46 47 65 69 98 98 97
12 10 8 7 6 5 4 4 4 6 8 4 6 9 3 7 29 58 94 86 80 84 67 48 57 70 40 29 27 18 16 21 22 20 20 22 36 35 59 77 66 82 99 96
10 9 7 8 8 5 5 7 9 17 6 6 9 6 6 12 50 61 68 89 64 87 53 44 53 72 53 38 30 21 17 22 24 23 24 25 28 34 65 86 67 96 98 97
32 14 9 9 6 12 7 18 23 68 65 55 14 8 9 15 45 65 72 97 97 82 84 64 54 65 62 43 34 29 21 25 28 26 27 25 23 26 52 87 92 86 99 97
92 62 12 9 8 34 55 34 52 79 93 62 31 18 13 34 62 81 100 99 82 95 90 90 95 98 80 58 33 36 34 32 33 31 30 28 29 20 32 53 91 94 94 96
77 90 29 13 28 20 74 60 96 65 89 76 34 18 40 74 100 99 98 98 84 78 80 91 98 95 76 63 37 41 37 38 37 34 33 36 29 32 19 33 50 79 91 94
98 95 40 27 49 31 46 100 100 100 90 67 35 14 80 95 88 94 97 95 90 100 100 70 99 96 81 53 40 45 41 40 41 39 39 30 33 25 32 22 22 29 54 80
78 60 19 14 23 80 87 100 100 98 99 85 53 24 30 99 98 97 98 99 98 98 93 83 93 95 78 48 39 41 39 32 41 41 42 43 38 24 25 30 37 23 22 26
96 72 27 8 12 40 61 41 69 85 56 63 91 28 29 82 92 100 99 98 95 92 96 96 96 94 95 69 46 39 35 34 41 40 45 46 48 25 23 26 28 43 49 51
66 88 60 30 9 8 5 6 12 46 50 32 97 87 58 91 100 98 96 98 91 95 99 87 98 97 99 86 68 53 37 42 37 47 58 56 57 34 28 29 33 30 68 73
13 17 32 7 11 8 6 5 5 7 15 21 84 100 100 100 92 86 100 99 99 96 96 96 100 98 98 96 95 80 70 55 43 61 74 65 71 50 35 33 35 31 32 38
14 12 11 8 10 18 5 4 4 6 41 15 35 91 100 100 95 100 100 98 99 96 97 98 90 100 100 95 94 100 88 79 61 67 80 84 79 66 45 50 52 48 37 28
11 10 10 8 32 22 16 24 3 3 26 34 41 76 96 94 91 100 99 99 100 100 98 99 99 99 100 98 96 89 98 94 93 77 91 97 76 73 58 75 76 78 64 51
10 13 10 9 30 29 72 33 73 9 6 26 23 54 67 56 64 81 98 100 99 98 98 98 98 100 99 91 91 98 100 98 97 98 87 94 74 80 92 77 70 74 68 70
84 24 18 19 54 70 97 91 100 97 21 46 70 54 39 40 60 76 75 96 100 99 95 98 98 78 68 93 97 98 97 98 97 97 96 97 98 95 100 100 85 84 91 79
100 99 40 74 83 62 100 100 99 100 100 74 53 94 94 100 86 84 81 71 73 80 83 95 93 66 50 60 79 95 92 97 93 98 98 97 97 99 100 88 84 96 98 95
100 100 99 67 88 89 99 94 94 86 90 100 100 71 91 80 53 77 56 37 24 63 44 67 58 49 50 49 69 77 97 98 96 98 99 98 99 99 97 96 93 99 98 96
100 71 20 34 54 95 84 92 100 100 85 68 50 36 30 13 12 14 33 39 32 38 40 32 27 32 43 46 55 65 86 100 98 98 98 98 98 98 99 98 97 97 89 99
98 88 63 52 62 72 76 76 96 100 81 84 71 56 19 9 6 5 6 22 25 25 31 20 26 16 12 11 19 26 29 38 50 63 87 91 96 96 97 98 95 97 96 95
100 100 100 100 99 100 100 100 95 95 100 69 64 46 39 16 7 6 7 14 16 17 19 14 14 26 23 9 8 10 12 12 12 20 30 35 45 59 63 69 80 84 86 76
100 100 100 100 100 100 99 81 89 86 91 73 69 57 44 30 21 17 29 29 15 7 9 10 7 8 22 22 17 14 11 10 10 11 12 13 19 42 54 67 80 76 66 82

GFSCGP_500_rhum_111.txt.gz
RH
62 82 58 56 16 13 17 11 11 9 8 8 9 11 9 7 8 6 3 2 7 36 61 82 84 65 39 52 49 42 20 17 13 12 21 33 18 26 38 89 98 97 97 97
77 67 58 26 17 14 12 12 11 9 10 10 11 13 11 9 6 4 3 3 6 47 76 93 91 73 42 52 54 42 23 18 14 12 23 44 24 27 28 33 91 95 96 97
66 59 49 31 18 16 14 12 12 12 12 10 11 16 12 7 5 3 3 3 6 28 79 99 95 69 54 55 64 54 26 18 14 14 17 35 53 23 29 36 34 94 97 96
86 67 38 24 20 18 16 16 16 14 13 15 12 16 13 7 5 3 3 3 7 26 69 97 85 74 58 55 71 65 30 19 15 17 16 20 38 49 32 35 39 33 88 97
74 75 67 44 34 21 26 20 18 16 15 13 13 8 9 7 3 3 3 4 12 27 85 74 66 75 73 49 71 66 29 19 16 18 17 16 29 37 46 36 36 65 51 87
74 52 42 32 25 23 21 18 13 9 7 9 12 8 9 5 4 3 3 10 33 43 78 70 79 65 66 41 62 65 27 18 17 20 19 16 20 38 32 52 48 53 65 80
71 66 49 28 26 22 15 11 10 9 7 10 8 6 7 5 3 3 3 14 31 72 100 85 80 75 73 45 57 48 25 18 18 21 21 18 21 23 34 41 60 73 76 94
42 39 33 24 16 14 18 15 17 10 6 6 5 6 5 4 4 3 6 12 36 62 96 97 84 96 86 52 39 30 29 17 18 23 24 22 22 22 34 49 64 79 87 94
47 64 40 25 20 22 21 20 16 17 11 8 7 5 4 6 6 4 6 16 45 75 96 75 88 99 99 62 43 43 35 19 20 26 27 27 21 24 27 41 69 91 96 96
36 33 30 25 26 35 36 30 32 45 48 47 6 4 4 10 14 6 9 16 63 79 94 91 93 94 97 81 65 44 38 25 23 29 32 29 29 24 21 31 55 88 96 93
56 46 39 33 31 28 35 31 27 20 82 61 20 6 13 35 21 25 20 44 83 100 100 95 94 91 94 58 56 70 40 36 33 36 36 31 32 22 28 25 37 54 94 96
94 89 92 81 81 44 43 42 29 91 100 55 47 43 38 48 32 61 59 72 91 93 98 99 89 88 88 78 67 62 44 50 40 42 42 36 36 27 21 28 29 36 42 91
100 100 95 100 85 75 74 48 35 38 66 98 100 65 74 72 31 28 76 89 97 99 86 97 84 86 94 86 72 56 44 53 47 49 47 40 41 37 21 24 32 21 28 31
100 100 84 74 82 99 78 48 64 76 53 66 99 73 80 96 56 30 44 98 98 98 75 99 93 89 88 87 87 74 49 53 59 54 52 42 40 41 26 17 22 36 26 24
100 75 77 62 83 40 31 57 67 83 75 58 66 80 62 80 85 68 87 99 97 98 99 93 91 100 94 97 96 100 65 56 57 64 70 49 46 50 36 20 17 18 28 43
94 98 78 100 88 76 32 24 18 13 6 7 36 58 70 58 100 85 89 98 97 99 99 98 98 100 100 97 98 93 92 71 56 53 62 59 65 62 59 32 32 23 20 21
21 28 44 50 35 16 9 6 6 6 5 4 5 25 33 45 73 99 98 100 99 99 98 99 98 98 99 98 98 97 94 90 89 74 50 48 71 74 73 46 37 50 42 24
13 12 11 9 9 9 6 6 9 8 4 3 5 8 24 37 45 91 100 98 99 99 99 100 98 97 98 98 98 97 97 98 97 94 73 56 60 70 75 62 46 50 56 55
11 13 12 12 10 7 6 31 25 45 21 3 3 4 10 72 55 93 99 100 99 100 97 99 97 99 97 98 98 98 98 96 95 97 97 90 75 74 83 83 64 56 53 65
95 100 97 54 16 8 9 62 54 76 98 46 25 66 62 67 70 100 98 99 100 98 97 96 96 97 96 96 96 97 100 100 99 98 98 98 94 100 92 90 86 76 66 74
100 82 83 100 19 8 73 92 85 94 100 84 74 78 60 65 86 98 97 98 100 99 99 99 98 97 98 99 92 92 93 98 99 97 97 98 97 96 77 77 79 91 83 64
100 100 100 100 49 45 92 77 98 100 100 100 99 93 70 92 96 82 96 85 80 95 88 68 97 96 99 98 89 91 98 98 98 97 97 97 98 98 96 92 77 70 76 70
100 100 100 78 71 99 100 94 100 100 76 96 100 100 100 77 71 99 97 47 75 64 43 42 63 80 94 83 78 72 76 96 97 96 88 94 95 99 98 96 97 96 82 95
100 100 100 34 62 83 96 94 100 100 100 100 94 92 74 70 72 86 84 48 42 36 38 35 37 57 52 67 62 55 46 49 58 87 94 98 97 98 97 98 98 98 99 99
98 100 100 78 86 78 81 58 71 99 100 95 91 76 75 84 44 24 26 20 11 18 34 34 31 40 45 44 36 36 39 36 45 50 68 95 95 92 79 90 95 97 98 92
100 100 100 97 100 99 97 100 100 100 100 100 88 71 60 47 35 23 12 8 6 9 9 24 22 24 35 24 27 30 20 20 23 14 11 16 20 18 40 63 38 29 32 36

GFSCGP_500_rhum_114.txt.gz
RH
99 89 69 72 50 26 32 21 23 15 8 9 8 7 8 8 9 11 9 7 6 4 4 3 2 5 33 77 86 65 46 27 22 19 15 16 26 43 18 24 44 72 97 97
90 70 80 73 90 95 86 69 52 39 19 14 11 10 12 10 10 11 8 6 5 5 4 3 3 6 29 81 90 71 52 35 20 20 14 16 21 34 38 21 35 62 94 97
95 88 92 79 30 31 50 36 28 23 15 14 24 37 14 11 12 12 10 7 6 5 4 3 3 17 40 92 98 89 48 38 22 20 15 16 18 24 44 28 42 46 97 97
85 90 92 99 86 88 95 65 24 17 17 15 13 23 15 14 13 13 11 8 6 5 3 3 3 14 46 86 92 78 41 35 23 20 16 18 19 18 33 45 47 47 76 96
81 87 98 96 87 43 59 29 50 52 39 34 22 15 20 16 17 12 8 6 5 4 3 2 3 17 34 71 99 69 38 34 26 20 17 21 20 17 23 37 42 51 49 93
94 91 85 92 89 90 82 47 24 23 24 27 27 20 22 18 15 13 8 6 4 3 2 2 4 14 45 81 94 78 52 43 32 23 19 23 19 20 20 35 33 51 45 56
97 99 100 88 82 84 91 87 82 76 43 36 26 24 27 18 15 12 10 5 3 3 2 2 6 20 58 94 88 80 65 51 41 22 22 24 22 22 20 25 33 34 59 50
89 86 95 94 92 84 80 56 40 33 43 45 47 32 16 15 12 11 9 6 4 3 2 2 15 34 76 90 82 76 64 57 26 22 24 26 26 25 18 24 31 47 64 68
94 93 79 80 58 46 42 34 33 33 39 33 26 21 21 12 11 9 8 5 3 3 2 2 18 44 92 96 78 82 59 42 32 21 23 29 29 28 18 22 26 44 69 88
56 70 82 73 79 74 64 58 54 50 37 30 36 33 14 12 10 8 5 4 4 3 3 8 23 56 98 90 75 86 49 36 54 18 22 30 33 32 25 19 23 45 81 92
48 61 76 90 85 77 72 65 61 58 51 44 42 28 17 11 8 6 4 5 5 5 5 9 38 65 95 81 90 91 49 54 68 22 23 32 37 34 26 16 24 33 60 80
98 55 66 100 100 100 96 78 76 54 46 45 33 20 13 10 9 7 5 20 15 26 10 20 50 91 96 77 100 100 65 90 55 24 25 35 41 38 30 16 20 26 35 56
100 98 87 100 100 100 86 64 83 78 47 54 51 18 50 44 53 41 22 24 27 74 32 45 78 100 98 99 95 100 87 96 48 29 32 36 40 41 36 26 16 26 28 34
100 100 100 99 100 99 81 95 100 94 39 47 39 31 18 25 78 85 62 32 28 69 64 87 87 99 97 96 97 81 91 96 44 38 36 39 36 40 38 33 16 15 27 32
98 94 100 100 100 99 82 100 96 70 47 69 39 33 32 18 74 89 76 56 23 96 97 100 94 90 97 99 97 96 98 96 44 48 42 47 30 31 36 36 24 15 16 25
28 73 100 74 100 99 94 83 72 40 34 46 32 20 16 22 49 79 78 67 31 99 99 99 98 94 100 87 97 97 96 95 52 49 52 53 35 31 35 36 35 20 15 16
58 24 50 77 78 78 84 60 39 22 25 25 11 8 7 13 38 70 74 98 61 99 100 98 99 93 97 98 96 97 97 96 85 56 61 55 43 37 38 42 43 27 21 15
29 24 20 25 35 41 45 42 39 23 11 8 5 4 4 4 14 31 53 87 100 100 99 99 100 92 85 98 96 97 94 97 95 75 67 61 45 39 37 44 62 39 28 26
40 25 17 12 11 11 12 14 10 8 6 7 5 4 3 3 3 8 26 54 99 99 99 97 97 93 93 99 99 98 89 96 99 96 88 68 63 53 44 56 70 50 35 35
40 27 88 98 82 76 55 12 8 6 24 59 62 58 32 6 4 12 37 73 100 100 99 97 94 99 99 96 98 96 97 100 98 98 96 91 79 55 51 68 81 59 39 39
100 100 100 100 91 96 34 8 11 26 75 100 98 96 76 93 90 61 68 66 98 100 100 99 100 100 98 98 99 100 93 97 98 98 99 97 97 96 93 70 75 76 52 46
100 95 100 99 79 71 42 40 47 76 99 100 100 100 96 92 97 86 80 79 98 98 100 100 100 99 99 99 99 96 96 97 99 99 93 98 98 99 97 95 92 66 48 50
100 100 92 92 81 54 87 80 85 100 100 100 95 96 100 100 85 78 85 93 91 72 76 95 94 93 96 98 100 95 96 98 100 97 97 94 96 91 85 98 97 95 81 72
100 100 65 63 92 100 92 86 100 100 100 100 100 79 94 96 99 85 98 76 89 71 62 75 52 56 67 95 95 95 96 98 97 97 99 93 97 95 98 99 99 98 97 99
100 100 98 100 80 86 93 78 81 95 100 100 99 89 84 74 72 66 66 57 49 47 62 43 17 40 37 48 77 93 97 95 90 68 70 82 96 92 92 97 98 97 98 97
100 100 100 97 100 92 97 95 77 86 96 95 95 100 98 79 64 60 47 48 55 48 54 26 16 11 27 34 36 49 60 83 72 50 40 46 46 50 62 77 98 98 87 68

GFSCGP_500_rhum_117.txt.gz
RH
99 95 70 80 91 97 87 71 68 64 50 24 20 21 18 8 9 10 11 11 9 8 9 10 8 5 5 4 2 10 55 73 71 58 56 37 16 15 28 37 44 27 35 41
94 78 99 100 98 93 96 96 75 39 30 38 34 35 19 9 8 9 9 8 8 10 11 10 7 5 4 4 2 13 56 83 84 68 58 33 15 16 23 27 39 41 38 70
100 91 100 98 98 95 98 94 85 83 57 43 45 40 18 14 10 10 10 9 9 18 16 12 8 5 4 3 2 8 56 91 88 81 66 30 16 17 20 20 35 42 38 87
87 89 99 99 96 94 97 83 70 42 71 79 72 50 45 40 36 16 11 10 21 18 14 13 7 4 3 3 3 14 61 92 92 86 65 27 17 19 20 18 30 36 42 71
75 91 100 97 94 100 88 100 67 62 85 83 58 49 38 27 19 18 21 18 14 14 15 9 6 4 3 3 3 24 68 88 97 87 58 25 27 20 19 19 22 35 40 43
92 100 98 97 100 99 100 100 100 88 64 78 69 58 40 33 31 20 16 16 16 16 11 8 7 4 3 2 5 23 53 93 87 85 58 32 20 22 21 19 22 30 34 50
96 99 100 100 98 100 99 99 96 92 80 67 49 35 40 43 44 34 23 18 16 14 11 10 6 5 3 2 9 20 53 87 72 73 54 39 20 22 24 21 23 24 32 44
100 100 98 100 98 100 100 95 97 92 92 91 73 46 47 41 38 34 27 26 17 14 11 8 6 5 3 3 7 20 68 83 68 63 55 52 21 24 27 24 21 22 30 55
95 100 100 100 100 100 98 98 92 92 89 79 70 66 66 60 46 39 43 23 16 12 10 8 7 5 3 3 14 25 81 83 68 66 65 58 20 26 30 29 21 21 29 60
97 91 100 100 100 100 100 100 100 99 97 87 71 61 54 48 47 48 31 29 29 14 13 12 6 4 3 2 21 39 80 89 81 65 67 61 20 26 32 33 24 22 25 56
98 98 95 100 100 100 100 100 100 99 94 89 75 65 57 51 51 43 36 37 22 13 10 7 6 4 3 3 13 38 82 97 79 62 72 62 19 25 33 36 25 23 23 52
60 89 100 99 80 100 100 100 100 100 95 94 93 73 65 59 53 47 42 36 22 11 6 6 5 3 3 4 8 57 88 89 80 82 69 70 19 25 32 37 29 17 24 23
17 52 86 100 100 100 96 100 99 98 100 94 86 62 68 64 56 48 36 27 15 10 7 5 3 4 6 6 18 74 88 87 90 61 69 70 22 27 35 36 32 18 16 25
59 39 60 96 100 100 100 100 100 94 100 99 74 58 58 46 35 27 22 19 14 14 14 8 10 9 11 13 54 88 93 81 81 86 88 73 24 27 36 35 33 18 12 24
76 50 76 97 99 100 100 87 84 81 90 85 62 54 46 54 37 26 24 22 13 15 34 20 34 87 48 53 88 94 96 88 91 95 96 77 30 30 38 32 34 29 14 12
89 62 41 72 100 94 100 100 100 100 100 82 72 61 63 59 54 42 20 12 10 10 41 29 73 100 99 74 92 97 100 99 100 97 98 70 35 33 36 32 30 36 24 14
76 80 49 24 76 100 82 76 92 92 86 64 66 47 40 33 34 24 14 12 16 59 59 36 87 100 97 89 89 98 98 98 96 95 98 78 38 34 37 33 31 39 35 17
86 62 36 18 17 21 56 66 63 57 45 40 40 36 29 24 9 6 9 9 18 76 50 96 94 99 100 95 90 100 97 96 97 95 100 70 41 40 40 33 34 36 38 31
57 61 33 23 19 14 11 15 23 28 28 27 26 8 6 5 5 4 12 10 36 70 72 99 98 98 100 88 100 97 98 88 94 96 97 84 44 45 46 38 36 33 32 36
90 96 97 100 98 89 100 91 57 8 7 8 6 12 18 45 13 6 17 8 32 40 40 98 99 98 98 97 100 95 96 84 98 100 94 96 80 51 49 43 40 33 31 31
100 100 100 100 99 83 100 62 32 8 6 8 77 100 87 93 85 37 27 58 27 24 65 100 100 100 94 100 91 94 96 98 91 93 99 88 88 94 73 50 43 35 33 34
100 100 100 100 100 91 53 97 21 37 42 100 100 100 99 100 100 99 58 75 70 51 86 98 100 99 99 100 94 87 86 94 97 99 99 79 92 97 96 95 92 81 70 61
100 98 82 92 99 79 51 89 78 82 100 100 93 100 94 99 99 100 100 100 87 96 94 100 100 99 100 99 100 100 98 97 97 95 97 97 93 100 100 99 91 100 98 88
100 89 100 100 99 100 97 100 89 100 100 100 100 99 72 70 80 100 97 88 99 96 92 78 80 99 84 97 99 100 93 97 97 99 98 97 98 97 89 100 99 94 99 96
100 100 100 100 100 98 79 79 96 90 95 96 90 95 86 75 76 70 95 100 100 92 100 83 51 68 63 82 95 97 98 100 99 100 98 98 98 95 98 99 99 99 98 97
100 100 100 100 100 100 87 100 100 100 96 94 76 69 71 74 74 65 64 82 87 82 76 56 55 41 24 60 52 71 90 97 98 98 96 98 98 97 98 99 98 97 97 97

GFSCGP_500_rhum_120.txt.gz
RH
65 79 54 97 93 98 100 89 77 80 79 63 41 33 32 29 24 23 16 14 12 14 22 13 12 10 8 10 9 6 4 3 2 10 41 66 65 61 51 25 21 27 37 42
76 52 86 100 98 100 96 93 84 93 86 75 62 50 34 30 23 15 16 25 51 19 16 18 10 8 9 10 7 6 4 3 2 16 64 72 69 64 60 21 18 19 32 38
79 76 95 100 100 96 94 92 99 97 97 94 86 70 54 54 46 26 17 12 11 11 11 10 9 8 11 14 10 5 4 2 3 22 63 73 72 74 64 21 17 17 31 36
48 92 91 100 93 100 94 100 100 99 96 85 86 63 58 56 41 33 22 17 13 10 8 8 8 14 20 16 9 6 4 3 3 26 79 87 89 78 62 22 18 17 26 35
60 83 100 96 89 100 80 100 98 98 95 99 85 84 90 71 68 47 40 33 21 14 12 10 14 29 24 14 8 4 3 3 4 44 85 98 98 76 54 23 20 17 23 32
13 67 92 98 100 100 99 100 100 99 96 83 74 56 68 66 59 64 55 45 32 25 20 24 43 32 22 13 5 4 4 2 7 43 83 100 100 77 44 25 21 18 22 29
4 12 60 100 97 100 99 100 100 100 100 65 94 64 62 76 72 64 50 30 42 46 55 52 24 17 18 10 7 4 3 2 8 36 75 97 100 76 47 27 22 21 21 25
2 34 32 47 95 100 100 100 100 98 100 100 100 82 76 64 58 59 54 52 45 38 26 19 17 21 18 12 7 4 3 2 10 32 75 98 98 68 63 26 23 23 20 21
3 21 77 60 95 100 98 93 93 100 98 97 100 100 97 83 74 69 57 40 76 79 61 30 23 18 15 13 7 5 3 2 11 34 86 98 83 66 68 26 25 24 20 20
7 8 80 100 100 94 92 100 100 99 98 100 100 100 100 84 71 67 66 63 59 50 35 36 30 20 16 12 7 7 3 3 8 35 83 97 76 70 68 25 26 25 23 24
12 10 28 100 99 100 100 96 96 100 99 100 100 100 100 97 83 73 68 59 54 50 46 44 31 21 17 13 11 5 4 3 9 43 87 86 72 81 69 28 28 25 24 25
22 16 55 54 89 100 100 100 100 100 99 99 100 100 100 97 94 86 72 57 51 46 45 41 35 34 24 18 12 5 4 3 9 42 89 81 86 92 74 33 28 25 27 24
57 39 72 94 58 82 98 99 100 100 100 95 100 100 95 99 99 87 70 60 53 49 46 42 39 35 25 19 11 8 3 3 7 47 76 77 80 90 78 36 27 27 35 18
36 55 84 91 100 100 90 100 97 91 89 100 83 100 98 86 77 61 59 55 50 47 42 37 34 29 20 14 12 6 3 4 5 64 70 82 88 85 81 36 26 29 37 23
45 73 94 63 53 82 100 89 100 99 100 73 63 74 71 73 69 62 57 50 44 41 38 34 26 18 12 11 5 4 3 4 7 89 82 89 86 81 79 34 27 29 34 26
83 76 72 59 40 52 68 87 100 95 100 100 94 65 56 67 56 47 48 41 39 38 34 29 22 16 7 4 4 11 6 6 37 100 96 92 90 86 94 34 28 33 35 33
62 68 76 87 96 49 65 59 93 100 84 91 93 79 52 51 57 45 38 34 35 35 33 28 20 6 3 4 18 67 40 33 92 99 100 91 96 95 100 47 29 35 38 34
68 74 84 77 47 48 21 42 68 88 94 94 80 58 35 35 30 28 25 22 17 19 21 21 14 5 6 5 52 75 75 62 84 94 100 95 97 96 100 60 32 38 38 34
88 99 100 98 86 76 52 20 20 32 55 61 50 46 41 30 27 26 26 22 11 14 7 5 5 17 24 26 74 59 94 82 99 100 98 96 97 95 98 60 38 41 44 35
100 100 100 100 100 100 99 100 81 48 15 16 15 21 22 14 8 42 32 19 5 7 14 12 14 38 75 54 89 72 92 98 85 99 96 96 97 97 98 76 42 48 49 41
100 100 100 100 100 100 100 86 77 55 33 22 28 60 64 53 66 81 80 59 13 12 9 34 50 66 92 70 82 100 95 94 91 83 88 95 96 95 95 93 45 60 53 44
97 100 100 100 99 100 76 97 85 70 41 77 100 100 98 87 95 100 100 63 37 14 30 51 57 81 100 82 82 99 100 98 93 98 89 90 87 89 100 97 94 69 53 48
100 100 100 86 75 71 95 100 97 100 100 100 100 93 66 67 94 88 87 100 53 76 75 70 66 86 100 97 84 97 100 97 90 98 97 98 81 94 93 96 94 90 88 73
100 100 100 100 94 91 87 89 100 100 100 96 91 99 94 80 73 74 75 85 98 96 97 100 99 100 100 99 100 86 99 90 97 98 98 93 98 75 97 97 96 97 98 98
100 100 98 100 100 100 100 98 100 100 97 100 83 84 80 70 74 77 74 87 97 94 100 100 98 100 99 80 97 98 100 97 100 97 98 98 98 98 91 96 98 100 98 98
100 100 96 92 100 100 100 100 98 100 79 89 79 68 64 78 86 80 64 69 79 100 100 100 100 99 54 30 80 98 99 99 100 100 85 98 98 98 98 97 96 98 100 99

GFSCGP_500_rhum_123.txt.gz
RH
27 33 34 59 74 72 100 97 90 93 100 100 95 86 78 61 61 50 36 30 27 21 19 17 14 12 8 7 8 12 9 6 8 5 4 3 3 17 63 66 55 50 31 26
24 22 49 72 78 85 100 100 77 97 100 98 96 92 92 81 69 52 38 31 25 22 21 16 14 10 11 19 15 12 7 8 8 6 4 3 4 22 67 70 62 57 34 20
14 22 36 46 68 88 100 97 94 100 100 89 87 79 90 92 87 67 39 30 22 21 19 25 32 23 34 30 23 17 8 10 9 7 4 3 3 25 67 80 62 52 36 19
4 6 17 32 31 96 78 97 100 98 100 74 100 73 94 97 91 88 64 45 38 28 24 21 17 39 40 15 16 10 9 10 13 7 4 3 5 46 65 74 68 51 33 20
3 3 5 10 34 100 59 100 99 96 95 91 88 90 81 100 90 89 98 61 40 41 32 20 12 10 10 11 11 8 14 21 18 7 3 2 5 49 68 81 81 54 33 20
2 2 2 2 12 65 83 100 100 100 100 97 68 100 88 100 98 100 86 82 86 69 43 24 20 15 11 10 9 13 23 21 17 7 3 2 9 60 75 90 84 56 34 22
2 25 75 87 13 12 58 100 100 100 94 55 94 100 81 100 100 100 95 70 86 94 58 44 40 33 19 15 12 15 31 23 14 5 3 2 16 56 85 89 80 54 39 22
4 4 87 76 90 89 90 66 94 99 100 90 100 97 90 100 91 94 95 89 69 74 69 53 38 38 40 35 29 37 33 20 9 5 3 2 16 57 93 92 84 61 41 24
56 35 100 98 99 99 95 49 81 100 100 99 92 100 98 96 78 86 99 87 73 67 81 80 53 52 37 40 46 31 22 22 11 5 3 3 15 40 85 93 72 69 38 25
28 100 100 99 95 100 97 50 97 100 97 88 100 100 100 85 86 100 96 84 85 95 66 50 43 48 39 38 24 20 23 23 14 6 4 3 12 40 70 87 70 70 45 26
19 82 91 100 98 93 89 100 96 96 96 99 100 98 100 100 92 99 95 100 99 79 74 78 93 91 68 60 52 34 23 15 14 7 4 3 9 23 57 87 70 72 44 27
79 99 100 100 100 94 58 100 100 100 89 98 100 100 96 97 100 96 94 98 95 80 67 63 58 55 52 43 46 57 34 18 14 10 4 3 4 19 60 83 86 78 41 27
84 89 100 100 100 96 68 95 100 100 100 100 100 97 100 100 100 100 100 90 78 83 76 65 57 51 48 47 42 40 43 26 16 12 5 3 3 15 68 89 91 76 42 28
25 48 61 100 99 100 100 100 99 99 100 100 100 100 99 99 100 100 95 96 85 63 54 51 50 46 43 42 38 36 40 35 22 9 7 4 3 21 63 82 90 78 47 27
37 77 98 97 24 100 100 100 100 98 98 97 100 100 100 100 100 100 90 78 64 49 48 44 42 39 36 35 34 33 33 35 24 13 7 3 3 18 63 79 88 81 49 25
100 100 95 100 100 100 82 100 100 100 100 97 100 96 100 100 100 83 69 54 45 45 40 38 36 34 33 30 28 28 29 27 20 10 4 3 3 7 58 86 89 84 54 26
99 92 94 79 100 96 88 29 69 99 100 100 100 89 100 100 90 67 55 46 41 37 30 26 27 28 26 25 25 25 23 18 13 4 2 3 3 14 72 95 90 80 58 28
84 86 85 71 82 98 100 100 100 100 88 92 84 72 55 79 71 59 50 37 30 26 31 27 19 18 15 15 18 19 17 11 7 3 8 21 7 60 97 96 90 82 71 30
100 100 100 100 100 100 71 99 43 42 20 71 86 72 50 30 30 35 22 20 24 19 15 12 24 24 14 10 12 13 12 3 3 21 32 22 25 99 99 91 95 96 90 38
100 100 100 95 99 96 100 97 98 18 14 23 24 36 39 39 19 27 20 18 27 58 38 26 15 12 13 11 8 8 7 3 6 45 57 55 65 98 93 92 97 99 97 51
100 99 100 84 86 98 100 100 90 83 100 95 67 40 50 37 55 83 74 60 58 72 56 19 5 6 6 6 6 6 5 4 27 37 91 78 64 97 100 96 96 95 99 70
97 87 90 100 87 100 95 75 100 100 99 94 91 100 100 100 100 98 98 97 90 84 37 15 12 13 18 32 38 28 9 20 49 42 80 78 80 86 97 96 97 96 98 92
100 100 85 78 93 96 97 99 98 100 100 100 100 100 100 97 89 75 74 83 79 89 72 35 12 16 60 68 64 81 55 43 62 42 79 92 96 97 94 96 96 97 97 97
100 100 100 100 100 100 100 100 100 100 100 100 97 98 98 94 82 76 82 78 85 95 100 69 58 31 100 98 83 93 94 56 69 80 82 97 96 98 93 95 96 95 99 98
100 100 100 100 100 100 98 99 100 100 100 100 94 81 69 66 66 75 78 64 56 81 100 100 80 89 100 100 99 100 100 62 71 99 95 90 97 97 97 90 90 87 99 100
100 100 100 100 100 100 100 96 86 78 88 94 85 71 73 74 77 79 98 93 87 63 84 100 100 100 100 100 96 96 100 91 83 99 100 100 97 98 97 99 100 99 94 92

GFSCGP_500_rhum_126.txt.gz
RH
12 13 18 23 24 23 39 78 65 52 81 100 98 64 83 94 100 97 98 82 72 55 46 39 32 27 23 19 13 10 7 10 8 8 17 8 10 6 4 3 4 14 63 57
11 12 10 12 18 24 36 63 42 60 87 100 98 70 68 92 84 93 90 97 88 74 49 37 34 34 31 20 18 14 9 10 8 13 13 8 9 7 4 3 3 18 67 62
5 4 4 5 7 12 22 30 48 92 98 100 95 62 65 72 87 97 97 93 98 95 82 46 42 38 31 23 17 12 11 13 15 13 10 18 8 12 5 3 5 50 72 69
3 2 3 2 2 40 8 44 83 96 95 98 100 68 60 67 82 98 96 97 97 96 72 66 65 41 31 28 21 26 20 27 33 18 25 14 12 12 6 3 5 54 65 66
2 2 2 2 2 9 3 63 94 94 100 100 61 75 31 71 78 90 84 98 100 97 94 90 67 35 20 29 22 27 34 46 30 12 13 10 15 10 6 3 5 36 74 64
2 1 1 2 4 5 9 16 47 74 96 77 26 100 27 79 87 99 100 100 99 88 78 88 77 59 64 65 33 14 12 12 11 9 9 17 18 12 6 3 8 47 68 69
2 2 2 9 54 100 100 93 71 100 55 13 84 99 33 67 99 82 99 100 88 78 83 81 67 52 63 53 34 22 12 10 10 9 18 24 20 12 5 3 16 64 64 72
3 4 24 55 73 43 58 70 100 100 80 38 100 71 27 71 100 89 100 98 83 87 95 96 94 64 58 79 55 27 21 17 15 11 20 24 17 8 4 4 34 58 66 74
6 9 7 22 100 100 100 94 88 99 97 87 60 51 78 61 100 84 100 86 99 97 49 39 68 92 76 35 32 32 35 30 18 22 28 26 18 8 4 11 22 49 52 73
16 30 9 10 91 99 97 95 100 100 92 80 58 86 91 88 100 87 100 99 98 94 73 72 79 92 86 72 70 59 55 52 38 32 37 29 17 8 4 8 22 47 48 77
55 51 15 30 54 95 95 100 85 80 90 98 83 94 93 82 99 100 96 99 100 100 100 98 86 98 99 94 66 53 49 47 29 28 20 23 21 10 4 6 18 42 46 79
100 48 40 74 85 100 81 100 100 89 99 98 92 98 97 71 99 100 100 92 100 100 100 99 99 100 96 91 73 76 81 60 43 40 39 21 16 11 7 4 9 37 61 79
79 100 99 96 99 100 97 100 100 100 100 100 100 72 98 98 84 100 100 99 94 94 100 100 100 100 90 70 63 57 56 54 43 50 49 33 17 13 10 4 6 25 45 91
56 49 91 62 97 100 100 100 100 100 96 100 100 94 100 100 100 94 100 100 89 97 100 100 100 90 74 60 56 52 49 51 50 45 50 41 26 18 12 4 5 18 48 91
100 57 50 42 46 100 100 100 100 98 100 93 100 100 100 100 100 100 100 86 85 100 100 96 78 67 53 44 44 42 40 39 39 37 37 51 37 25 12 5 3 8 41 80
100 100 100 100 91 53 34 75 80 100 87 89 92 100 100 100 99 98 100 100 86 99 88 70 65 53 38 31 30 31 32 32 31 32 32 64 41 24 11 7 3 4 32 80
70 78 88 83 83 46 41 100 100 93 100 100 98 98 100 100 100 100 88 77 74 72 65 57 48 42 33 27 23 23 24 26 26 26 28 30 32 25 11 5 4 3 19 77
94 87 86 78 94 91 97 95 68 100 97 98 97 99 100 99 98 90 82 88 80 83 62 48 41 36 29 19 13 16 15 17 23 22 24 25 24 18 6 4 6 3 20 90
84 88 85 82 77 76 78 86 94 48 78 97 79 87 91 92 82 82 72 60 59 46 24 18 26 29 22 9 6 6 8 7 14 18 21 18 17 10 5 16 10 7 51 100
100 100 100 84 88 79 86 100 78 76 39 48 47 47 52 74 71 63 54 46 27 7 6 6 9 14 6 6 6 5 3 4 6 11 15 11 7 11 12 25 71 29 93 100
100 99 94 100 99 97 86 70 73 92 100 100 100 98 47 24 18 12 11 21 46 80 64 52 49 37 31 24 17 10 8 4 4 6 9 8 5 36 42 45 61 46 100 100
97 96 92 98 97 99 97 75 84 100 84 87 97 100 95 100 100 99 100 97 73 78 74 64 70 37 23 18 20 11 6 5 4 4 6 6 5 31 98 65 63 74 99 98
100 100 98 100 100 91 100 89 100 100 100 100 100 100 100 100 98 89 55 47 44 44 58 61 64 58 34 15 11 12 10 14 8 4 4 4 4 30 81 96 75 79 98 97
100 100 100 100 100 100 100 100 100 100 100 100 100 99 99 78 69 67 73 72 68 52 38 47 81 87 68 33 16 31 70 74 59 32 9 11 7 40 68 82 95 81 98 94
100 100 100 100 100 100 100 100 100 100 100 99 95 85 88 71 72 77 81 74 74 79 68 50 46 92 98 93 39 61 100 64 67 81 55 34 18 26 39 97 94 62 86 98
100 100 100 100 100 100 100 100 96 93 84 82 77 83 83 86 82 75 78 90 88 88 92 78 68 72 100 100 95 94 100 96 97 86 75 77 54 37 61 78 95 99 92 98